GFSWCAN_850_thetae_000.txt.gz
Theta_e
309 311 311 311 311 311 311 310 310 309 308 308 308 308 309 312 315 317 316 316 316 314 314 314 314 314 314 317 321 315 317 316 315 316 314 316 315 317 315 314 314 315 317 314 313 314 315 310 311 314 314 310 309 308
306 308 311 311 311 310 311 311 310 310 310 309 308 308 309 311 313 315 316 315 315 315 315 314 314 313 313 314 315 314 317 316 317 317 311 311 315 308 318 317 312 315 314 314 314 316 313 312 311 311 310 309 310 308
304 306 307 309 311 312 311 311 311 311 310 310 309 309 310 311 313 314 315 316 316 315 315 316 315 314 314 314 314 317 313 314 313 314 313 311 312 314 313 315 317 314 312 314 314 313 313 313 312 311 310 309 307 305
303 303 306 308 309 310 311 311 311 311 311 310 310 310 311 313 314 314 315 315 315 315 315 316 315 316 316 315 315 315 315 314 313 312 309 308 312 313 313 317 316 314 313 313 313 313 313 311 311 309 307 308 305 303
303 303 304 306 307 309 311 311 311 311 311 311 311 311 312 314 315 315 315 315 315 315 316 314 314 315 315 315 315 315 314 314 313 311 306 312 312 312 311 310 315 313 314 313 313 312 311 311 308 307 307 306 302 300
302 303 304 306 307 308 310 311 310 310 310 311 312 313 313 314 315 316 316 316 316 316 316 318 313 313 314 313 314 314 314 314 314 313 312 313 313 314 310 311 311 312 312 312 312 310 309 308 307 305 304 301 299 297
300 301 300 303 306 307 309 311 311 310 310 311 312 313 313 314 315 316 316 314 316 317 317 315 313 311 312 312 312 313 313 314 314 313 311 313 314 312 307 311 311 311 308 309 307 307 306 305 305 301 300 298 298 298
300 300 299 301 304 306 308 309 311 311 310 311 311 312 313 313 314 314 314 313 314 316 315 311 308 309 310 310 311 311 311 311 312 313 310 310 310 310 311 311 307 305 304 306 305 306 305 302 301 300 299 299 298 296
300 300 300 301 302 305 306 308 310 311 311 310 313 312 313 313 313 313 314 314 313 313 312 308 309 311 308 306 307 307 308 309 307 307 307 308 308 311 311 308 304 305 305 305 302 302 301 300 299 298 297 295 295 295
300 300 300 300 301 302 304 306 309 311 313 312 311 311 311 312 312 313 313 312 312 313 311 309 309 313 309 304 304 306 305 308 310 305 303 303 306 304 302 303 304 303 303 302 301 300 299 298 296 295 294 294 294 293
300 299 300 300 299 300 301 305 307 309 309 309 310 310 308 309 311 312 310 307 306 305 305 305 306 305 306 308 306 304 304 303 309 305 307 308 308 305 301 303 302 301 301 300 298 296 294 294 294 294 294 293 291 291
300 299 300 299 300 301 301 303 304 304 304 305 306 305 305 305 304 305 304 300 302 306 301 302 303 304 305 306 304 299 304 302 307 300 303 306 305 301 301 300 299 298 297 294 292 292 292 291 292 292 292 291 291 292
299 299 300 300 301 302 302 301 301 301 301 301 302 301 300 300 304 306 307 305 304 301 301 301 301 302 302 303 299 302 304 305 298 301 304 305 301 300 300 299 298 296 294 292 292 291 291 292 293 292 292 292 292 291
298 298 299 299 300 302 302 301 301 302 301 300 300 303 303 304 304 303 304 305 299 301 301 302 298 301 298 298 299 304 298 299 302 302 304 302 299 297 296 295 295 294 293 292 291 291 292 292 292 292 292 292 292 291
298 298 299 299 299 301 303 302 302 300 300 301 301 303 302 297 298 298 298 300 300 301 302 300 298 299 297 298 297 297 299 301 301 302 301 299 296 295 294 294 294 294 292 291 291 291 292 293 292 292 292 291 291 291
298 298 298 298 299 301 302 301 301 301 299 297 296 298 296 298 298 299 299 299 300 300 300 299 299 301 299 299 299 300 300 300 300 299 297 295 294 295 295 295 294 292 290 290 291 293 293 293 293 293 292 291 290 290
297 298 299 298 299 301 301 301 301 299 297 295 295 296 296 297 299 299 299 300 300 300 300 298 301 300 294 298 299 296 298 298 297 295 294 294 294 295 295 293 291 290 290 291 292 293 293 293 293 292 292 291 290 290
297 298 298 298 298 298 299 299 298 298 294 293 296 295 296 296 297 298 299 299 299 299 296 298 293 296 298 298 299 297 295 295 293 293 293 293 293 293 293 291 291 291 292 292 292 293 293 293 292 292 291 291 290 290
297 298 298 299 299 299 297 297 297 295 293 293 293 294 295 295 296 297 298 299 298 296 295 295 297 297 296 293 296 295 294 293 294 294 293 292 291 291 291 291 291 292 292 292 292 293 293 292 292 292 291 290 289 289
296 297 298 299 298 296 296 295 294 294 294 293 294 294 294 294 295 295 296 297 297 296 297 298 297 296 296 294 294 293 294 294 293 292 292 292 291 291 291 291 291 291 292 292 292 292 291 291 291 291 290 289 288 288
296 296 298 297 297 295 294 294 293 293 293 293 292 293 292 292 293 294 294 295 296 296 297 296 295 295 295 295 295 294 293 291 291 291 291 292 292 292 291 291 291 291 292 292 292 291 291 291 291 291 290 289 288 288
296 296 296 296 294 293 292 292 293 292 293 292 292 292 293 292 291 291 291 292 293 294 295 295 294 294 293 293 291 291 291 291 291 291 291 291 291 291 291 291 291 292 292 292 291 291 291 291 291 290 290 288 287 287
296 296 294 293 293 292 291 292 292 291 293 292 291 293 292 292 288 288 291 291 291 292 292 292 292 291 291 291 291 291 291 291 291 291 291 290 290 290 290 290 291 291 291 291 291 291 291 291 291 290 287 287 287 287
295 294 293 292 291 290 291 290 290 290 290 291 292 292 290 289 287 288 290 290 291 291 291 291 291 291 290 290 290 290 290 291 291 290 290 290 290 290 290 290 290 291 291 291 291 291 291 291 290 288 287 286 286 286
294 291 291 289 289 289 290 291 290 291 292 290 290 290 289 285 290 290 290 291 291 291 291 290 290 290 290 290 290 290 291 291 291 290 290 290 290 290 290 290 291 291 291 291 291 290 290 289 287 286 286 286 286 286
290 289 290 289 288 290 290 290 289 290 290 289 289 286 285 289 291 292 292 292 290 290 290 290 290 290 291 290 290 290 290 290 291 290 290 290 290 290 290 291 290 290 290 289 289 288 287 286 286 285 285 285 285 285
290 290 289 288 288 286 286 284 285 287 288 289 290 287 289 291 292 292 290 290 289 289 289 290 290 290 290 290 289 289 289 289 289 290 290 290 290 290 289 289 289 288 288 288 287 286 286 285 284 284 284 285 285 285
289 289 289 288 288 288 288 288 289 289 291 288 288 289 291 292 292 288 288 289 289 289 290 290 289 289 288 288 288 288 288 288 289 289 289 288 288 289 289 288 288 287 286 286 286 285 285 284 284 284 284 284 284 284
290 289 289 287 286 287 288 290 290 290 289 288 291 292 290 288 287 287 288 288 288 287 287 287 287 286 286 285 284 284 284 285 285 285 284 285 287 286 286 285 285 285 285 285 284 284 284 284 284 284 284 283 283 283
289 289 289 286 287 290 291 290 290 290 290 290 290 289 289 288 286 285 284 284 284 283 282 282 282 282 281 281 281 280 280 280 281 281 281 281 281 282 282 283 283 283 283 283 283 283 283 283 282 282 282 282 282 281
289 288 289 289 289 290 291 291 291 290 290 290 290 290 290 286 282 280 279 279 279 279 279 279 279 278 278 278 278 278 278 278 278 278 278 279 279 279 280 280 280 281 281 281 281 281 280 280 280 280 280 280 280 280
287 289 289 289 290 289 289 289 289 289 289 289 289 287 284 280 276 273 275 276 276 277 277 276 276 275 275 275 276 276 276 276 277 277 278 278 278 278 278 279 279 280 280 279 279 279 279 279 279 279 279 279 278 278
284 284 284 285 286 287 287 287 285 284 284 284 282 281 280 277 274 273 273 274 274 274 275 275 275 275 275 275 275 275 275 275 275 275 276 276 277 277 277 278 278 278 278 277 277 278 278 277 277 277 277 277 276 276

GFSWCAN_850_thetae_003.txt.gz
Theta_e
313 312 312 312 311 311 310 309 308 308 308 307 307 307 308 311 315 317 317 316 319 318 317 317 317 319 319 319 324 320 320 320 321 316 319 321 319 319 317 315 316 317 318 315 316 317 316 313 313 316 315 314 313 311
308 312 312 312 311 311 311 310 310 309 308 308 308 308 308 310 313 316 319 316 315 320 319 314 314 316 317 318 319 319 319 320 319 322 318 318 320 314 318 318 315 317 316 317 317 317 314 314 313 314 313 312 311 310
306 307 310 310 311 311 311 311 311 310 310 309 309 308 308 309 312 314 316 316 315 316 318 317 317 314 314 314 318 319 319 318 319 319 317 316 312 317 316 318 319 316 314 317 316 314 313 313 314 313 312 311 309 308
303 305 307 309 311 312 311 310 311 311 311 310 310 309 309 310 311 313 315 316 317 317 318 321 317 315 314 314 315 318 318 316 318 317 313 310 314 316 317 317 317 316 315 316 317 314 313 313 313 312 311 309 308 307
303 303 304 306 308 309 311 311 310 311 311 311 311 310 310 311 313 313 314 315 316 319 319 319 316 316 315 315 316 315 315 316 318 313 309 313 317 317 316 314 317 314 315 318 318 314 313 313 311 311 310 309 308 304
301 302 303 305 306 308 309 310 311 311 310 311 311 312 312 313 314 315 319 315 315 315 316 322 317 315 316 316 318 318 318 318 318 317 314 315 316 316 312 315 313 313 313 313 314 312 311 310 308 308 307 305 303 301
300 300 300 302 306 307 308 310 310 310 310 311 311 312 313 314 315 318 318 318 316 316 317 316 319 312 313 316 317 317 317 318 317 316 316 315 316 315 312 315 312 312 312 312 310 310 309 308 308 306 304 302 301 301
300 300 300 301 303 306 307 309 310 310 310 310 311 311 312 313 315 316 315 313 316 317 317 317 313 312 311 314 315 312 314 314 315 316 312 313 314 314 315 313 312 312 309 309 308 308 308 307 305 303 301 300 299 297
300 300 300 301 301 304 305 307 309 311 311 310 311 311 312 313 313 314 314 314 315 315 317 309 312 312 310 309 309 308 309 312 311 311 311 312 312 313 313 312 311 309 309 309 307 306 304 303 301 300 298 297 296 296
300 300 300 300 300 301 304 306 308 310 311 310 313 313 312 312 313 313 313 314 314 313 312 309 312 312 311 306 306 306 306 310 310 308 305 304 308 310 310 309 308 307 307 306 305 304 302 300 298 297 296 296 295 294
300 300 300 300 300 300 301 303 306 308 310 308 311 311 310 312 313 313 312 311 310 307 308 309 310 310 307 309 307 305 306 305 311 308 308 310 310 309 308 305 305 305 305 304 303 300 297 296 296 295 295 295 294 294
299 300 300 300 301 301 301 304 306 307 305 306 306 306 308 307 307 311 305 303 305 309 303 303 304 307 305 306 304 300 304 303 311 305 307 309 309 307 305 306 304 303 301 299 297 296 295 295 295 295 294 294 293 292
298 299 299 300 301 302 301 302 303 303 303 303 303 303 301 300 303 306 307 306 305 301 301 302 301 303 303 303 301 302 306 308 302 305 306 309 306 304 305 303 302 300 297 295 295 294 294 294 292 292 292 292 292 292
298 298 299 300 301 302 301 300 302 302 301 300 300 303 302 304 304 304 306 304 301 302 302 302 300 301 300 301 300 306 302 302 305 306 307 306 304 303 303 301 300 298 295 294 293 292 291 290 291 292 292 292 292 292
295 297 298 299 300 302 302 302 302 302 301 300 300 304 302 298 299 299 299 300 299 301 302 301 301 303 301 302 302 301 301 304 305 306 305 302 301 299 298 296 295 294 294 294 293 292 290 291 292 293 292 292 292 292
296 297 298 298 299 301 301 301 301 302 299 298 298 300 298 300 299 299 300 300 300 301 302 302 302 304 303 303 302 304 305 304 304 303 301 299 297 297 296 296 295 295 293 291 290 290 291 292 292 292 293 292 292 291
296 298 298 298 299 301 301 300 300 299 299 297 297 298 298 299 300 300 299 300 300 300 302 301 303 303 298 302 302 301 302 302 301 299 298 297 296 295 295 295 294 294 292 291 291 292 292 292 292 293 292 291 293 292
296 297 298 298 298 299 300 300 300 298 298 297 299 296 296 297 298 299 300 300 300 299 298 301 297 299 301 302 302 301 299 298 298 296 295 295 295 294 294 294 294 293 293 292 291 292 292 292 293 293 293 293 293 292
296 297 298 298 299 299 299 298 297 298 297 296 294 295 296 296 297 298 298 299 300 298 297 297 300 300 299 297 299 299 299 297 296 296 296 295 294 292 291 291 291 291 291 292 293 293 293 293 293 293 293 293 293 292
296 296 297 299 298 297 296 296 296 297 298 296 294 296 295 295 295 296 298 298 296 297 298 299 299 299 299 297 297 297 296 296 296 295 295 294 293 293 293 293 293 293 293 293 293 293 293 294 293 293 293 292 291 290
296 296 297 298 296 295 296 296 296 296 295 296 293 296 293 294 294 294 295 296 297 298 298 298 298 298 297 295 295 295 295 294 293 293 293 294 293 293 293 293 293 293 293 293 292 293 292 292 292 293 292 291 290 290
296 296 296 296 295 294 293 293 295 294 296 294 295 296 294 294 294 293 292 294 295 296 297 297 297 297 296 295 295 293 292 291 291 292 292 292 293 294 294 293 293 293 291 291 291 291 291 292 292 292 291 291 289 289
296 296 295 295 294 293 292 293 294 294 295 294 294 295 294 294 292 290 293 294 294 295 295 295 295 294 294 293 292 291 290 290 292 292 293 293 293 293 292 292 292 292 291 290 292 292 292 292 291 291 290 289 288 288
295 294 293 292 293 293 292 292 292 293 293 295 295 295 294 293 289 291 294 294 294 294 293 293 293 293 293 291 291 292 292 292 292 293 293 293 293 293 293 292 292 291 292 292 291 291 291 291 290 289 288 288 288 287
294 292 292 292 291 292 293 293 293 294 294 293 294 294 292 290 293 293 293 294 295 294 293 293 292 292 292 292 292 292 292 292 292 291 292 292 292 292 292 292 291 291 291 291 290 289 289 289 289 288 287 287 286 286
293 291 293 292 291 294 294 293 293 294 293 293 293 291 290 293 293 294 294 294 293 291 289 290 291 292 292 291 291 291 290 290 289 290 290 290 291 291 291 290 290 290 290 290 289 288 287 287 287 286 286 286 286 285
293 292 291 289 291 291 291 290 291 292 292 293 293 291 292 293 293 293 291 288 290 287 288 288 288 288 288 287 287 287 287 287 287 286 287 287 287 287 287 288 288 288 288 288 287 286 286 286 286 285 285 285 285 285
292 291 292 290 291 291 292 292 292 293 293 292 292 292 293 293 294 288 285 285 287 287 286 286 286 287 285 284 284 283 284 284 284 284 284 285 286 287 286 285 285 285 285 285 285 285 285 284 284 284 284 284 284 284
292 291 291 290 290 291 292 292 293 292 292 292 294 294 293 287 284 282 284 285 286 285 285 284 283 283 281 281 280 279 280 280 280 280 279 281 280 281 282 282 282 282 282 283 283 283 283 283 283 283 283 282 282 282
291 291 292 290 290 293 294 292 293 292 291 291 292 290 288 283 282 282 282 281 282 281 280 279 279 278 277 277 277 277 277 278 278 277 276 276 276 278 278 279 279 280 280 281 281 281 281 281 281 281 281 281 281 280
289 290 291 291 292 293 291 291 290 290 290 290 290 290 287 281 278 279 279 278 277 278 277 276 275 275 275 274 275 275 275 276 276 276 276 276 277 277 277 277 278 278 279 279 279 279 279 279 279 279 279 279 279 279
290 291 292 292 292 290 289 288 289 289 291 289 290 286 282 282 280 274 276 275 274 275 276 275 274 274 274 273 274 273 274 274 274 275 275 275 276 276 276 276 277 277 277 277 277 277 278 278 278 278 277 277 277 276
287 287 287 288 289 289 288 287 289 288 288 288 285 283 280 281 277 273 273 275 275 275 275 275 275 275 274 272 272 273 273 273 273 273 273 274 274 274 275 275 275 275 275 276 276 276 276 276 276 276 276 275 275 274

GFSWCAN_850_thetae_006.txt.gz
Theta_e
313 313 312 312 311 310 309 308 308 308 308 308 308 307 308 311 316 317 318 315 322 321 320 321 321 321 321 321 326 320 322 321 324 316 320 323 321 322 320 317 316 315 317 314 316 316 316 314 314 315 317 315 314 313
314 314 312 312 311 311 310 309 308 308 307 307 307 307 308 309 313 317 322 316 316 323 320 318 319 320 320 320 321 320 320 321 322 322 321 321 319 315 318 322 315 319 320 321 318 318 315 315 314 314 314 314 312 311
308 312 313 312 311 311 311 310 309 308 308 308 308 308 308 309 311 315 321 316 317 318 319 316 318 316 317 319 321 321 321 319 319 321 317 315 311 318 316 320 318 316 315 321 319 316 315 314 313 314 313 312 311 310
307 308 311 312 311 312 311 311 311 310 310 309 309 308 308 309 310 313 318 316 320 319 318 322 319 316 314 315 317 320 319 319 320 319 312 309 311 317 319 318 320 318 316 317 317 316 315 315 313 313 312 310 310 309
304 306 307 309 311 311 311 311 311 311 311 311 310 310 309 309 310 311 313 315 317 321 317 323 318 318 314 315 318 318 318 317 320 316 308 311 318 320 319 317 319 315 315 317 318 316 316 315 312 311 310 309 308 307
302 302 305 306 308 309 311 312 311 310 311 311 311 311 310 310 311 312 319 314 315 317 318 317 319 317 316 317 320 319 319 319 319 318 313 317 318 318 315 316 314 313 313 313 314 314 314 312 311 309 308 306 305 303
301 300 301 304 306 307 308 310 311 311 310 310 311 312 312 312 313 319 318 320 315 315 317 316 319 315 316 318 319 319 319 319 319 318 318 316 317 317 310 315 313 312 312 312 312 312 311 310 309 308 305 304 302 301
300 300 300 302 304 306 307 308 310 311 310 310 310 311 312 312 314 315 316 314 316 318 318 317 315 314 314 317 316 316 317 317 317 317 315 315 316 315 316 315 313 313 312 312 310 310 309 308 308 305 303 301 299 298
300 300 300 300 301 304 306 308 309 310 310 310 310 311 311 312 313 314 315 314 315 317 318 311 312 314 313 312 312 311 312 312 313 313 313 314 314 313 314 313 312 312 312 310 309 308 307 305 303 302 300 298 297 297
300 300 300 300 300 300 303 306 308 310 310 310 311 312 312 313 312 312 313 314 314 315 315 310 314 314 312 309 309 308 308 310 311 309 308 306 311 312 312 312 312 311 310 309 308 306 304 303 301 298 297 297 297 296
300 300 300 300 300 300 300 303 306 309 311 311 311 311 311 313 313 313 313 312 312 311 310 311 312 310 310 309 307 307 306 307 310 310 310 309 309 309 309 311 309 308 308 307 306 304 301 298 297 296 296 296 294 293
299 300 300 300 300 301 303 304 305 306 307 308 309 309 308 309 307 309 307 305 307 312 306 306 309 309 307 309 307 303 306 303 310 305 306 310 310 310 310 307 306 306 305 302 300 298 297 296 296 295 294 292 292 292
298 299 299 300 301 301 302 303 304 306 305 306 306 305 303 300 304 306 308 306 306 302 302 303 302 304 304 305 301 302 305 307 303 307 308 309 308 307 307 306 304 302 300 298 297 296 295 294 293 291 290 291 292 292
297 298 299 300 302 301 301 302 303 303 303 302 300 303 302 304 303 302 302 301 300 302 302 302 300 302 301 302 300 305 303 304 307 308 307 307 305 306 305 303 301 298 297 295 294 294 294 293 290 290 290 292 292 292
295 297 298 299 301 301 302 302 302 302 301 300 301 304 302 298 298 299 299 299 299 300 301 301 300 301 300 301 301 302 303 306 306 308 304 303 303 302 301 301 300 298 295 294 294 293 290 289 290 291 291 292 292 292
295 296 298 299 299 301 301 301 301 301 299 300 299 301 299 300 299 300 300 299 300 300 300 301 301 303 303 303 303 305 306 306 306 304 300 299 298 298 297 296 295 295 295 294 293 290 290 291 291 291 292 291 292 292
295 298 298 298 299 300 300 301 301 300 299 299 299 299 299 300 300 300 300 300 300 301 301 301 304 301 300 303 304 303 304 304 302 301 299 298 297 296 296 294 293 293 294 294 292 291 291 291 292 292 292 292 293 293
297 298 297 298 299 300 300 300 300 300 299 299 301 299 298 298 300 299 299 300 300 299 300 301 299 301 303 303 304 303 300 300 299 297 296 294 294 294 294 293 294 294 294 292 292 291 291 292 293 293 293 294 293 293
296 297 297 299 298 298 299 298 298 299 298 298 297 297 297 296 297 298 298 299 299 299 299 298 300 301 302 299 300 300 299 298 297 296 296 296 295 295 293 291 291 291 291 292 292 293 293 293 293 293 292 292 292 292
295 296 297 298 298 298 297 297 297 298 299 298 297 297 296 296 296 296 297 298 298 297 298 300 301 300 300 298 298 297 298 296 296 296 296 295 294 294 294 294 293 293 293 292 293 293 293 294 293 292 292 292 292 292
295 296 296 297 298 298 297 297 297 298 297 297 296 297 294 294 294 295 296 297 297 298 299 299 299 299 298 297 296 295 295 295 295 294 294 294 294 294 293 293 293 293 294 294 293 291 291 291 291 291 291 292 292 292
296 296 296 296 296 295 295 296 297 296 296 295 295 297 295 295 294 294 294 295 296 297 298 298 298 298 298 297 296 295 294 293 291 291 292 293 293 294 294 294 294 293 292 292 291 292 291 291 291 291 291 291 291 290
295 295 296 295 294 294 293 295 295 295 295 295 295 295 294 294 293 292 294 295 296 296 297 297 296 296 296 296 294 292 291 291 293 293 293 293 293 294 293 293 292 293 292 292 291 292 291 291 291 290 290 290 289 288
294 294 294 294 294 294 293 293 295 295 295 296 296 296 295 294 291 293 295 296 296 295 294 294 294 294 294 292 292 293 293 292 292 292 292 292 292 292 292 292 292 292 291 291 291 291 291 290 290 288 288 288 288 288
294 292 293 293 292 294 294 294 294 295 295 295 295 295 293 292 295 295 295 296 295 293 294 294 293 293 293 293 293 292 292 291 291 290 289 290 290 290 290 290 290 290 290 289 289 290 290 289 289 288 288 288 287 286
294 292 294 294 294 295 295 295 295 295 295 294 294 292 292 294 294 295 295 293 291 290 289 290 291 292 292 290 290 289 289 289 288 287 286 286 286 285 285 286 286 287 287 288 288 288 287 287 287 287 287 286 286 286
294 293 291 291 293 293 293 293 294 294 294 294 294 292 293 293 294 294 290 289 288 286 286 287 287 286 286 285 286 285 285 285 284 283 284 284 284 284 284 283 283 283 283 284 284 284 284 285 285 285 285 285 285 285
293 292 292 292 293 293 293 293 293 294 294 294 293 293 293 294 294 287 285 284 285 285 284 284 285 286 284 284 282 281 282 282 282 282 282 283 283 282 282 281 281 281 281 282 282 282 282 282 283 283 283 283 283 283
292 292 291 291 292 293 293 294 294 293 294 293 294 295 293 285 284 283 282 283 282 283 282 283 282 282 280 280 279 279 279 279 279 279 278 277 278 278 279 279 279 279 279 280 280 280 280 280 280 281 281 281 281 281
291 291 292 291 292 294 293 293 294 293 292 293 293 290 286 280 280 280 279 280 281 281 280 279 277 278 277 276 276 277 277 276 276 275 275 275 275 276 276 277 277 277 278 278 278 278 278 279 279 280 280 280 280 278
290 291 292 292 293 292 291 290 290 290 290 291 291 291 285 280 278 279 279 278 277 277 276 276 276 275 275 274 274 274 274 274 274 274 274 274 274 274 274 275 275 275 276 276 276 276 276 277 277 277 277 277 277 277
291 291 293 293 293 289 289 290 290 290 291 290 290 288 285 283 280 275 276 276 274 275 276 276 276 275 276 275 273 272 271 272 271 272 272 272 273 273 273 274 274 274 274 274 274 274 274 274 275 275 275 275 276 275
289 289 289 289 290 290 289 288 289 289 289 289 287 285 281 281 279 275 275 276 275 276 276 275 275 274 273 272 273 271 271 271 271 270 270 270 271 272 272 272 273 273 273 273 272 272 273 273 273 274 274 274 273 273

GFSWCAN_850_thetae_009.txt.gz
Theta_e
311 310 311 311 310 309 309 308 308 308 308 308 308 308 309 312 316 317 315 320 321 321 320 321 321 321 320 321 313 320 315 318 311 310 307 308 309 309 312 313 310 307 306 309 309 307 309 312 313 310 311 315 314 312
312 311 312 312 311 310 309 308 308 308 308 308 308 308 308 309 315 318 317 316 318 320 318 320 321 321 322 322 320 319 315 320 319 311 307 310 308 311 308 310 313 313 311 309 309 308 310 314 314 313 314 314 312 312
312 312 311 311 311 310 309 309 308 308 308 307 308 308 308 309 311 317 320 316 317 316 316 316 318 319 319 321 321 319 321 320 319 319 314 312 308 309 308 310 314 313 314 309 312 314 315 314 314 314 314 313 310 310
312 312 312 311 311 311 310 309 309 308 308 308 308 308 308 308 309 313 315 316 319 317 316 320 318 315 317 320 321 320 318 320 320 319 310 308 306 314 306 309 308 312 314 313 310 314 314 314 314 313 312 311 311 310
308 310 311 311 311 311 311 311 310 309 309 309 309 308 308 308 309 311 313 316 319 319 314 321 319 318 316 315 317 319 319 318 320 316 306 306 311 311 313 307 307 315 312 309 308 314 314 313 313 312 312 310 309 308
306 307 308 310 311 311 311 311 311 311 311 310 310 310 309 309 309 311 316 312 315 318 318 309 319 318 317 316 319 318 318 318 318 317 312 315 317 314 308 307 313 315 315 314 313 314 314 313 311 310 309 307 304 304
301 303 306 307 308 310 311 311 311 311 311 311 311 311 311 310 311 316 317 319 314 316 317 314 317 316 317 318 320 319 319 319 319 319 316 315 316 317 303 310 312 313 312 312 313 313 311 310 309 309 305 304 303 301
300 301 302 304 306 307 308 310 311 311 310 310 311 311 312 312 313 316 316 315 316 316 316 309 311 314 316 318 318 317 318 318 317 317 316 314 315 313 306 312 314 314 313 313 312 312 310 310 308 306 304 302 299 297
300 300 300 300 303 305 307 308 309 310 311 310 310 310 311 311 313 314 315 314 315 316 316 311 309 309 314 313 313 313 314 309 313 311 313 313 306 311 311 313 313 313 313 311 310 309 309 307 304 301 299 298 297 297
300 300 300 300 299 302 305 307 309 310 310 310 310 310 310 311 312 313 314 314 314 315 315 311 312 309 312 310 308 308 309 305 309 306 310 304 309 312 312 312 312 312 312 310 309 307 305 303 301 298 297 297 297 296
300 300 300 300 300 299 302 305 308 310 310 311 311 311 312 312 312 312 312 309 311 308 312 312 313 309 310 306 305 309 304 304 308 304 307 305 307 306 309 311 311 310 310 309 308 305 303 301 298 297 296 296 294 291
300 299 299 300 300 303 304 304 306 309 310 310 310 310 312 310 311 308 306 306 306 308 307 309 310 309 309 309 305 304 305 303 308 305 305 306 303 309 309 308 308 306 306 304 302 299 298 298 296 295 294 291 290 290
299 299 300 301 301 302 303 305 306 306 307 307 306 306 305 301 304 306 307 305 305 302 303 304 303 305 306 306 303 302 306 306 304 306 306 302 307 307 306 305 303 302 300 297 297 297 296 295 294 292 290 289 290 291
298 299 300 301 300 302 303 303 303 304 304 304 301 302 302 303 301 300 301 300 300 300 301 302 301 303 302 302 300 304 301 301 305 305 300 303 305 305 304 304 303 299 299 297 296 295 294 293 291 289 290 291 291 291
296 298 299 300 301 301 302 302 302 302 300 300 301 302 301 298 299 299 298 299 299 300 301 301 300 301 300 300 300 300 302 304 304 305 301 301 302 302 303 302 301 300 298 296 294 294 292 290 290 290 291 291 291 291
296 298 298 299 300 300 300 300 301 301 299 299 299 298 298 300 299 299 300 299 300 300 300 301 300 303 301 301 302 304 304 304 303 300 301 300 302 302 301 300 297 296 295 295 294 293 291 291 291 291 291 291 291 292
297 297 297 298 299 299 299 300 300 300 298 299 298 298 298 299 299 299 300 300 300 301 300 300 302 300 299 301 302 301 302 301 301 301 299 298 298 296 296 295 294 294 295 294 293 292 291 291 291 291 291 291 292 293
296 296 298 298 299 300 300 299 299 299 299 299 299 298 298 298 298 298 298 299 300 299 300 299 299 299 301 301 301 299 300 301 301 298 297 297 295 294 294 294 293 292 291 291 291 291 291 291 291 291 292 292 292 291
295 296 297 297 298 298 298 299 299 298 298 297 297 297 296 296 296 296 297 298 299 299 298 299 297 298 298 299 300 300 300 299 297 296 296 296 296 295 294 293 293 292 292 292 292 292 292 292 293 293 292 291 292 292
295 295 296 298 297 297 298 297 298 298 297 297 297 296 296 295 294 295 296 297 298 298 298 295 297 300 299 298 298 298 298 297 297 296 295 295 294 294 294 294 294 293 293 293 293 293 292 292 291 291 291 291 291 291
294 295 295 296 298 297 297 297 297 298 297 297 296 296 294 293 294 295 296 297 297 298 299 299 299 299 298 297 297 296 296 296 295 295 294 293 292 292 292 292 293 294 294 293 293 292 291 291 291 291 291 291 291 290
294 294 294 295 296 296 296 296 297 296 296 295 295 295 294 294 294 294 294 295 296 297 298 298 298 298 298 298 297 296 295 294 292 291 293 293 293 293 293 292 292 292 292 292 292 292 292 291 291 291 291 291 290 288
294 294 294 295 295 294 294 295 296 295 294 295 296 295 294 294 293 293 293 294 295 296 296 297 297 296 296 296 295 293 292 292 293 293 292 292 292 291 291 292 293 292 292 292 292 292 291 291 290 290 290 289 288 288
293 293 294 294 294 294 294 294 295 295 295 295 294 295 295 293 292 292 292 295 295 295 294 294 293 294 293 291 293 292 292 292 292 292 292 291 290 289 289 290 290 290 289 289 288 287 287 288 289 289 289 288 288 288
294 294 293 293 293 293 289 293 294 294 294 293 294 294 292 291 288 287 288 294 292 293 293 293 293 293 293 292 291 292 291 291 291 290 289 287 286 285 285 285 285 285 285 285 284 284 285 286 286 286 286 287 287 287
294 293 291 294 294 294 292 294 294 293 291 294 293 292 292 291 287 287 292 290 290 290 289 290 291 291 291 290 290 290 289 289 288 285 284 283 283 282 282 282 282 282 282 282 282 282 282 283 283 283 284 285 285 285
293 292 292 292 293 294 294 294 294 294 293 292 292 290 285 286 286 290 288 288 288 288 286 286 287 288 286 286 286 285 284 283 283 282 282 281 282 282 281 280 279 278 279 279 280 280 280 280 281 281 282 282 283 283
293 292 292 292 293 293 293 293 291 291 290 294 292 288 286 285 288 286 285 285 284 284 283 283 282 283 283 282 281 281 281 281 281 281 282 280 280 279 279 278 278 278 277 278 278 278 279 279 278 279 280 280 281 282
292 292 291 291 292 293 293 293 293 294 293 293 290 287 288 284 282 283 282 281 280 281 281 282 282 281 280 280 279 279 279 279 279 279 279 278 278 278 277 276 276 276 276 276 277 277 277 277 277 278 279 280 280 279
291 291 292 291 289 290 292 292 292 292 293 293 292 288 284 280 279 279 280 280 281 280 279 278 278 278 278 278 278 277 276 276 276 275 275 274 274 274 275 275 275 274 274 275 275 275 276 276 276 276 277 278 277 277
290 291 291 292 293 291 290 290 290 290 290 291 291 290 284 280 278 278 278 277 277 278 278 278 277 277 277 276 276 276 275 274 273 273 272 272 272 272 272 272 272 273 273 273 273 273 273 273 273 274 274 274 274 275
290 290 291 291 291 289 289 289 289 289 290 289 289 287 284 281 277 277 276 276 277 277 277 277 276 276 275 275 274 273 271 273 272 271 271 271 271 271 271 271 271 271 272 272 272 271 271 271 271 272 272 272 272 272
289 289 288 289 290 290 289 287 289 290 290 289 286 284 283 281 277 276 275 276 276 275 275 275 274 274 275 274 273 273 272 272 271 271 270 270 270 270 270 270 271 270 270 270 270 270 269 270 270 270 271 271 271 271

GFSWCAN_850_thetae_012.txt.gz
Theta_e
312 309 309 309 309 309 309 309 309 309 308 308 307 308 312 315 315 315 316 318 320 320 320 321 321 320 320 319 312 318 314 315 307 305 303 308 308 308 309 311 309 307 306 305 302 300 308 309 312 310 309 314 314 313
311 310 310 310 309 309 309 308 308 308 308 308 308 308 309 313 316 315 317 320 319 318 319 320 321 320 320 319 319 319 314 316 315 307 306 309 307 309 306 310 310 311 307 307 309 309 308 312 313 313 313 314 314 312
311 310 310 310 309 309 308 308 308 308 308 308 308 308 308 310 314 317 316 317 317 316 317 318 318 320 321 321 319 318 318 318 317 314 310 305 304 304 309 309 312 310 311 308 310 311 311 313 313 313 314 314 313 312
311 311 311 310 310 309 309 308 308 308 308 308 308 308 308 309 311 315 317 316 316 315 313 318 318 317 321 321 321 319 318 319 319 316 309 307 303 310 303 306 306 309 312 311 308 311 313 314 314 314 314 313 311 310
312 311 311 311 310 310 309 309 308 308 308 308 308 308 308 308 310 312 314 316 317 316 313 320 318 318 315 320 321 320 318 319 319 315 304 305 308 307 305 303 305 312 310 308 310 312 311 312 313 313 312 311 311 310
311 311 311 311 311 310 310 310 309 309 308 308 308 308 308 308 309 310 311 314 316 318 316 307 317 317 317 316 316 317 319 319 319 318 311 312 315 312 308 311 311 315 314 314 313 314 314 314 313 312 311 308 309 307
308 309 311 311 311 311 311 311 311 310 310 309 309 309 309 309 310 311 313 316 315 317 316 313 312 316 317 319 319 319 319 318 318 318 315 314 316 315 304 308 312 313 313 313 313 313 313 312 311 310 308 305 303 301
304 306 308 308 310 311 311 311 311 310 311 311 311 311 310 310 313 315 316 317 315 316 316 305 305 313 316 318 318 318 319 318 317 316 316 313 314 310 309 311 315 315 315 314 312 313 312 312 309 306 304 302 300 297
300 300 303 305 306 308 309 310 311 311 310 310 311 311 311 311 312 315 315 315 316 316 313 308 307 308 314 313 314 314 315 306 312 310 310 312 306 311 311 313 313 313 313 313 313 311 310 309 305 304 302 300 298 297
300 300 300 300 304 306 307 308 309 310 310 309 309 310 310 311 312 313 313 313 314 315 315 308 310 308 312 310 307 309 309 304 309 307 310 305 308 312 313 313 313 312 312 312 310 308 307 303 302 299 299 297 297 296
299 299 300 300 300 303 306 308 309 310 310 310 310 311 310 311 311 312 311 308 310 309 312 311 311 308 309 306 305 308 304 303 309 304 308 305 306 305 308 308 310 311 311 310 309 306 303 300 298 299 298 296 295 294
299 300 301 303 304 304 305 308 310 310 311 310 312 311 311 311 311 307 306 306 305 307 306 308 308 309 309 309 306 305 305 303 307 304 306 307 304 305 307 305 305 306 305 304 305 302 299 299 298 295 295 294 292 290
300 301 301 302 303 304 305 306 308 309 309 309 309 308 307 303 305 309 311 306 305 301 303 304 305 307 307 308 304 302 306 306 304 305 307 303 305 299 299 300 301 304 305 303 300 299 296 294 294 294 291 289 290 290
300 301 300 302 303 303 303 305 306 307 307 305 303 302 302 302 301 300 300 301 300 300 301 302 300 303 302 302 301 305 302 301 305 305 301 302 301 302 303 302 301 298 299 298 295 294 294 293 290 290 290 290 290 290
298 300 300 301 301 301 301 302 302 303 302 300 301 301 299 298 298 298 299 299 299 300 300 301 300 301 300 300 300 300 301 303 303 303 300 300 300 300 298 298 299 299 296 296 294 294 293 291 290 290 290 290 290 290
297 298 299 300 299 299 300 301 301 301 300 299 298 298 298 299 299 299 299 299 300 300 300 300 300 301 300 300 300 302 303 302 301 299 301 301 300 299 301 299 297 296 295 294 293 293 293 292 291 291 290 290 291 291
294 296 298 299 299 299 300 301 300 299 298 298 298 299 299 299 299 299 299 298 299 300 299 300 299 299 298 300 301 300 300 299 300 300 300 299 299 297 296 296 294 294 294 294 293 292 291 291 291 291 291 291 292 292
295 296 297 298 298 299 299 299 299 299 298 298 298 298 298 298 298 298 298 298 299 299 300 298 299 298 300 300 300 299 300 300 300 300 299 297 296 295 295 294 293 292 291 291 292 291 292 292 292 291 291 291 291 291
295 295 296 297 297 297 298 299 298 298 297 297 297 297 297 296 296 297 297 297 298 299 298 298 291 293 294 298 300 300 300 300 298 296 296 295 296 295 294 294 294 293 293 292 292 293 292 292 292 291 291 291 291 291
294 294 295 296 297 297 297 297 298 297 297 296 296 296 296 295 294 295 296 297 298 298 298 292 293 299 299 298 297 299 298 298 297 296 296 295 294 293 293 293 293 293 293 293 293 292 293 293 292 292 292 291 291 291
293 294 294 295 296 296 296 296 297 298 297 296 296 295 294 293 294 295 296 296 297 298 298 298 299 299 298 297 297 297 297 296 296 295 294 292 292 293 293 293 292 292 292 292 292 291 292 292 292 292 292 292 291 290
293 293 294 294 295 296 296 296 297 296 296 295 295 295 293 293 294 294 295 295 296 296 297 297 298 298 298 298 297 296 294 293 291 292 293 293 293 292 291 290 290 291 291 292 291 291 290 290 289 289 289 290 289 289
292 293 293 294 295 294 294 295 296 295 294 294 296 294 294 294 293 293 293 293 294 295 295 296 296 296 296 295 294 293 292 292 293 292 292 292 291 290 289 288 287 287 287 287 286 286 285 285 285 285 286 287 287 286
292 293 294 293 293 293 294 294 295 295 294 294 294 293 293 293 291 291 286 293 293 293 294 294 294 293 293 293 292 292 291 291 291 291 291 290 289 288 286 285 284 284 284 283 283 283 283 283 283 284 284 284 284 285
293 293 293 292 293 292 287 288 293 292 290 289 290 291 290 292 285 282 284 291 291 292 292 292 293 293 292 290 290 290 290 290 290 288 287 286 285 284 283 283 282 282 282 282 282 281 281 281 281 281 281 282 282 283
291 292 291 290 292 290 290 292 289 290 289 293 292 292 292 288 288 284 289 289 289 290 289 290 289 290 289 288 288 288 288 287 286 284 284 283 282 281 281 280 280 280 279 278 278 278 278 278 279 279 279 280 280 281
290 287 292 292 292 293 293 294 294 293 292 292 288 290 288 287 283 288 286 286 286 287 287 285 286 286 285 284 284 284 284 284 283 282 281 281 280 279 279 278 277 276 276 276 276 276 276 277 277 277 278 278 279 279
292 292 289 291 293 293 292 292 291 292 292 292 291 288 288 283 285 284 284 284 285 285 285 284 282 283 283 283 282 282 281 281 279 279 280 279 279 278 277 276 276 275 275 275 275 275 275 275 275 276 276 277 277 278
292 292 291 291 292 293 292 291 291 292 292 292 287 284 284 282 281 281 282 283 283 283 282 282 281 281 281 281 280 280 280 279 279 278 277 276 276 276 275 274 274 274 274 274 274 274 274 274 274 274 275 275 276 276
290 291 291 291 288 290 290 291 291 291 292 292 290 286 282 278 279 279 280 280 280 280 280 279 279 279 278 278 277 277 277 276 276 275 274 274 274 274 273 273 274 273 273 273 272 273 273 273 273 272 273 273 273 274
290 290 291 291 291 290 290 290 289 290 290 290 289 288 281 278 277 277 278 278 278 277 277 278 277 277 276 276 276 275 275 274 273 273 272 272 272 272 272 272 272 272 271 271 271 271 271 271 270 270 270 271 271 271
289 289 289 287 290 289 288 288 288 288 289 288 287 286 281 279 277 276 275 276 276 276 276 275 275 275 275 275 274 274 273 273 272 272 272 272 272 272 272 271 271 271 271 271 270 270 270 269 269 269 269 269 269 269
288 288 287 288 289 289 288 287 288 289 288 286 283 282 281 279 276 275 275 275 275 275 274 274 274 274 274 274 274 273 273 272 272 271 271 271 271 271 271 271 271 270 270 270 270 269 269 269 269 268 268 268 268 268

GFSWCAN_850_thetae_015.txt.gz
Theta_e
308 309 309 309 309 309 309 309 308 307 307 309 313 315 316 316 318 317 319 320 319 320 320 321 319 319 318 317 311 317 314 315 305 305 302 303 304 307 308 309 309 309 308 303 302 301 307 307 310 311 310 310 314 313
308 309 309 309 309 309 309 309 308 308 307 308 309 314 315 314 314 314 316 318 319 318 319 320 320 320 319 318 318 318 316 314 313 304 300 304 306 307 305 309 308 309 306 307 307 308 307 309 311 313 312 312 314 314
309 309 309 309 309 309 309 309 308 308 308 307 308 310 314 316 315 315 317 319 317 319 318 319 320 320 320 319 319 318 315 316 315 313 309 302 303 302 307 307 310 309 308 306 308 309 309 310 312 312 312 312 313 314
309 309 309 309 309 309 309 308 308 308 308 308 308 308 310 313 315 316 316 317 315 314 314 318 317 320 321 320 318 318 318 316 316 314 308 302 301 307 303 306 306 308 309 309 307 308 311 313 313 312 312 313 313 312
310 310 309 309 308 308 308 308 308 308 308 308 308 308 308 310 313 315 316 316 315 314 313 318 317 316 318 320 321 320 319 318 317 314 304 304 306 304 303 301 304 310 309 306 309 310 312 313 314 314 313 313 313 311
311 310 310 309 309 309 308 308 308 308 308 308 308 308 308 309 310 312 313 316 317 314 314 308 316 317 316 317 319 319 319 319 318 318 312 312 311 310 307 311 311 313 312 312 311 312 312 313 314 313 313 312 311 310
311 310 310 310 309 309 309 309 308 308 308 308 308 308 308 309 310 310 310 313 316 317 315 310 310 316 317 318 318 319 319 319 318 316 312 312 314 313 304 308 312 313 313 313 313 314 313 313 313 312 311 311 310 305
310 310 311 310 310 310 310 310 310 309 309 309 309 309 309 309 311 313 315 314 316 315 315 304 303 313 316 318 318 317 318 318 316 314 312 310 311 306 308 310 314 314 314 314 314 313 312 312 312 311 309 307 301 298
307 309 310 311 310 311 311 310 310 310 311 310 310 310 310 311 312 313 315 316 316 314 312 305 305 306 314 312 313 314 315 306 309 309 308 310 305 309 311 312 314 314 313 313 313 312 312 312 310 305 302 298 300 301
303 305 306 308 309 310 310 311 310 310 310 311 311 311 311 312 313 314 314 313 314 315 314 305 307 307 311 310 307 308 306 303 307 306 310 305 308 310 311 308 309 310 312 312 312 310 308 303 300 298 300 301 298 296
300 300 301 305 306 307 309 310 310 310 309 310 310 309 311 313 312 312 309 307 309 309 310 308 308 306 308 307 306 307 304 302 310 303 308 307 305 304 305 306 307 309 310 309 309 308 303 301 299 301 300 299 296 294
303 303 304 303 305 307 308 308 309 310 309 310 310 310 311 311 310 305 305 305 305 306 306 307 307 308 308 309 306 305 305 303 309 303 306 307 301 298 300 300 301 303 304 302 301 300 300 299 297 297 295 293 292 290
302 302 303 303 304 306 307 309 310 310 309 311 311 311 309 305 307 309 310 305 305 301 302 305 305 306 307 308 304 302 306 306 303 305 307 303 299 299 301 301 300 300 301 299 297 296 295 293 292 292 291 290 290 290
301 302 302 302 303 304 306 307 308 309 309 307 305 303 303 302 300 300 301 301 299 300 301 302 301 303 302 303 301 305 302 301 305 304 301 300 299 300 300 299 300 297 296 295 293 292 292 291 290 290 290 290 290 290
300 301 301 301 301 301 303 305 307 306 303 302 301 300 296 297 297 297 298 299 299 300 300 301 301 301 300 301 299 300 300 302 301 298 300 299 299 299 298 297 296 294 294 294 294 294 293 292 291 291 291 291 291 291
299 300 299 299 299 300 301 301 302 301 300 298 298 298 298 299 298 298 298 299 299 299 300 300 300 300 300 300 300 301 299 298 297 297 300 299 299 297 298 297 295 296 297 295 294 294 293 291 291 291 290 290 291 291
297 298 298 298 299 299 301 301 300 299 298 297 297 299 299 299 299 299 299 299 300 300 299 299 296 297 297 299 300 300 299 298 299 299 298 299 299 297 296 295 294 293 292 292 291 291 291 291 291 291 291 291 291 291
294 296 296 297 298 298 298 299 299 298 297 297 298 298 298 298 299 299 299 298 299 299 299 298 299 297 297 299 299 298 299 298 298 298 298 299 297 295 295 294 293 293 293 292 292 292 292 292 292 292 292 291 291 291
292 293 294 295 296 298 298 298 298 296 296 297 297 297 297 297 297 297 297 297 298 298 298 298 289 292 293 298 299 300 300 300 300 299 297 295 295 294 294 293 293 293 293 293 293 293 292 292 292 292 292 292 291 291
291 292 294 295 296 297 297 297 297 296 296 296 296 296 296 295 295 295 296 297 298 298 298 291 292 298 298 297 297 298 299 298 297 296 295 294 293 292 292 292 292 292 292 291 291 290 290 290 290 290 290 290 290 290
291 291 293 294 295 296 296 296 297 297 296 296 295 295 294 294 294 294 295 296 297 296 295 298 299 298 297 297 297 297 297 296 296 295 294 292 293 293 292 292 290 290 289 289 289 288 288 287 287 286 286 285 285 286
291 291 292 292 294 296 296 295 296 296 295 295 295 295 293 293 293 294 294 294 295 295 297 297 298 298 297 296 296 295 295 294 293 292 292 292 292 292 291 290 290 289 287 286 285 284 284 284 283 283 283 284 283 284
291 291 292 293 294 294 294 295 296 295 294 294 295 294 294 294 293 293 293 293 293 294 295 295 296 297 297 296 295 294 293 292 292 291 291 290 289 289 288 287 286 285 284 283 283 282 282 281 281 281 281 282 282 282
291 292 293 292 292 292 293 294 295 294 294 294 293 293 293 292 292 292 289 291 292 293 293 294 294 294 294 293 292 291 290 289 289 289 288 287 287 286 285 284 283 282 282 281 281 280 280 280 280 280 280 280 280 280
291 291 291 290 291 291 281 280 290 291 286 284 292 290 290 291 286 290 284 290 290 291 292 292 292 292 291 289 289 289 288 288 288 288 287 285 284 283 282 281 281 280 280 279 279 279 279 278 278 278 278 278 278 278
290 291 290 289 290 290 283 283 281 284 285 290 292 291 291 288 289 289 289 288 287 288 289 289 289 288 287 286 286 287 287 286 284 283 283 282 281 281 280 280 279 279 278 277 276 276 276 276 276 276 276 276 276 277
287 286 292 292 292 292 293 293 293 292 290 292 288 288 289 291 290 286 285 285 285 285 287 286 286 286 285 285 284 283 283 283 282 282 281 280 279 279 278 277 276 275 275 275 274 274 274 274 274 274 274 275 275 275
292 292 289 291 292 292 292 292 291 292 291 291 290 290 290 287 285 282 282 283 283 284 284 284 283 282 282 282 281 281 280 280 279 278 278 278 276 275 275 275 275 274 274 274 273 273 273 273 273 273 273 272 273 273
291 291 291 290 292 292 291 290 290 290 290 291 287 286 282 280 280 280 281 281 281 282 282 281 281 280 280 280 279 279 279 278 277 277 276 276 276 275 275 274 274 274 274 274 273 273 272 272 271 271 271 271 271 271
290 290 291 290 288 289 289 290 289 290 290 289 288 284 280 277 278 279 279 280 280 280 280 280 279 279 278 278 277 277 277 276 276 276 275 275 274 274 274 273 274 273 273 273 273 273 272 272 271 271 271 271 271 270
289 290 290 290 290 289 289 288 289 289 289 288 287 286 280 277 276 277 277 277 277 277 277 277 277 277 276 275 275 275 275 274 274 274 273 272 272 273 273 273 273 273 272 272 272 271 271 271 270 270 270 269 269 269
288 289 288 283 289 288 287 287 287 287 288 287 285 283 280 278 276 275 274 274 275 275 276 275 275 275 275 275 275 274 273 273 272 272 272 272 272 272 272 272 272 272 271 271 271 270 270 270 269 269 269 269 268 268
287 287 286 287 288 288 288 286 286 286 286 284 281 280 279 278 275 275 274 275 275 275 275 275 275 274 274 273 273 272 271 271 271 271 271 271 271 271 271 271 271 270 270 270 270 270 269 269 269 268 268 268 268 268

GFSWCAN_850_thetae_018.txt.gz
Theta_e
308 308 308 308 307 307 306 306 307 309 313 316 316 316 313 313 314 318 320 320 319 319 320 319 318 318 316 316 311 316 313 314 304 305 302 302 301 306 308 308 309 308 308 302 299 298 307 306 310 310 309 310 312 313
308 308 308 308 308 307 307 306 307 308 312 316 317 318 316 314 316 317 319 320 319 319 319 320 319 319 318 317 317 317 316 314 313 304 298 299 305 303 304 308 307 309 306 306 305 307 306 308 310 312 311 310 312 313
308 308 308 308 308 308 307 307 307 308 309 314 317 317 316 317 316 318 318 318 318 319 318 319 320 320 318 318 318 317 313 316 314 311 304 299 302 301 305 305 309 307 306 304 307 308 307 309 310 311 311 312 312 312
308 308 308 308 308 308 308 308 307 307 308 309 314 318 317 315 315 315 316 317 316 317 316 317 319 320 320 318 318 317 318 315 314 312 308 301 301 305 301 304 305 307 307 307 305 307 310 311 312 312 312 311 311 311
309 308 308 308 309 309 308 308 308 307 307 308 309 312 317 317 316 317 317 315 314 313 312 317 317 317 320 320 319 319 318 316 314 312 303 303 304 303 303 301 303 308 308 306 307 310 309 310 311 311 313 313 313 312
308 308 308 308 309 308 308 308 308 308 308 308 308 309 312 314 315 315 315 316 315 313 314 309 315 316 317 319 320 319 317 317 317 316 312 311 309 308 307 308 310 312 311 311 310 311 311 312 312 312 313 313 312 311
309 308 308 308 309 309 308 308 308 308 308 308 308 308 309 310 311 310 310 315 316 315 313 309 310 315 317 318 318 319 318 318 317 315 311 310 311 309 301 304 313 313 313 313 312 312 312 313 313 312 312 312 311 309
309 309 309 309 309 309 308 308 308 308 308 308 308 308 308 309 309 311 313 316 316 314 313 303 302 313 315 317 317 316 318 317 315 311 309 306 307 306 308 308 311 312 313 313 313 313 312 312 311 311 310 309 306 298
309 310 309 309 309 311 309 309 309 309 308 309 308 308 309 309 310 313 315 314 316 313 311 303 304 306 313 311 312 312 313 306 309 309 307 309 304 309 306 303 305 307 309 311 312 312 311 310 307 305 305 300 297 300
310 310 311 311 310 310 310 310 310 310 310 310 310 310 311 312 312 313 313 314 315 314 314 303 305 306 309 310 307 308 306 305 310 305 309 305 307 305 299 300 301 304 307 309 309 307 304 299 298 298 299 300 299 297
305 307 309 310 311 311 310 310 310 310 311 311 310 310 312 313 312 311 309 306 308 307 308 306 306 306 307 307 305 306 305 302 309 306 307 306 306 298 299 300 300 302 303 303 303 301 299 299 299 297 296 296 295 295
302 303 305 307 308 309 310 310 310 310 310 310 311 312 311 311 310 304 303 304 305 306 305 307 307 308 307 308 305 305 304 303 308 303 306 306 299 298 298 298 298 298 299 298 298 298 297 296 296 295 295 294 294 292
303 304 305 307 307 307 308 310 310 309 310 310 311 310 309 305 307 303 308 306 305 302 303 305 304 306 307 307 304 303 307 306 303 304 306 302 299 299 298 297 297 297 297 296 295 295 294 293 293 292 291 290 290 290
301 302 303 305 307 308 308 309 309 309 310 309 307 305 303 303 301 300 301 301 299 300 302 303 302 303 303 303 301 306 302 301 305 304 302 299 297 297 298 296 295 294 292 292 292 292 291 291 290 290 290 290 290 290
301 301 301 302 303 305 306 307 308 308 306 303 301 301 298 297 297 298 299 299 299 300 301 302 301 302 300 301 299 300 298 297 297 295 299 298 297 297 297 295 294 293 293 294 295 294 294 292 291 290 291 290 290 290
299 299 299 299 300 302 304 306 305 303 300 298 298 298 297 298 298 298 298 299 299 300 301 301 300 300 299 300 299 299 298 295 293 297 298 298 298 298 298 296 296 295 295 295 294 292 291 291 292 291 291 292 292 292
298 298 298 298 299 300 301 301 300 299 297 297 297 299 299 299 299 299 299 299 300 300 299 299 295 298 297 298 299 298 297 296 298 299 298 298 298 297 296 294 293 292 292 292 293 292 293 293 293 292 292 291 291 291
295 296 296 297 298 298 299 299 298 297 297 297 298 297 298 298 299 299 298 298 299 299 298 297 297 293 293 295 293 296 299 299 298 297 297 298 297 295 294 294 293 293 293 292 292 292 292 292 291 291 291 291 291 291
291 292 292 295 297 297 298 298 297 295 296 297 297 297 297 297 297 297 297 297 297 297 298 298 288 291 292 298 299 299 299 298 298 298 298 295 294 294 293 293 293 293 293 292 291 291 291 290 289 288 287 286 286 285
291 291 292 293 294 297 297 297 297 296 295 295 296 296 296 296 296 296 296 296 297 297 297 291 291 297 298 297 297 298 299 299 298 296 294 293 293 292 292 292 292 291 290 289 289 288 288 287 286 285 284 284 284 284
291 290 291 290 293 295 296 296 296 295 295 295 295 295 294 294 294 294 295 296 296 295 293 297 298 297 297 297 297 297 296 296 295 295 294 293 292 292 291 290 289 288 288 288 287 286 285 284 283 283 282 282 282 282
290 290 290 291 293 295 295 295 295 295 295 295 295 294 293 293 293 294 294 295 295 294 295 295 296 295 295 296 295 295 295 294 294 293 292 292 290 290 290 289 288 287 286 285 283 283 282 281 281 280 280 280 280 280
290 290 291 292 293 294 293 294 296 295 292 294 294 294 293 293 293 293 293 293 293 293 293 294 295 296 296 295 294 293 292 291 291 291 290 289 288 288 287 286 286 284 283 283 282 281 280 279 279 278 278 278 277 278
290 291 291 290 291 290 291 293 293 293 294 292 288 291 290 292 292 292 291 291 291 292 292 293 293 294 293 292 292 291 290 289 288 288 287 287 286 286 285 283 282 281 281 280 279 278 277 277 276 276 276 276 276 276
291 290 290 289 291 291 286 284 290 292 284 281 288 284 290 291 287 289 289 289 288 290 291 291 291 291 291 288 287 287 287 287 287 287 286 285 283 282 281 281 280 279 278 277 277 277 276 276 276 275 275 274 274 275
287 289 288 288 289 289 282 283 286 288 283 286 287 290 291 287 286 290 287 285 285 286 287 288 289 288 287 286 286 285 285 285 284 283 282 281 281 280 280 278 277 276 276 276 276 276 275 275 274 274 274 273 273 273
284 285 291 290 291 291 291 292 292 290 291 291 289 289 289 291 289 285 283 283 284 284 285 285 285 286 286 285 284 284 283 282 281 280 280 279 278 277 275 275 275 275 275 275 274 274 274 273 273 272 272 272 272 271
291 291 286 291 291 291 290 289 286 289 290 290 290 289 289 286 284 280 280 281 282 283 283 283 283 283 282 282 281 281 280 279 278 277 276 275 275 275 274 274 274 274 274 274 273 273 272 272 272 271 271 270 271 270
291 290 290 290 291 291 289 289 289 289 289 290 286 283 281 279 279 279 280 280 280 280 281 281 281 280 279 279 278 277 276 276 275 275 275 275 275 274 274 274 274 273 273 273 272 272 272 271 271 270 270 270 270 270
289 289 290 289 286 284 289 289 289 289 289 288 286 283 280 277 278 278 278 279 279 279 278 278 278 277 277 276 276 276 276 275 275 275 274 274 274 273 273 273 273 273 272 272 272 272 271 271 271 271 270 270 270 270
289 290 290 289 289 289 288 288 288 288 288 287 286 284 279 277 276 276 276 276 276 276 276 276 276 275 275 275 275 274 274 274 273 273 273 272 272 272 272 271 271 271 271 271 271 271 271 270 270 270 270 269 269 269
288 287 287 282 288 287 287 287 286 286 287 286 283 281 278 277 275 275 274 274 275 274 274 274 274 274 274 274 274 273 273 272 272 271 271 271 271 270 270 270 270 270 270 270 270 270 270 269 269 269 269 269 268 268
286 286 285 286 286 287 287 286 283 284 284 281 279 279 278 277 274 274 273 273 273 273 274 274 274 274 273 273 272 272 271 270 270 270 270 269 269 269 269 270 269 269 269 269 269 269 269 269 268 268 268 268 268 267

GFSWCAN_850_thetae_021.txt.gz
Theta_e
308 309 309 308 307 307 307 307 309 310 312 314 316 316 314 313 314 317 318 320 320 319 317 317 316 317 315 316 315 314 314 314 307 310 311 309 311 309 310 309 311 312 312 311 303 308 313 305 311 314 313 310 309 311
308 307 308 307 306 306 307 309 310 313 315 315 317 317 315 313 315 315 318 319 320 319 318 318 318 317 317 317 318 314 316 313 312 309 304 304 309 305 307 314 307 312 311 313 310 313 307 307 311 312 311 311 310 311
308 307 307 306 306 307 309 310 311 314 316 316 316 316 314 313 314 316 318 318 318 319 317 319 319 318 317 317 318 316 313 316 313 312 304 304 308 306 311 310 309 308 306 310 309 309 306 308 309 309 310 310 310 311
308 308 307 307 307 308 308 309 310 313 317 318 317 314 313 313 314 317 317 318 318 319 315 317 318 319 318 317 318 317 318 316 314 311 307 304 308 304 306 307 309 309 307 308 308 308 309 310 310 310 310 311 311 312
308 308 307 307 308 308 308 308 308 310 315 319 317 317 316 317 317 315 315 317 316 313 313 316 318 318 320 318 318 317 317 316 313 310 305 308 303 305 302 303 307 307 310 312 313 311 309 310 310 311 312 312 312 313
308 308 308 308 308 308 308 308 308 308 311 316 318 317 317 317 318 318 315 314 313 314 317 310 314 317 318 318 318 316 315 315 315 315 309 307 307 308 308 309 309 309 309 310 309 309 310 311 312 312 312 312 312 311
308 308 308 308 308 308 308 308 307 308 308 313 316 317 317 317 315 313 314 315 313 313 313 308 310 315 317 318 318 317 317 317 316 312 307 306 308 307 304 310 308 308 310 312 312 311 312 311 311 311 311 311 310 308
308 308 309 309 308 308 308 308 308 308 308 309 310 312 312 312 310 314 317 315 315 313 311 305 304 312 315 316 313 315 317 316 312 308 306 305 306 306 310 306 303 304 307 311 310 309 310 309 309 308 305 303 300 298
308 308 308 310 310 309 308 308 309 309 309 309 309 309 309 309 310 314 315 315 313 311 309 304 306 309 311 309 309 310 311 307 309 308 308 309 305 308 301 299 299 301 302 305 305 306 305 303 299 298 299 299 299 298
309 309 309 309 311 310 309 309 309 309 309 309 308 309 310 312 313 313 311 312 313 313 313 302 303 305 309 309 306 308 307 306 309 307 308 306 306 298 298 298 298 299 303 306 304 299 299 298 298 298 297 296 295 295
310 310 310 310 310 311 311 310 310 310 310 309 310 311 313 313 311 310 308 306 308 305 306 305 306 306 307 308 305 305 306 303 310 307 309 308 304 298 297 298 298 299 300 300 299 298 298 297 296 296 295 294 294 294
308 309 310 310 310 310 310 310 310 310 310 311 312 312 311 311 310 305 304 304 305 306 304 306 306 307 305 307 306 304 306 304 310 303 307 307 299 297 297 297 296 297 298 298 298 297 296 295 294 294 294 294 293 293
305 307 308 309 310 310 310 310 310 310 311 310 310 309 308 305 305 302 309 306 305 302 303 305 303 305 305 306 303 305 308 307 303 306 307 302 298 297 296 297 296 296 295 294 293 293 293 292 292 292 291 290 290 290
304 305 306 307 308 309 310 310 310 310 310 309 307 304 301 305 302 301 303 302 300 301 303 305 303 303 303 303 301 308 302 302 307 306 304 300 297 296 296 295 294 293 293 293 293 293 292 292 291 291 291 291 291 291
301 303 304 306 307 308 309 309 309 309 308 303 302 300 298 296 297 298 299 299 299 300 303 303 302 303 301 302 300 301 300 302 301 300 299 297 297 297 295 294 293 293 294 295 294 293 292 291 291 291 291 291 291 291
299 300 301 302 303 304 307 306 307 305 300 298 298 298 298 298 298 298 299 299 300 300 301 302 300 301 301 301 302 302 301 300 297 298 297 296 296 297 296 295 295 295 294 293 292 292 292 292 292 292 292 292 291 291
298 297 298 299 301 302 304 305 301 298 297 297 298 298 299 299 298 298 299 299 300 300 300 299 301 300 298 300 300 299 300 298 297 298 298 298 297 297 296 295 293 292 292 292 292 292 292 292 292 291 290 290 289 289
295 295 296 298 299 300 300 299 297 297 297 297 297 297 297 298 298 298 297 298 299 299 298 298 297 297 298 296 297 296 297 297 298 298 297 297 297 295 294 293 292 293 292 292 292 291 291 290 289 287 286 285 285 285
291 292 293 296 297 297 298 297 296 295 296 296 296 297 297 297 297 297 297 297 297 297 298 296 291 295 295 295 296 297 298 298 297 297 297 296 294 294 293 293 292 292 292 292 290 289 287 286 285 284 283 283 282 282
290 290 291 293 296 297 296 296 296 295 295 295 296 296 295 295 296 296 296 296 296 297 297 292 293 295 296 296 298 298 298 298 297 296 294 293 292 292 292 292 291 290 289 288 287 286 285 284 283 282 282 281 280 280
290 290 290 291 293 295 295 295 294 294 295 295 295 294 294 294 294 295 295 296 296 294 292 294 295 295 297 297 296 297 298 297 297 296 294 292 291 291 290 289 288 287 287 286 285 284 283 282 281 280 279 278 278 277
290 290 290 291 293 295 294 294 294 294 294 294 294 294 293 293 293 294 294 295 294 293 294 294 294 294 294 295 295 295 295 295 294 294 292 292 290 289 288 287 286 286 284 283 283 282 281 279 278 277 277 277 276 276
290 290 290 291 293 293 292 293 294 294 291 293 293 292 293 293 293 293 293 293 292 292 292 293 294 293 293 292 292 292 291 291 291 291 290 289 288 287 286 285 284 283 282 281 280 278 278 277 277 276 276 276 276 275
290 290 290 290 290 289 290 291 291 291 292 289 287 286 288 292 292 292 291 290 289 290 291 291 291 290 289 289 290 289 288 288 289 287 286 285 286 286 284 283 282 281 280 278 277 277 276 276 276 275 275 275 274 274
291 289 289 288 289 288 286 286 290 291 291 285 285 283 289 290 284 285 289 287 285 286 287 288 288 288 288 286 285 285 285 285 286 286 285 284 283 281 281 280 279 277 277 277 276 276 276 275 275 274 274 273 273 273
285 288 288 287 288 289 286 280 285 287 282 282 286 288 289 288 287 286 284 282 283 284 284 285 285 286 285 284 284 284 284 284 283 283 282 281 280 279 278 277 276 276 275 275 275 275 274 274 274 273 273 273 272 272
286 288 289 289 289 290 289 290 290 289 286 288 287 287 287 288 284 283 282 282 282 283 283 284 284 284 284 283 282 282 282 281 281 280 279 278 277 276 276 275 275 274 274 274 274 274 273 273 273 272 272 272 271 270
289 289 285 290 290 290 288 286 283 286 288 289 290 286 285 286 284 279 279 280 280 281 282 282 282 281 281 281 281 280 279 278 277 277 276 275 275 274 274 273 273 273 273 273 273 272 272 272 272 271 271 270 270 270
289 289 290 289 290 289 288 287 288 288 288 288 285 281 279 279 278 279 279 279 279 279 280 279 279 279 279 279 278 277 276 276 275 275 275 274 273 273 273 273 272 272 272 272 271 271 271 271 271 270 270 270 269 269
289 288 289 287 284 281 288 288 288 288 287 287 285 282 279 277 277 278 278 278 278 278 278 277 277 277 276 275 275 275 275 274 274 273 273 273 272 272 271 271 271 270 270 271 271 271 270 270 270 269 269 269 269 269
288 289 289 288 288 288 287 287 287 288 287 286 284 283 278 276 275 275 276 276 276 276 276 276 275 274 274 274 274 274 273 273 272 272 271 271 270 270 270 269 270 270 270 270 270 270 270 269 269 269 269 269 268 268
287 287 286 280 287 287 287 287 286 286 285 283 281 280 277 276 275 274 274 274 275 274 273 273 273 274 273 273 273 272 272 271 271 270 270 269 269 269 269 269 269 269 269 269 269 269 269 269 268 268 268 268 268 267
285 285 285 285 285 285 285 285 282 282 282 279 278 277 276 276 274 273 273 273 273 273 273 273 273 273 273 272 272 271 270 270 269 269 269 269 269 269 269 269 269 269 269 269 268 268 268 268 268 268 267 267 267 266

GFSWCAN_850_thetae_024.txt.gz
Theta_e
299 300 303 304 305 306 310 308 307 307 309 310 312 312 313 313 316 319 319 318 318 320 317 316 317 318 318 320 324 316 318 317 317 325 326 321 325 316 316 315 317 319 321 322 315 323 323 310 313 317 316 314 313 313
301 302 307 308 308 307 307 307 308 309 310 311 312 314 314 313 316 319 320 320 319 320 319 317 316 317 318 320 320 316 322 319 320 323 319 317 318 312 319 321 313 318 318 319 317 318 312 311 314 314 313 312 313 313
308 306 307 306 307 307 307 308 309 310 311 313 315 315 314 313 317 318 318 318 319 318 318 320 319 316 317 317 318 319 316 318 316 317 316 318 319 317 319 320 317 314 311 316 314 314 313 312 311 311 311 311 312 312
307 306 306 307 308 309 310 311 314 315 315 315 316 315 313 313 316 317 318 318 318 319 319 319 318 318 317 317 317 317 318 317 315 313 316 313 322 312 318 316 317 314 312 314 314 313 313 313 312 311 312 312 313 313
306 307 307 308 310 311 312 313 316 318 317 316 317 315 313 313 315 317 316 316 317 315 318 319 317 318 318 317 317 317 316 316 314 315 315 322 312 314 309 312 316 312 314 316 317 313 312 313 312 312 312 313 313 312
307 308 308 309 309 309 310 315 317 318 318 315 316 316 314 313 315 317 315 315 317 316 319 321 315 316 316 316 316 315 314 314 315 317 314 311 308 314 315 318 312 311 310 311 312 312 312 313 312 311 311 307 307 307
308 308 308 308 308 309 310 315 317 318 317 315 314 314 314 314 316 315 316 316 315 314 315 317 318 316 316 316 316 316 316 316 317 313 309 311 312 313 311 320 308 306 306 308 308 311 314 309 308 304 304 303 302 301
308 309 309 309 309 310 309 312 315 316 317 317 317 318 318 316 315 315 315 313 313 312 312 315 314 316 315 313 312 314 315 315 311 308 307 309 308 310 316 305 304 303 305 309 304 305 306 303 302 302 302 300 299 298
309 309 308 309 309 308 310 310 310 313 313 313 313 313 313 314 314 314 313 312 311 311 314 308 318 318 310 309 309 310 311 311 309 312 312 313 310 311 302 301 301 300 301 303 302 303 303 302 299 299 299 298 297 297
309 309 310 309 309 309 309 309 310 311 311 310 309 309 310 313 314 312 311 311 311 311 311 306 307 311 310 309 307 309 308 310 312 311 308 313 303 299 298 299 300 301 302 304 303 299 299 298 297 297 297 297 297 294
309 309 310 309 310 310 310 309 309 309 309 309 310 312 312 311 310 310 309 310 311 309 306 305 308 309 307 311 309 306 309 308 314 312 312 311 304 299 298 298 298 300 301 301 301 299 298 298 298 297 295 295 295 294
310 310 310 310 310 310 310 311 310 309 309 311 312 311 310 310 309 308 307 306 309 309 305 307 306 306 306 307 308 306 310 307 314 307 311 311 300 298 297 297 297 298 298 298 297 296 296 296 296 295 294 292 291 290
310 310 310 310 310 311 310 311 310 310 310 310 310 309 309 306 311 315 311 310 309 303 303 304 305 305 305 306 305 308 311 312 306 310 310 304 297 297 296 297 297 296 295 295 294 292 291 291 290 290 291 291 291 291
306 308 309 309 310 310 309 310 310 310 310 309 306 306 308 309 304 304 306 305 300 301 303 305 303 305 304 305 305 312 303 303 310 311 308 300 297 296 296 296 296 294 293 294 294 293 292 291 291 291 291 291 291 291
305 305 306 307 309 310 309 310 309 309 307 302 302 303 301 297 298 298 299 299 300 301 304 304 304 305 304 305 304 304 307 309 307 307 301 298 297 296 296 295 294 293 294 294 294 292 291 291 291 291 291 291 291 291
302 304 305 305 306 307 307 309 309 309 301 299 298 300 298 299 299 299 299 298 300 301 302 303 302 306 305 306 307 308 308 307 304 301 297 297 296 296 295 294 295 295 294 293 292 292 292 292 292 292 292 290 289 287
300 300 301 302 304 304 305 304 300 298 298 298 298 298 299 298 298 298 298 299 300 300 301 302 307 304 301 304 304 303 305 303 299 297 297 297 297 296 295 295 295 293 292 292 292 292 292 291 290 288 288 287 286 285
297 297 299 300 300 300 300 298 297 297 297 296 298 296 297 297 297 297 297 298 299 299 300 301 300 303 305 304 304 302 298 297 298 297 297 297 296 295 295 293 292 292 292 292 291 291 289 288 287 286 285 285 283 283
292 294 297 298 298 297 297 296 296 297 296 296 296 296 296 296 296 297 297 297 297 298 298 298 302 302 302 301 301 296 297 297 297 296 296 296 295 294 293 292 292 292 292 291 289 287 287 286 285 284 283 282 280 279
291 292 293 296 296 296 296 295 295 296 296 295 295 295 295 295 296 296 296 297 296 297 298 299 299 297 297 296 296 297 297 298 296 295 294 293 292 292 291 291 291 290 288 287 287 286 285 283 282 281 280 279 278 278
291 291 291 293 294 295 294 294 294 294 294 295 294 294 294 294 294 295 295 296 297 295 296 293 293 292 294 294 296 297 297 297 296 295 294 291 291 290 290 289 288 287 286 286 285 283 282 280 279 278 278 278 277 277
290 291 290 291 293 294 293 293 293 293 295 294 295 294 295 295 295 294 294 296 294 292 292 292 292 292 293 294 294 295 295 295 295 294 293 292 289 289 288 287 285 285 284 283 281 280 279 278 278 277 277 276 276 276
290 290 290 291 292 292 291 292 293 292 295 294 294 295 295 295 293 292 294 293 291 288 289 290 291 291 291 290 291 291 290 290 291 291 290 289 288 286 285 285 284 283 281 280 278 278 277 277 276 276 276 275 275 274
290 290 290 290 291 290 290 291 291 292 292 292 294 294 293 293 291 293 293 289 286 285 287 288 288 287 287 287 287 286 286 287 288 287 286 285 285 284 284 282 281 280 278 277 277 276 276 276 276 275 275 274 274 273
290 289 290 290 289 289 289 290 291 292 293 291 292 293 292 291 293 292 290 286 285 284 284 286 286 286 285 284 284 284 284 284 285 285 284 283 282 281 280 279 277 277 277 276 276 275 275 275 274 274 273 273 272 272
289 288 290 290 290 291 290 292 291 292 291 292 292 290 290 292 291 288 286 283 283 281 283 283 283 284 284 283 282 283 283 282 282 283 282 281 280 278 277 276 275 275 275 275 275 275 274 273 273 273 272 272 271 271
290 289 288 288 289 289 291 290 290 291 292 292 292 292 292 292 289 285 282 280 280 281 282 282 283 283 282 282 281 281 281 281 280 280 279 277 276 276 276 275 275 274 274 274 273 273 272 272 272 272 271 271 270 270
289 289 289 288 289 289 290 290 291 291 291 290 291 290 290 288 286 280 278 279 280 280 280 281 281 280 280 280 280 279 279 278 276 276 275 275 275 275 274 274 273 272 272 272 271 271 271 271 271 271 271 270 270 270
289 288 288 287 288 289 289 289 289 289 287 288 290 287 282 277 277 277 278 278 279 278 279 278 279 278 278 278 277 275 275 275 275 274 274 273 273 272 272 271 271 271 270 270 270 270 270 270 270 270 270 269 269 269
288 288 288 285 287 290 288 287 288 287 287 286 284 280 277 275 276 277 277 277 277 277 277 277 277 276 275 275 274 274 274 274 273 273 272 272 271 271 270 270 270 270 270 270 270 270 270 269 269 269 269 269 268 268
288 288 288 287 288 286 286 287 287 286 285 284 282 280 276 274 274 275 275 275 276 276 275 275 274 274 274 273 273 273 273 272 272 271 271 270 270 269 269 269 269 269 269 269 269 269 269 269 269 268 268 268 268 268
286 285 285 287 287 286 286 286 285 285 282 281 278 278 276 275 274 273 273 274 274 274 273 273 273 273 273 273 273 272 272 271 270 270 269 269 269 269 269 269 269 269 269 269 269 268 268 268 268 268 267 267 267 267
284 284 284 284 284 285 284 283 281 281 280 279 276 276 275 275 274 272 272 272 273 272 272 272 273 273 273 272 271 271 271 270 270 270 270 270 270 269 269 269 269 268 268 268 268 268 267 267 267 267 267 266 266 266

GFSWCAN_850_thetae_027.txt.gz
Theta_e
294 295 296 295 296 299 299 299 302 303 303 306 309 310 310 312 313 314 323 317 318 320 319 319 317 317 318 321 327 321 321 321 322 326 331 327 328 322 321 319 321 321 324 322 323 321 322 313 315 316 318 314 314 315
296 295 296 298 299 300 300 302 303 305 307 310 308 309 311 312 313 317 323 317 321 321 322 322 320 319 319 321 322 320 322 322 322 325 328 328 323 318 324 322 318 321 321 322 320 320 316 314 314 314 314 314 314 314
297 298 299 300 300 303 304 306 308 308 308 308 310 311 312 313 313 319 322 319 318 323 321 320 320 317 319 321 322 322 324 323 322 323 323 326 323 324 323 323 322 318 316 318 317 315 315 314 314 313 314 314 314 314
302 304 305 305 306 307 307 307 307 308 309 310 311 312 313 313 315 319 321 320 321 322 323 322 319 319 317 317 319 323 323 321 321 322 324 317 324 320 325 322 320 318 316 317 317 315 314 314 315 314 314 315 315 315
306 306 306 307 308 309 309 309 309 310 311 311 312 313 313 313 315 317 318 318 319 320 321 321 319 318 318 318 318 317 319 319 320 322 319 326 319 320 317 318 320 316 317 319 318 315 316 316 315 315 315 314 312 312
310 311 311 312 312 312 313 313 313 312 312 313 314 314 313 314 316 316 317 316 316 318 322 324 318 318 319 319 319 319 320 321 321 323 322 318 315 320 321 321 316 314 312 312 315 314 315 315 311 309 308 307 306 306
309 309 310 311 315 316 316 317 316 316 315 316 315 315 313 314 315 319 316 316 316 316 320 322 320 317 317 318 317 319 320 320 322 320 318 319 316 318 317 322 314 310 310 311 310 312 316 310 308 307 306 303 300 299
308 309 310 312 316 317 317 317 317 317 316 316 315 314 313 313 315 315 315 316 316 315 319 320 319 319 317 319 317 315 319 320 316 313 313 316 314 317 321 311 309 307 310 308 307 308 308 307 306 303 301 299 298 298
310 309 310 313 314 314 316 316 314 315 315 315 315 314 313 315 316 313 315 315 313 314 319 314 318 318 314 312 312 314 316 317 313 315 316 317 312 317 307 306 306 305 307 307 306 306 304 302 299 299 298 298 298 297
308 308 309 310 313 313 313 313 315 316 316 315 315 315 315 314 313 313 313 313 314 314 312 310 313 317 314 312 311 312 311 314 315 313 312 316 307 301 301 301 302 303 305 304 302 300 299 298 298 299 299 298 298 298
309 309 308 309 309 310 312 312 310 310 311 310 312 312 313 313 312 311 311 315 316 315 308 308 313 313 310 314 310 309 312 312 315 315 314 314 309 301 299 300 300 300 301 302 301 299 299 299 299 298 298 297 296 294
310 310 309 308 310 310 310 309 309 309 310 311 312 311 311 311 311 312 310 310 312 312 306 308 308 308 307 310 310 309 310 310 317 311 316 313 302 299 298 299 300 300 300 299 299 299 298 298 297 296 294 293 291 291
310 310 310 309 310 309 310 310 310 310 310 310 310 310 312 308 315 310 314 310 308 305 304 306 307 307 307 308 307 310 314 315 310 313 312 306 299 298 298 299 299 298 298 297 296 295 294 293 291 291 291 291 291 291
309 310 310 310 310 311 310 310 311 310 311 309 308 309 309 309 305 304 306 305 300 302 305 306 305 307 306 307 309 310 305 308 311 313 312 301 298 297 299 298 297 295 294 295 295 294 292 291 291 291 291 291 291 291
307 309 310 310 310 309 310 310 310 311 308 303 304 305 302 298 298 298 299 299 300 302 304 306 306 308 307 309 309 307 307 312 311 310 304 298 297 297 298 298 296 294 295 296 295 291 291 291 292 291 291 291 291 289
305 306 306 306 308 309 310 309 309 307 300 299 299 301 299 300 300 299 299 299 300 302 304 305 307 310 307 308 307 312 312 312 306 303 298 297 297 296 297 297 296 296 296 295 294 292 292 292 292 291 290 288 287 287
304 303 303 304 305 305 304 306 303 299 299 299 299 298 299 298 297 297 298 298 300 301 303 304 310 307 304 308 307 307 308 304 300 298 297 297 296 297 296 296 295 294 294 294 293 292 291 291 290 288 287 286 285 284
301 300 301 301 302 301 299 298 298 299 298 298 299 296 296 297 297 297 297 298 300 301 301 303 303 306 309 307 307 303 299 298 297 297 296 297 296 296 296 296 294 294 293 291 291 291 289 287 287 286 285 284 283 282
297 298 299 299 298 297 297 296 298 298 297 296 296 296 296 296 296 296 297 298 298 299 301 302 306 304 304 301 300 298 298 297 297 297 296 296 296 295 294 294 292 291 290 289 288 288 286 286 285 283 282 281 280 280
293 294 296 297 296 296 296 296 297 297 297 296 296 295 296 296 295 296 296 297 299 300 298 299 297 295 295 294 296 297 297 298 297 295 294 294 294 293 292 291 291 289 287 287 286 285 284 284 282 281 280 279 278 278
291 291 293 293 294 295 294 296 296 296 296 296 296 296 296 296 296 296 296 298 297 296 296 295 294 292 292 292 293 295 297 297 297 297 295 292 291 290 289 287 287 287 286 285 284 283 282 281 279 278 278 277 277 276
291 291 291 292 292 293 294 294 295 295 296 296 296 296 296 296 296 295 296 296 294 291 291 291 290 292 290 290 289 291 292 293 294 294 293 291 289 287 286 285 285 284 283 283 282 281 279 278 278 277 277 276 276 275
291 291 290 291 292 292 292 293 294 294 296 295 295 296 295 295 294 295 295 293 289 288 289 288 287 288 288 287 288 289 288 288 287 287 287 287 286 285 285 284 283 282 280 280 279 278 277 277 276 276 275 275 274 274
292 291 290 292 293 292 292 292 293 294 294 294 295 295 293 293 293 294 293 289 287 287 287 287 288 288 286 285 285 285 285 286 285 284 283 283 284 283 283 283 282 281 279 278 277 277 276 275 275 274 273 273 273 272
292 290 292 293 292 293 294 293 293 295 294 294 294 294 293 293 295 293 291 288 286 284 284 285 285 285 285 283 282 283 284 284 284 284 283 282 282 282 281 280 279 277 277 276 276 275 274 274 273 272 272 271 271 270
292 290 292 292 292 293 293 294 293 293 293 294 293 292 293 294 293 291 288 284 283 282 281 281 283 284 281 281 280 281 282 282 282 282 281 281 280 278 277 276 276 275 276 275 274 274 273 272 272 272 271 270 270 269
292 291 290 289 290 291 293 292 292 293 293 293 293 293 294 294 292 286 283 280 281 279 279 280 279 279 279 278 279 280 280 280 280 280 278 277 276 276 276 275 275 274 274 273 273 272 272 272 271 270 269 269 269 268
290 290 292 290 291 292 292 292 292 292 292 291 292 292 292 291 289 282 280 278 278 278 279 280 280 280 279 279 278 277 278 277 276 276 276 276 276 275 275 274 274 273 272 272 272 271 271 270 269 268 268 268 267 267
290 289 290 289 291 291 291 291 290 289 289 289 291 291 285 279 277 278 276 278 278 278 277 276 277 277 277 276 276 275 275 275 275 274 274 274 274 273 273 272 271 271 271 270 270 270 270 270 269 268 269 268 267 266
289 288 290 289 290 291 289 288 289 286 285 285 283 281 279 276 275 276 276 276 276 276 277 277 276 275 274 274 273 274 274 274 274 273 272 272 271 271 270 269 268 268 269 269 269 269 268 268 268 266 266 265 265 266
288 289 289 289 289 288 286 286 286 285 284 282 281 282 280 275 274 275 275 275 275 274 274 273 273 273 273 273 273 273 272 273 272 272 271 271 270 270 268 268 268 268 269 268 267 267 266 267 266 265 265 265 265 265
288 287 288 289 289 285 285 286 286 287 285 284 281 278 277 279 277 273 273 273 272 272 272 272 272 272 273 273 273 272 272 271 271 271 271 270 270 270 269 269 268 267 267 267 267 266 265 266 266 265 264 265 265 266
286 286 286 286 287 287 285 285 285 284 283 282 279 278 277 278 276 272 272 273 273 272 272 272 273 273 273 272 271 271 271 270 270 270 270 270 270 270 269 269 268 267 267 267 266 265 265 265 266 266 266 266 266 265

GFSWCAN_850_thetae_030.txt.gz
Theta_e
294 294 295 295 297 297 296 293 294 297 299 300 301 301 301 303 306 307 313 317 318 319 321 320 319 319 321 325 327 323 323 323 328 328 332 332 330 327 324 320 322 322 326 322 327 322 322 315 315 317 320 316 315 315
295 294 294 295 296 296 294 294 297 299 300 301 302 302 303 304 307 309 311 317 321 321 324 322 320 319 319 322 325 322 324 323 324 328 331 333 322 318 327 326 319 323 323 327 323 324 318 314 314 314 314 314 315 315
294 295 295 295 296 296 296 298 299 300 300 301 303 305 304 307 310 311 315 319 319 323 322 321 323 319 318 321 324 323 324 323 323 324 328 329 319 328 322 329 325 320 319 322 320 317 316 315 314 314 315 315 315 316
296 296 296 296 296 297 298 299 300 301 303 303 304 307 310 310 311 311 314 318 322 320 321 323 321 319 319 321 323 325 325 324 325 325 328 317 322 324 329 326 326 320 319 318 318 317 316 316 317 317 316 316 315 315
297 297 297 296 298 300 300 301 302 304 304 306 309 310 311 311 312 313 314 319 322 321 322 322 320 319 317 318 321 323 324 323 324 324 314 329 323 325 322 324 326 319 319 323 323 317 318 317 313 313 312 310 309 309
301 305 305 305 304 303 304 305 305 308 309 309 310 310 311 312 313 315 318 318 320 321 321 325 319 320 320 321 321 322 323 322 323 326 324 321 319 324 322 326 318 315 315 315 317 315 315 313 311 309 306 305 304 304
307 308 309 309 308 308 308 308 309 310 310 310 311 311 312 314 316 317 317 317 318 319 320 320 319 319 321 321 321 321 322 323 324 323 323 320 317 321 317 326 315 312 312 313 311 313 312 312 309 306 303 301 302 301
308 311 313 314 313 312 310 310 310 310 311 311 312 312 313 313 315 316 315 316 316 317 321 319 314 319 319 321 319 319 322 322 319 317 318 321 317 321 324 314 311 310 311 310 309 310 309 306 304 302 301 300 299 298
311 312 313 315 316 316 315 314 313 312 313 313 313 314 313 314 317 314 313 315 315 314 320 312 318 318 317 315 314 316 319 317 316 316 320 318 315 319 313 311 309 309 310 308 306 306 304 303 301 301 300 299 299 298
310 311 312 313 314 315 317 317 317 315 315 314 314 314 314 315 313 313 313 314 313 314 313 314 316 318 315 313 312 313 313 314 315 315 314 316 309 304 304 305 305 306 307 306 303 302 301 301 300 300 299 299 298 297
310 310 311 311 311 313 313 314 315 314 314 315 314 313 312 312 313 312 311 314 313 315 310 311 315 315 312 315 311 311 312 313 316 315 315 313 311 303 302 303 302 303 305 304 303 301 300 300 299 298 297 296 293 292
309 309 310 310 310 310 312 314 315 315 315 314 313 311 311 311 311 310 311 310 313 313 307 310 310 310 309 312 311 311 310 312 316 311 315 315 305 301 301 301 301 301 301 300 300 299 299 298 297 296 295 292 292 292
310 310 309 310 310 310 310 310 311 312 313 313 311 309 311 308 311 315 312 312 309 304 305 308 307 308 308 309 309 310 310 315 311 313 312 307 301 300 301 300 300 300 300 299 298 297 295 294 293 292 291 292 293 291
309 310 309 310 310 310 310 310 310 311 311 309 308 306 306 308 304 303 305 304 300 303 306 306 306 308 306 307 309 309 306 309 312 312 312 302 299 300 300 300 299 297 296 295 295 294 291 291 291 291 291 291 291 290
309 309 309 310 309 309 310 310 311 311 308 303 303 304 302 298 298 299 299 299 301 303 305 307 307 308 306 307 308 306 308 311 311 311 304 299 299 300 299 298 296 295 296 296 294 291 291 292 292 291 291 290 288 287
308 309 309 309 309 309 310 310 310 310 301 299 299 301 299 301 299 299 299 299 301 303 305 306 308 308 307 307 308 312 312 312 307 302 299 298 298 299 298 297 295 296 296 295 292 292 292 292 291 290 288 287 287 287
304 304 305 306 306 307 309 309 302 299 299 299 298 298 298 298 297 297 297 299 301 302 303 305 308 306 305 308 307 306 306 303 299 298 298 298 298 298 297 296 297 296 295 294 293 292 291 291 289 287 287 287 285 284
302 300 300 299 299 300 302 301 299 298 297 297 298 297 297 297 297 297 298 299 301 301 301 303 302 305 307 308 306 302 298 297 298 297 298 297 297 297 296 296 295 295 294 293 291 290 289 288 288 286 285 284 283 283
298 298 299 298 297 297 297 298 299 298 297 297 297 297 297 297 296 297 299 300 300 301 302 302 302 301 300 297 297 298 297 296 296 296 297 297 297 296 296 295 294 293 291 290 290 289 288 287 286 284 284 282 281 281
294 295 297 297 295 296 297 297 298 298 297 296 296 297 297 297 296 297 298 299 298 298 296 297 296 293 293 292 294 297 298 297 297 296 296 296 295 295 294 294 292 290 289 288 287 286 285 285 283 282 281 280 280 279
292 292 293 294 294 295 295 297 297 297 297 297 297 297 297 296 296 297 297 297 295 295 295 292 292 291 291 291 293 294 296 296 296 296 295 294 293 292 291 290 289 289 288 287 285 284 283 282 281 279 279 278 278 277
291 292 291 292 292 294 295 295 296 296 297 297 297 297 297 297 296 296 296 293 291 290 290 289 289 289 288 288 290 290 291 292 294 295 294 293 290 289 287 287 286 286 285 284 283 282 280 280 279 278 277 277 276 276
292 292 291 292 292 293 293 294 294 295 295 295 296 296 295 295 295 296 294 290 289 287 288 288 288 287 286 285 286 288 288 289 288 288 288 287 287 286 285 285 283 282 282 281 280 279 278 277 277 276 275 275 274 275
293 292 292 293 294 293 293 293 295 294 294 294 295 295 294 294 295 294 291 289 286 286 286 286 287 288 286 283 282 283 283 284 284 283 283 284 283 282 283 282 282 281 280 278 277 277 276 276 275 274 274 273 273 273
293 291 294 294 294 295 295 294 295 295 294 295 296 295 294 294 295 293 291 288 285 284 283 285 284 284 285 283 281 281 282 282 282 282 281 280 281 280 280 279 278 277 277 277 276 276 275 274 273 272 272 272 271 271
292 291 292 292 293 294 294 294 293 294 294 295 293 293 294 295 294 292 288 285 283 281 281 281 283 283 280 279 279 279 281 280 280 281 280 280 280 278 278 277 277 277 276 275 275 274 273 272 271 271 270 270 270 270
292 292 291 290 291 293 293 293 293 294 294 294 294 294 295 295 292 287 283 281 281 279 278 279 279 279 279 278 277 279 279 280 279 278 277 276 276 276 276 276 275 274 273 273 273 272 271 270 270 269 269 270 270 269
291 290 291 291 292 292 292 292 293 293 293 291 293 293 292 289 286 282 280 279 279 278 278 278 279 279 278 277 276 276 276 276 277 276 276 277 276 276 275 274 273 272 271 270 270 270 270 269 269 268 268 268 268 267
290 290 291 290 292 291 290 291 291 289 288 289 291 290 285 280 278 278 278 278 278 279 278 277 276 276 275 275 275 275 275 275 275 274 275 275 275 273 273 272 271 270 269 269 268 268 267 268 268 267 267 267 267 266
289 289 291 290 291 291 288 288 289 286 285 285 284 281 279 276 275 276 276 276 276 275 275 275 275 275 275 275 274 274 275 274 274 273 273 272 272 271 271 269 269 269 268 268 267 267 266 266 266 266 267 267 267 266
289 290 290 290 290 288 287 287 286 285 284 283 283 282 280 276 274 274 274 274 274 274 275 274 273 273 273 273 274 273 273 273 272 272 272 271 271 270 269 269 268 267 267 266 266 266 265 265 265 265 266 266 265 265
288 287 288 289 290 286 286 286 287 288 286 285 282 280 279 280 278 273 274 274 273 273 273 273 272 272 273 273 272 272 272 271 271 271 271 271 270 270 270 269 269 267 266 265 265 265 265 265 265 265 265 265 264 264
287 288 287 288 288 288 287 286 287 286 285 283 280 280 278 278 276 273 272 273 273 272 272 272 273 273 273 272 271 271 270 269 270 270 269 270 269 269 269 269 268 268 267 267 266 265 264 265 265 264 263 263 263 264

GFSWCAN_850_thetae_033.txt.gz
Theta_e
293 292 293 294 295 295 297 298 299 298 299 300 300 300 300 300 301 302 305 306 311 316 320 320 319 320 322 323 319 322 321 319 319 316 315 313 311 315 317 321 316 314 314 309 312 315 316 315 314 312 315 314 314 314
293 293 293 295 296 297 297 297 296 296 297 298 299 299 299 300 301 302 305 307 310 310 317 322 322 322 321 323 323 321 321 321 323 320 316 313 316 311 315 314 318 317 317 315 315 314 315 314 313 314 314 315 315 316
294 294 293 294 296 296 296 295 293 295 297 298 299 299 300 301 301 302 305 306 307 312 314 318 321 322 324 323 322 321 323 322 324 323 319 316 314 311 311 313 317 318 318 316 314 316 315 314 316 316 315 316 315 315
294 294 294 294 296 297 296 294 294 296 298 299 300 300 300 300 301 303 305 307 312 312 315 321 321 321 323 323 322 321 323 324 324 322 317 309 313 320 311 315 316 316 316 316 315 315 316 315 315 315 314 314 312 313
295 294 294 294 295 295 296 295 296 298 299 300 301 301 302 301 302 305 306 307 309 314 317 320 320 318 322 323 320 323 324 323 324 316 305 311 319 315 313 312 314 316 315 311 311 316 314 311 311 312 312 309 308 309
296 296 296 296 296 296 296 297 298 299 300 300 300 302 303 303 304 305 307 309 312 313 315 313 320 320 320 321 323 324 324 324 324 322 318 320 319 316 309 308 315 314 315 317 315 315 312 310 310 309 309 307 306 306
297 296 296 296 297 298 297 297 298 300 301 303 303 304 305 307 308 309 310 315 315 313 319 312 312 320 321 322 322 322 323 324 323 322 321 316 316 316 306 310 312 312 313 312 313 312 309 308 304 305 306 303 303 301
305 305 303 302 301 302 301 300 301 302 303 303 306 308 309 310 310 310 312 315 318 320 318 311 311 317 320 320 319 321 322 320 318 316 319 313 316 316 309 311 311 311 310 309 311 312 306 304 303 301 300 299 298 297
308 307 307 307 307 306 306 305 304 305 307 308 308 309 310 309 309 312 316 313 313 315 311 310 313 314 317 314 315 318 318 310 315 308 311 312 305 309 311 309 311 310 309 306 306 306 304 303 301 299 299 298 297 297
312 311 309 308 308 308 309 309 309 310 310 311 311 313 315 313 314 315 313 313 313 312 311 308 314 312 314 312 310 311 312 308 312 310 314 308 305 305 306 307 307 307 308 307 304 301 301 300 300 299 298 298 297 297
312 314 312 312 311 310 310 310 310 311 312 314 314 313 313 313 311 311 311 310 313 305 308 310 313 311 313 308 307 310 307 306 310 308 309 309 307 304 304 305 305 306 306 305 305 302 301 300 299 298 297 296 294 291
310 312 314 316 315 313 313 313 313 314 314 314 313 311 311 311 310 305 304 304 307 308 305 307 309 310 311 312 306 308 307 304 312 309 308 310 303 302 302 302 303 304 304 302 301 300 299 298 298 297 293 291 291 290
309 310 310 310 313 314 314 314 315 313 313 313 312 310 309 306 307 308 307 308 306 303 305 308 305 308 307 308 307 306 311 310 308 309 309 304 301 302 301 301 301 300 300 299 298 298 298 296 295 292 292 292 291 290
309 310 310 310 310 311 311 312 312 312 312 309 306 304 304 305 301 301 302 302 300 303 306 306 306 306 306 304 303 307 304 305 309 306 304 301 300 301 301 300 300 299 298 297 297 296 294 292 291 291 292 291 290 288
310 309 310 310 310 310 311 311 311 311 307 302 301 302 300 298 298 299 299 300 300 304 306 306 305 305 303 305 303 304 307 308 308 307 302 300 300 300 299 298 298 296 296 295 293 291 291 291 291 290 290 288 287 287
309 310 309 309 310 310 310 311 311 308 300 299 298 300 299 300 299 298 299 300 301 304 305 306 303 305 305 305 307 308 305 306 303 299 299 299 300 299 298 296 296 295 295 295 292 292 292 291 290 289 288 287 287 286
309 304 306 309 309 310 310 310 307 299 299 298 297 297 298 297 297 297 299 300 301 302 302 302 305 304 302 306 305 302 301 300 298 298 298 299 299 297 296 296 296 296 295 292 292 292 292 291 289 288 287 285 285 284
300 299 299 299 305 308 306 301 298 297 297 297 297 297 296 296 297 298 299 300 301 300 301 301 302 303 301 302 301 299 296 297 298 298 298 298 298 297 296 296 295 295 294 293 292 291 289 288 287 286 286 284 283 283
299 299 298 296 297 298 299 299 298 297 296 296 297 297 297 297 298 298 299 300 299 300 299 297 296 296 295 294 293 295 296 296 297 297 297 297 297 296 296 296 295 294 293 292 290 288 288 287 287 285 284 282 281 281
293 294 295 295 296 297 297 297 298 297 297 296 296 297 297 297 297 295 294 296 296 295 295 294 293 292 291 290 291 293 296 296 297 296 296 296 296 296 295 294 293 292 291 289 287 286 286 285 285 284 281 281 280 279
293 293 294 295 295 296 296 297 297 297 297 297 296 296 296 296 296 294 292 291 291 292 292 289 290 288 288 289 291 291 294 295 295 295 295 294 293 293 292 291 290 290 289 287 286 285 285 284 282 280 279 279 278 277
292 292 292 292 293 295 295 296 297 296 296 296 296 296 296 296 296 294 290 289 288 289 289 288 287 287 286 286 287 288 289 291 292 294 293 292 291 289 288 288 288 286 285 284 283 283 282 280 279 278 277 277 276 276
293 292 292 292 292 292 292 294 294 294 291 294 294 294 294 294 294 294 291 289 287 286 287 287 286 285 285 284 285 285 286 287 287 287 287 287 286 286 286 285 284 284 283 282 281 280 279 278 277 277 276 276 274 274
293 293 293 294 293 292 294 294 295 293 293 293 293 292 293 293 294 290 289 287 284 285 285 285 286 284 283 283 283 282 282 283 284 283 283 284 284 282 282 282 281 281 280 279 277 277 276 276 275 275 274 273 273 272
292 290 294 290 294 293 287 289 290 292 293 292 290 289 292 294 287 290 288 286 282 282 283 284 283 283 282 281 280 281 281 281 282 282 280 280 280 280 280 280 279 278 277 276 276 275 275 274 274 273 272 272 271 270
289 290 290 291 291 293 292 292 293 293 293 291 292 292 293 292 287 285 286 282 280 280 280 281 281 280 279 279 279 280 280 280 280 281 280 280 279 279 278 277 277 276 275 275 274 274 273 272 272 271 271 270 270 269
291 291 291 292 292 293 293 293 293 291 290 289 291 291 287 291 284 284 281 280 280 279 279 279 279 278 278 277 277 277 277 277 277 277 276 276 276 276 276 275 274 274 273 274 273 272 272 271 271 270 270 269 269 268
290 290 291 291 291 291 292 292 291 290 290 290 291 285 285 284 281 280 279 279 279 279 278 278 278 278 277 277 277 277 277 277 276 276 276 276 276 275 275 273 272 272 271 271 270 270 270 269 269 269 268 268 268 268
289 290 291 289 291 289 289 291 290 288 286 287 287 283 281 278 277 278 278 278 279 278 277 277 277 276 276 276 274 274 274 274 274 274 274 274 274 273 272 271 271 270 270 270 269 269 268 267 267 267 267 267 267 266
289 289 291 290 285 288 287 287 286 285 284 284 282 279 277 275 275 276 276 276 276 276 275 275 275 275 275 274 274 275 275 274 273 272 272 271 271 271 271 270 270 270 269 269 268 268 267 267 267 266 266 266 266 266
288 290 289 290 288 287 286 286 285 284 283 282 282 280 276 275 275 274 274 274 275 275 274 274 274 273 274 274 273 272 272 271 271 272 271 271 271 270 270 270 269 269 268 267 266 266 266 266 265 265 265 265 264 264
287 287 288 284 288 286 286 286 286 287 284 283 280 279 278 277 274 274 274 273 273 273 273 273 273 273 273 271 271 271 271 271 271 270 270 270 270 270 269 269 268 268 268 267 267 266 266 265 265 264 264 264 264 264
288 288 287 287 287 288 286 285 287 285 283 281 280 279 278 276 274 272 272 272 272 272 272 273 273 272 271 271 270 270 270 269 269 269 269 268 268 268 268 268 267 267 267 267 266 266 266 265 264 264 264 264 264 264

GFSWCAN_850_thetae_036.txt.gz
Theta_e
295 293 293 295 295 295 296 296 296 296 296 296 296 296 297 298 300 302 304 304 305 310 313 318 317 315 315 317 317 320 320 318 314 315 315 310 308 314 314 316 313 313 311 307 311 309 313 314 313 312 310 313 314 314
293 292 294 295 296 296 296 297 298 299 298 297 298 298 298 299 301 302 304 304 305 306 310 314 317 320 316 317 321 321 321 320 320 318 314 310 312 306 312 315 315 315 311 311 312 312 312 312 314 314 314 315 315 315
293 294 295 295 295 296 299 299 298 299 299 299 300 299 300 302 302 303 303 304 304 305 308 313 319 322 321 316 320 320 320 321 322 321 315 312 312 307 310 309 314 315 316 315 314 314 314 314 314 315 315 315 314 315
294 294 295 296 296 298 297 296 296 298 299 300 301 300 301 301 301 302 302 303 305 308 309 316 320 321 323 320 319 322 321 321 323 324 311 309 311 313 306 312 312 314 314 314 313 314 313 312 311 312 312 312 312 312
294 295 295 296 297 296 296 294 294 296 298 299 299 299 299 300 300 301 301 302 307 311 311 312 317 320 323 320 322 322 321 321 322 315 305 309 313 313 308 309 313 313 313 311 310 315 312 310 309 310 311 309 309 309
294 294 293 295 297 297 295 293 294 296 298 298 299 299 300 300 301 301 301 302 304 307 311 311 313 319 322 322 320 321 322 322 320 319 315 317 319 313 307 306 312 314 316 315 314 314 313 309 308 308 310 307 306 306
294 294 294 294 295 296 295 294 295 297 298 299 300 300 300 300 301 303 305 308 307 307 309 308 311 318 320 323 322 323 323 322 321 319 316 313 316 313 303 309 311 312 314 314 315 312 305 307 304 305 306 304 303 301
296 296 296 296 295 296 296 296 297 298 299 300 300 301 301 303 302 305 309 311 313 310 310 310 313 314 318 317 316 320 319 317 317 315 317 308 314 308 308 310 311 311 311 310 310 312 310 305 303 303 302 300 299 297
297 296 296 296 296 296 296 296 296 298 299 301 301 302 302 307 307 305 307 311 310 310 311 306 312 314 316 313 315 316 315 309 314 305 307 310 306 307 308 309 308 309 311 304 307 307 304 304 301 299 299 297 297 296
304 301 300 299 298 298 297 298 299 300 302 304 304 305 309 308 309 309 308 310 312 311 311 306 311 311 312 309 306 307 311 306 308 308 312 305 305 304 306 308 308 308 308 307 303 300 301 300 299 297 297 297 297 296
308 307 305 303 302 301 301 300 300 302 304 305 310 310 310 309 310 309 309 307 309 304 307 309 311 310 312 306 306 308 306 305 312 309 309 308 307 304 305 307 307 307 307 307 307 304 302 300 298 298 297 297 296 292
310 309 308 308 307 307 306 306 305 305 308 311 310 310 310 310 307 305 304 304 305 307 305 306 308 310 311 310 307 307 307 304 310 307 309 309 304 304 304 305 306 305 305 303 303 301 299 299 298 297 296 294 291 290
313 311 310 309 309 310 310 310 310 311 311 312 311 308 307 303 305 306 307 306 305 302 305 307 305 308 308 309 304 302 302 307 304 307 309 304 302 303 303 303 302 302 302 301 300 299 299 297 297 296 291 290 290 290
312 313 311 311 311 312 311 312 311 309 310 309 304 302 302 302 300 300 302 302 300 302 306 307 305 304 306 306 302 307 304 304 306 306 305 301 301 302 301 300 300 300 300 299 298 297 297 296 292 292 291 290 289 288
309 310 311 311 312 312 312 311 310 311 306 300 301 300 299 298 298 299 299 300 301 304 306 306 305 305 302 304 303 304 306 307 303 301 301 300 301 300 300 299 299 298 298 297 297 296 293 291 292 292 290 288 287 287
310 310 309 309 310 311 312 312 310 307 300 298 297 299 298 299 298 298 299 299 301 304 305 305 302 303 304 304 306 306 305 305 302 299 299 300 300 299 298 298 297 297 296 293 291 292 292 291 290 289 287 287 287 286
310 307 308 309 309 310 310 310 301 298 297 297 297 296 297 297 297 297 298 299 301 302 302 299 302 304 301 303 302 301 299 298 297 298 299 300 299 297 297 296 295 296 295 294 294 291 291 290 289 287 287 286 285 285
298 298 306 309 310 310 308 301 298 297 296 296 297 296 297 296 296 296 297 300 301 300 300 300 299 298 296 298 296 296 296 296 297 298 298 299 298 297 297 296 296 296 295 292 292 292 291 288 287 286 285 285 284 283
297 296 300 304 302 303 299 298 297 296 296 296 297 297 296 294 294 295 296 297 297 297 295 294 293 294 292 291 290 290 294 296 296 296 297 297 297 297 296 295 295 294 292 292 291 290 287 287 286 285 284 283 282 281
295 295 295 297 300 298 297 297 297 297 296 296 296 295 295 293 291 291 292 292 292 292 292 292 290 288 288 287 288 289 293 295 296 296 296 296 296 295 295 295 294 292 291 290 288 287 286 285 284 283 281 280 279 279
294 295 296 298 296 296 296 297 297 297 297 296 296 295 296 293 290 289 288 289 289 290 289 288 286 286 286 287 288 289 291 294 295 294 293 292 292 294 292 291 291 289 288 287 286 284 284 284 283 282 280 279 278 277
293 293 293 293 295 295 295 295 296 296 296 295 296 295 295 294 292 289 287 287 287 286 287 286 285 285 285 285 286 287 288 289 290 292 292 291 290 289 287 287 287 286 285 284 284 283 282 281 280 279 278 277 277 276
293 293 292 292 291 292 292 294 293 293 289 293 294 291 292 293 293 289 288 286 284 284 285 284 283 283 283 283 284 285 286 287 286 286 286 286 286 286 285 285 284 284 282 281 281 280 280 279 278 277 276 275 275 274
294 293 294 294 293 290 294 294 293 292 293 292 288 292 292 292 291 288 286 283 282 283 284 284 283 283 283 283 282 282 282 283 283 283 283 283 283 282 282 281 281 280 279 279 279 278 277 276 276 275 275 274 273 272
292 289 292 285 292 290 282 282 285 288 286 284 284 286 289 292 284 283 283 282 280 281 281 281 281 281 280 280 280 280 280 281 281 281 280 280 280 280 279 279 279 278 276 275 275 275 274 274 273 273 272 271 271 270
289 290 287 290 291 291 290 289 290 291 285 286 288 292 293 282 279 281 283 280 279 279 279 280 279 279 279 278 279 279 279 279 279 280 278 278 278 277 277 276 276 276 275 274 274 273 273 272 271 271 270 270 270 269
290 288 291 292 292 292 290 292 292 286 281 284 284 283 281 280 279 282 280 279 279 278 278 278 278 278 277 277 277 277 276 276 277 277 276 276 276 275 275 274 273 273 272 272 272 272 271 271 271 270 270 269 268 268
290 290 289 290 290 290 286 285 280 283 282 287 288 280 277 277 278 278 278 279 278 278 278 277 277 277 276 276 276 276 276 275 275 275 275 275 274 274 273 272 271 271 271 271 270 270 269 269 268 268 267 267 267 267
288 290 290 287 288 287 287 286 286 286 285 286 281 277 278 276 276 276 277 277 277 277 277 276 275 275 275 275 274 274 273 273 273 273 273 273 273 272 272 271 271 270 270 269 269 268 267 266 266 266 266 266 265 265
288 289 289 287 280 282 286 286 284 283 283 282 279 276 275 274 274 275 276 276 276 276 275 275 274 274 275 275 274 274 274 273 273 272 272 271 271 270 270 270 270 269 269 269 268 268 267 266 266 266 265 265 265 265
288 289 289 287 286 285 285 284 284 282 282 281 280 278 274 274 274 274 274 274 274 274 274 274 273 273 273 273 272 272 272 272 271 271 270 269 269 269 269 269 268 268 268 268 267 267 267 266 266 265 265 264 264 264
286 287 287 281 285 285 285 285 284 283 282 280 277 277 276 275 273 273 272 272 273 273 273 273 273 273 273 272 271 270 270 270 269 269 268 269 268 268 268 267 267 267 267 267 267 266 266 266 265 265 264 264 263 263
287 286 285 285 285 286 285 284 285 282 281 279 279 277 276 274 272 271 272 272 272 272 272 272 272 271 271 270 270 269 269 268 268 268 268 268 267 267 267 267 267 266 266 266 265 265 265 264 264 264 264 264 263 263

GFSWCAN_850_thetae_039.txt.gz
Theta_e
298 298 298 299 298 297 297 295 295 295 296 295 294 294 294 295 296 300 299 302 304 306 309 312 314 316 315 313 313 316 319 318 311 313 314 311 309 313 312 314 312 314 311 307 305 305 313 311 311 310 309 311 313 313
297 296 295 295 294 294 294 295 294 294 294 294 294 295 297 297 297 298 299 300 304 305 306 310 312 315 314 314 313 318 318 318 318 316 312 310 311 304 311 314 314 314 312 312 312 311 311 312 311 313 314 314 313 314
294 294 294 295 295 295 295 295 294 294 295 295 295 296 297 297 298 298 299 303 304 304 306 307 314 316 317 317 314 315 319 320 319 320 314 312 314 307 311 310 313 314 312 311 312 314 313 312 313 313 313 314 314 314
296 296 296 296 296 296 296 296 296 297 296 296 295 296 295 296 297 299 299 304 303 306 306 310 315 318 318 321 317 317 318 321 321 320 312 308 309 311 306 311 312 312 313 312 312 312 311 311 312 314 314 314 315 314
295 295 296 297 298 298 298 298 299 299 298 298 297 296 296 297 298 299 303 303 304 304 309 311 311 317 319 320 321 316 320 321 321 313 304 310 312 313 308 308 310 312 312 312 311 313 312 311 310 311 312 311 312 312
295 296 298 298 296 295 295 297 299 299 299 300 299 298 298 299 300 301 302 303 304 306 306 308 311 315 320 322 321 317 317 321 321 315 311 316 316 315 311 308 311 314 314 314 313 314 313 310 308 309 310 308 307 307
295 295 297 296 296 294 294 296 299 299 300 300 301 301 302 301 301 302 302 303 303 306 306 307 307 315 319 321 321 321 321 320 320 317 313 313 314 311 304 308 311 313 314 314 314 313 306 307 306 306 307 305 304 303
293 294 296 296 296 294 295 297 298 299 299 299 300 300 300 300 300 302 309 307 303 304 306 307 307 312 316 317 316 319 318 317 316 315 314 308 312 307 312 309 309 309 309 309 310 312 311 307 305 304 304 303 302 300
293 293 294 296 295 294 295 297 298 299 299 300 300 300 301 301 300 305 310 308 308 309 308 306 310 311 313 312 314 314 315 310 313 308 308 311 306 312 309 308 308 308 310 305 307 308 306 306 302 301 300 299 299 296
296 295 295 295 295 295 295 297 298 300 300 300 301 302 302 302 301 306 308 306 309 309 309 306 310 311 311 308 306 307 310 307 312 310 310 308 308 304 306 308 308 308 309 307 302 299 300 298 299 298 298 297 297 296
296 296 296 296 295 295 296 295 299 299 300 300 302 305 307 306 304 304 304 305 306 304 306 308 310 310 310 307 306 306 306 304 312 310 311 308 308 304 305 307 308 307 308 308 308 305 303 303 300 298 297 297 296 295
298 297 296 296 296 296 295 297 299 301 302 302 307 308 308 306 305 303 303 302 304 306 304 305 308 310 310 309 306 306 307 304 311 306 309 311 305 304 305 304 304 305 306 306 306 305 302 300 299 298 297 295 294 291
303 301 300 299 299 298 297 299 301 303 303 309 307 304 305 300 305 306 307 305 305 301 304 306 305 307 308 308 301 299 304 307 303 308 309 305 303 304 304 304 303 303 303 303 301 300 300 299 298 297 296 293 290 290
307 305 303 302 301 300 300 300 302 303 307 306 301 300 301 301 300 300 302 302 300 301 304 306 304 303 305 302 301 302 304 303 306 306 305 301 302 302 302 303 302 300 301 300 300 299 298 297 296 294 292 290 290 289
309 308 307 305 304 303 303 304 304 305 302 300 299 300 300 299 298 298 299 300 301 303 305 304 304 305 302 304 302 304 307 306 303 298 301 300 301 300 300 300 300 300 299 298 297 297 296 294 291 290 290 290 288 287
310 309 308 308 307 306 304 304 303 301 298 298 297 298 297 298 298 298 298 299 301 303 302 303 299 299 304 303 305 304 305 303 301 298 298 300 300 299 299 298 298 297 298 297 296 295 292 292 293 291 289 287 286 286
309 304 305 306 308 308 305 302 299 297 297 297 297 296 296 297 297 296 296 297 301 303 302 297 303 302 301 301 300 299 298 297 296 297 298 298 299 298 298 298 297 297 296 294 292 292 293 291 291 288 286 285 285 285
309 308 307 307 308 306 304 299 298 297 296 296 296 295 293 292 292 293 294 297 300 300 297 297 296 294 293 294 293 292 291 295 296 297 297 297 298 297 297 297 296 295 292 292 293 292 290 289 287 286 286 285 284 284
304 305 305 305 309 308 299 298 297 296 296 296 295 295 292 290 290 291 292 294 293 294 293 292 291 291 290 288 288 288 289 292 295 295 295 296 296 297 296 296 295 294 293 292 291 289 288 287 286 285 285 283 283 282
295 298 302 303 304 299 297 297 297 296 296 296 293 291 290 289 288 288 289 289 290 289 289 288 287 285 285 285 285 286 288 293 295 294 294 294 295 295 295 294 294 293 292 291 290 288 286 285 283 283 282 282 280 280
297 298 299 302 298 296 296 297 297 296 296 296 296 295 293 289 287 286 286 287 287 288 287 285 284 283 284 284 286 286 288 291 293 292 290 290 290 292 291 290 290 290 289 287 286 284 284 283 282 282 281 281 280 278
294 294 293 294 294 294 294 294 295 295 295 294 294 294 293 292 289 287 285 285 284 284 283 283 282 283 283 283 284 285 285 287 287 287 287 287 287 286 286 285 286 285 284 283 283 282 282 281 280 280 279 279 278 276
294 293 292 292 292 293 292 292 292 292 288 291 292 290 290 291 289 286 285 283 282 281 282 282 282 282 282 282 283 284 284 285 285 284 285 285 284 284 284 283 283 282 281 280 280 279 279 279 278 278 277 276 275 274
294 292 293 292 292 287 292 292 292 292 292 285 286 290 290 291 288 284 282 280 279 280 281 281 281 281 281 282 281 280 281 282 282 282 281 282 282 280 280 280 279 279 278 278 278 278 277 276 275 274 274 273 273 272
292 289 291 282 291 288 280 280 282 285 281 280 282 287 289 289 280 280 279 280 278 279 279 280 280 280 279 278 279 279 279 280 280 280 279 278 278 278 278 278 277 277 275 274 274 274 273 273 273 272 272 271 271 271
286 290 287 290 288 285 282 284 283 284 280 283 285 288 288 277 276 278 281 279 278 278 278 278 278 278 278 277 277 277 277 277 278 279 277 276 276 276 275 275 274 274 274 273 273 273 272 272 272 271 271 270 269 269
283 283 290 290 291 291 286 288 288 282 284 285 285 276 276 274 275 280 279 278 278 278 277 277 277 277 277 276 276 276 276 276 276 276 275 275 275 274 273 273 273 272 272 272 272 271 271 270 270 269 268 268 267 267
289 289 282 287 288 288 278 277 278 282 280 285 283 275 273 272 276 277 277 277 277 277 277 277 276 275 275 275 276 275 275 274 274 274 274 273 273 272 272 271 271 271 270 270 270 269 268 268 267 267 267 266 266 266
289 289 289 284 286 286 285 282 283 284 284 284 275 275 276 274 275 276 276 276 276 276 276 276 275 275 275 274 274 273 273 273 273 272 273 272 272 272 271 270 270 270 270 269 269 268 268 266 266 266 266 266 265 265
288 288 287 284 278 281 284 284 283 282 281 279 276 274 274 273 274 275 275 275 275 275 274 274 274 273 274 274 274 273 273 273 272 272 271 271 270 269 269 269 269 269 268 268 268 268 267 267 267 266 266 265 265 265
287 288 286 285 284 284 283 283 282 281 280 277 276 274 273 273 272 272 273 273 273 273 273 273 273 273 273 273 272 272 272 271 270 270 269 268 268 268 268 268 268 267 267 267 267 267 267 266 266 266 266 265 264 264
286 286 286 278 284 284 283 283 282 281 280 278 275 274 274 273 272 272 271 272 272 272 273 273 273 273 272 272 271 270 270 269 269 268 268 268 268 267 267 267 267 267 266 266 266 265 265 265 264 264 264 264 264 264
285 285 285 284 284 285 284 284 282 280 279 278 277 276 274 273 272 271 271 271 272 272 272 272 272 272 271 270 269 269 268 268 268 268 268 267 267 267 267 267 266 266 266 266 265 265 265 264 264 264 264 264 264 264

GFSWCAN_850_thetae_042.txt.gz
Theta_e
301 301 301 301 301 300 302 302 300 300 300 299 299 299 298 298 298 298 297 298 299 305 306 310 311 311 311 311 309 310 311 313 310 313 314 312 309 313 313 314 315 316 313 307 304 306 316 310 310 310 309 310 311 312
299 300 301 301 301 300 300 300 300 299 299 298 299 298 298 298 298 297 297 296 299 301 306 308 311 312 310 311 311 313 312 313 313 314 309 307 309 304 311 315 311 316 314 313 313 314 311 311 310 312 312 311 311 312
297 298 298 298 299 299 299 299 298 298 299 298 297 297 297 297 295 295 296 297 297 300 304 305 310 312 313 313 312 311 314 318 316 316 311 310 311 307 312 311 313 311 310 311 312 312 311 313 312 312 312 312 312 313
295 295 295 295 296 296 296 296 297 297 297 297 296 296 296 294 294 295 297 299 298 303 303 305 308 312 314 315 315 313 313 315 319 318 310 307 310 310 308 312 313 311 310 311 310 311 311 312 312 312 312 313 313 313
296 296 295 295 295 294 294 294 295 295 295 295 294 294 295 295 296 297 297 297 301 302 305 307 309 312 314 316 316 317 314 315 319 313 304 309 311 311 307 310 310 311 311 312 313 312 313 312 312 312 312 313 313 313
297 297 297 297 297 296 296 296 295 294 294 294 295 295 297 297 298 298 299 298 300 303 304 305 309 311 313 317 317 316 317 316 318 317 308 314 316 315 313 312 311 314 314 313 313 313 313 312 311 311 312 312 312 312
298 297 297 297 298 298 298 299 298 296 296 296 296 296 296 297 298 299 301 302 302 304 304 304 304 311 314 317 318 318 318 318 319 316 313 312 313 314 304 311 311 312 313 313 313 312 307 308 308 309 310 309 308 308
297 295 295 294 296 299 299 299 299 299 298 297 297 296 296 297 298 301 302 303 303 303 304 304 306 309 314 315 314 317 317 317 316 313 311 308 310 306 311 309 308 309 310 309 308 311 311 309 307 306 307 306 305 303
296 296 294 294 297 299 299 299 299 300 299 298 297 297 299 300 300 299 301 303 303 304 302 303 308 310 312 310 311 314 314 307 312 305 308 310 305 312 309 307 307 307 310 307 308 308 307 307 304 303 303 302 303 300
296 296 294 294 297 298 299 299 300 300 299 298 299 300 300 300 301 302 303 303 304 306 309 305 309 311 310 306 306 307 308 307 312 309 311 307 309 307 306 308 309 307 308 312 307 299 299 299 301 301 301 300 301 299
294 295 294 294 297 298 299 300 300 300 300 301 302 303 300 301 304 303 302 302 305 305 306 308 309 310 310 306 306 306 305 305 312 310 309 308 309 305 305 306 309 311 308 308 308 307 305 305 302 300 298 299 298 296
294 294 294 294 296 298 300 300 300 300 300 302 305 303 303 305 303 303 303 301 303 307 304 304 308 310 309 309 305 305 306 304 312 306 310 311 305 303 306 304 305 304 305 306 306 305 303 302 301 300 298 296 296 295
295 295 295 295 295 296 298 299 300 303 301 305 305 304 304 300 304 305 305 305 305 301 303 305 304 307 306 307 302 302 307 308 303 309 309 304 303 303 303 303 302 303 304 304 302 301 301 299 299 299 296 295 294 292
296 296 295 296 296 296 296 298 300 301 300 301 300 300 297 297 300 300 301 301 299 300 302 305 303 303 304 303 301 308 304 304 306 306 305 301 301 301 301 302 302 301 302 302 301 300 300 299 297 296 296 292 290 289
297 296 296 296 297 296 297 299 299 300 299 298 299 300 299 298 298 298 299 299 299 301 303 303 303 304 302 303 302 304 306 305 303 302 300 299 300 300 300 300 300 300 300 300 299 298 297 296 294 293 291 289 289 290
300 300 300 299 299 299 299 300 300 298 298 297 296 297 297 298 296 296 296 297 300 302 302 302 301 304 304 303 301 300 303 300 299 297 297 298 298 298 298 298 298 298 298 297 296 296 295 294 291 289 288 289 289 287
301 300 299 299 300 300 299 300 297 297 296 296 295 292 293 294 293 292 293 294 300 301 301 300 296 296 297 297 295 293 294 295 292 295 296 297 298 297 297 297 297 297 296 296 295 293 291 290 291 291 290 286 285 284
304 302 303 301 300 299 298 297 297 296 296 295 293 292 290 288 288 289 291 294 298 296 294 294 293 290 289 291 289 289 288 288 294 294 294 295 296 296 296 296 296 296 295 293 292 292 292 291 291 289 286 284 284 283
302 300 300 301 301 299 298 297 296 294 292 292 290 290 289 288 287 288 290 292 291 292 290 289 288 288 287 286 285 285 285 286 290 291 293 294 294 294 294 294 294 293 292 291 291 290 289 288 286 285 284 283 283 283
298 299 299 299 299 298 297 297 296 295 295 291 289 287 287 286 286 286 286 287 287 287 287 286 285 284 284 282 283 283 283 288 292 290 289 290 291 293 292 291 290 290 289 288 287 287 286 285 284 283 283 282 282 281
300 299 298 300 297 296 296 296 296 296 295 295 294 291 289 286 284 284 284 284 284 285 284 283 282 281 281 282 282 283 284 287 286 286 284 284 286 287 287 286 286 286 285 284 284 283 283 283 282 281 281 281 280 280
296 297 296 295 294 293 293 293 294 294 294 293 293 293 292 288 287 284 283 282 282 282 281 281 280 281 281 281 282 283 283 285 285 285 285 286 285 285 284 283 284 283 282 281 281 281 280 280 279 279 279 279 278 278
293 293 292 292 293 293 291 291 292 292 286 289 291 288 287 286 286 283 282 281 280 279 280 280 280 281 281 281 282 283 283 283 283 282 282 282 281 281 281 281 281 280 280 279 279 279 279 278 278 278 278 277 276 274
293 292 292 291 291 285 291 290 291 291 290 284 284 286 287 287 285 281 280 279 278 279 280 280 280 280 280 281 280 280 280 280 280 280 279 280 280 279 279 279 279 278 278 277 277 276 276 275 274 274 273 273 272 272
292 288 290 282 290 285 278 278 281 283 279 279 283 286 285 286 277 276 278 278 277 277 278 278 278 278 278 277 278 278 278 279 279 279 277 277 277 276 276 275 275 275 274 274 274 274 273 273 273 272 272 272 271 271
286 289 287 285 283 284 279 280 284 278 278 282 280 284 283 274 274 277 280 278 277 277 277 277 277 277 277 276 276 276 276 275 276 277 275 275 275 274 274 274 273 273 273 273 272 272 272 271 271 271 270 269 268 268
283 281 288 287 289 288 282 285 284 280 283 285 279 272 272 271 273 279 278 277 277 276 277 277 276 276 276 276 275 275 275 275 275 275 274 273 273 273 273 273 272 272 271 271 270 270 270 269 269 269 268 268 267 267
287 287 280 284 286 286 273 275 279 279 280 283 278 272 269 270 274 275 275 276 276 276 276 276 275 274 274 275 275 274 273 273 273 272 272 272 272 271 271 270 270 270 269 269 269 269 268 268 268 267 267 266 266 266
287 287 286 279 283 284 283 279 282 282 281 281 271 271 274 273 274 275 275 276 276 275 275 275 274 274 274 273 273 273 272 272 272 272 272 271 271 270 270 269 269 269 268 268 268 268 267 267 267 267 266 266 266 265
287 286 284 283 277 282 280 281 280 279 279 277 274 273 273 273 273 274 274 274 274 274 274 273 273 273 273 272 273 272 272 272 271 270 270 269 269 269 268 268 268 268 268 268 267 267 267 267 266 266 266 266 265 265
287 286 284 284 282 281 281 280 280 279 277 275 275 273 272 272 272 272 272 272 272 272 272 272 272 272 272 272 272 271 271 270 269 269 269 268 268 268 268 268 267 267 267 267 267 267 266 266 266 266 265 265 265 264
285 284 283 276 282 280 280 282 281 279 277 275 274 273 273 272 271 271 271 272 271 271 272 273 273 272 272 272 271 270 269 269 269 268 268 268 268 268 267 267 267 267 267 266 266 266 266 265 265 265 265 265 265 264
284 284 284 283 282 282 281 282 280 278 278 277 275 275 274 273 272 271 271 271 272 272 272 272 271 271 270 270 269 269 268 268 268 268 268 267 267 267 267 267 267 266 266 266 266 266 265 265 265 265 265 264 264 264

GFSWCAN_850_thetae_045.txt.gz
Theta_e
300 300 300 300 299 299 300 300 301 300 303 300 301 300 300 299 298 299 301 301 302 303 304 307 309 309 308 308 309 309 312 312 312 312 314 315 314 317 317 316 317 318 317 316 312 317 321 310 309 315 316 311 310 310
301 301 300 300 300 300 300 300 301 302 301 300 300 300 298 298 298 299 299 299 301 301 302 302 305 308 309 309 309 310 310 311 311 314 312 311 313 310 316 320 312 320 317 319 318 320 315 310 314 312 312 311 310 311
300 300 301 301 301 301 301 301 301 300 300 300 300 300 299 300 299 299 298 298 298 298 300 302 304 309 310 310 309 310 310 313 311 312 312 314 314 311 314 314 315 312 310 317 317 316 313 312 311 311 311 312 312 312
298 299 299 300 300 301 301 301 300 300 300 300 300 299 299 299 299 298 298 297 296 298 301 303 305 308 309 311 311 310 311 312 316 314 310 309 314 311 313 315 316 314 313 314 314 312 312 313 313 313 312 312 311 311
295 296 297 299 299 299 299 300 299 299 299 299 299 299 299 298 298 298 296 297 297 298 302 303 305 308 309 312 313 311 311 312 316 314 308 313 310 311 308 311 312 312 314 315 317 315 315 316 316 315 313 312 312 312
296 295 295 296 297 298 298 299 299 298 298 298 298 298 298 297 296 295 296 297 298 298 300 303 306 307 311 313 315 314 314 313 314 316 311 314 314 313 313 314 313 314 314 313 314 314 313 313 313 313 312 312 312 312
298 298 297 295 295 295 296 297 297 297 297 297 296 296 295 294 294 296 298 299 297 299 301 302 304 308 311 313 315 316 316 316 315 314 311 313 313 313 307 315 313 313 313 313 313 313 311 311 311 310 310 310 310 310
296 298 298 298 297 295 294 294 295 294 295 295 295 295 295 295 296 300 302 299 300 300 302 304 304 307 312 314 314 316 315 315 314 314 310 311 310 306 314 312 313 312 313 312 311 312 311 312 309 309 309 309 307 306
294 297 299 298 298 298 298 295 295 294 294 295 296 297 298 298 298 300 302 302 301 302 301 301 306 310 311 309 308 310 314 310 311 309 311 312 308 315 312 309 308 307 309 308 310 308 308 309 308 306 306 304 306 301
294 297 299 299 299 300 299 297 296 296 296 296 296 297 297 297 298 300 304 303 302 302 305 303 306 310 309 305 306 302 306 308 313 311 310 308 311 307 306 308 309 308 308 307 306 302 303 304 300 300 302 301 303 300
294 297 298 299 300 299 299 298 297 297 297 297 297 299 299 299 300 302 301 302 303 304 306 306 308 311 309 308 306 306 306 304 313 311 312 311 311 305 306 306 307 308 308 307 308 308 305 306 302 300 300 300 300 299
294 297 299 299 300 299 299 298 297 297 297 299 301 300 302 302 302 302 302 301 302 307 304 305 308 309 308 308 305 304 306 305 312 306 309 311 304 303 304 304 306 308 307 305 308 311 306 303 302 301 300 299 298 298
295 295 298 299 299 299 298 299 300 301 303 302 303 304 303 300 303 304 306 305 304 301 302 304 304 306 306 306 302 304 309 309 303 308 307 303 300 301 301 301 302 303 305 305 303 303 301 299 298 299 298 297 296 295
295 295 296 298 299 299 299 300 299 300 301 301 300 298 300 299 300 300 301 302 299 299 301 303 302 303 303 303 302 309 304 304 308 306 304 300 298 299 300 300 301 300 300 301 299 298 298 298 297 297 296 295 295 294
295 295 295 296 296 297 299 299 299 299 298 297 297 299 299 298 296 296 298 298 298 300 302 303 303 303 302 304 302 305 307 303 301 301 299 297 297 297 298 298 298 298 298 298 297 297 296 295 295 294 294 293 292 290
296 296 296 296 297 297 297 298 299 298 297 295 291 293 293 294 292 292 292 294 297 300 300 301 302 304 301 299 298 296 300 297 296 293 291 295 296 295 295 296 296 296 296 295 295 295 294 294 294 291 289 288 287 290
298 300 298 297 298 299 300 300 297 296 295 294 292 289 289 290 289 289 290 291 298 298 297 297 294 294 295 294 292 291 290 289 288 288 293 294 294 294 295 295 295 296 295 294 294 294 293 291 289 288 287 287 288 285
300 299 300 299 298 298 297 297 296 294 292 291 291 289 287 286 287 287 289 292 296 294 292 292 291 289 288 290 288 286 285 285 288 287 289 292 292 292 293 292 293 293 293 292 291 290 289 288 288 287 286 285 284 283
300 300 299 299 299 298 297 296 294 290 289 288 287 287 286 285 285 286 287 288 288 289 288 287 285 286 285 284 283 283 283 283 285 285 286 289 290 291 291 291 291 291 290 289 289 287 286 286 286 285 284 283 283 282
300 299 299 299 299 298 297 296 294 292 291 289 287 285 284 284 283 283 284 285 285 284 284 283 283 282 282 281 281 281 281 285 287 284 284 285 286 288 288 288 287 287 287 286 285 285 284 284 283 283 282 282 282 281
299 299 299 296 294 295 295 295 295 294 294 293 291 288 287 285 283 282 282 283 283 282 282 281 281 280 280 280 280 281 283 285 284 283 281 282 283 285 285 284 285 285 284 283 283 282 282 281 280 280 281 280 280 279
297 295 294 293 293 292 292 292 293 293 293 292 291 290 287 285 283 282 281 280 279 279 280 279 279 279 279 280 280 281 281 282 282 283 283 283 283 283 282 281 282 281 281 280 280 280 279 279 279 279 279 278 278 278
292 292 292 292 292 292 290 291 291 291 286 287 290 287 285 283 283 282 280 279 278 277 278 278 278 279 279 279 280 281 281 281 281 280 280 280 279 279 279 279 279 279 278 277 277 278 277 277 276 276 275 274 274 273
293 291 291 290 291 284 290 289 290 289 288 284 285 284 286 283 282 279 278 277 277 277 278 279 279 279 279 279 278 278 278 279 278 278 277 278 277 276 276 275 275 275 274 273 274 274 274 274 273 273 273 272 272 272
291 287 290 282 289 285 279 279 281 283 279 280 284 284 280 283 277 277 277 278 276 276 277 277 277 277 276 276 276 276 277 277 277 277 275 274 274 274 274 274 274 274 273 273 273 273 272 272 271 271 271 271 270 270
282 286 285 281 281 284 278 282 283 279 279 282 280 281 280 275 275 277 279 277 276 276 276 277 277 277 276 276 275 275 275 275 275 276 274 273 274 274 273 273 273 272 272 271 271 270 270 270 270 269 269 268 268 268
281 278 285 285 286 285 280 282 282 279 282 283 277 272 272 271 273 278 276 276 276 276 276 276 276 276 276 275 274 274 274 274 274 273 273 272 272 272 272 271 271 270 270 269 269 269 269 268 268 268 268 267 266 266
285 286 278 282 283 283 274 276 281 279 280 280 276 271 268 270 274 274 275 275 276 275 275 275 275 274 274 274 273 273 273 273 272 272 272 271 271 270 269 269 269 268 268 268 268 268 268 268 267 267 267 267 267 266
284 284 283 276 281 280 279 277 280 279 278 278 270 270 272 272 273 273 274 275 275 274 274 274 274 274 273 273 272 272 272 271 271 271 271 270 270 269 269 269 269 268 268 268 267 267 267 267 267 266 266 266 266 266
284 283 282 281 275 276 277 277 277 276 276 275 273 272 272 272 273 274 274 274 274 274 274 273 273 273 272 272 272 272 272 271 270 270 269 269 269 268 268 268 268 268 268 267 267 267 267 266 266 266 266 266 266 265
285 284 283 281 279 278 277 277 276 276 275 274 274 273 271 271 271 272 272 273 273 273 273 272 272 272 272 272 271 271 270 269 269 269 269 268 268 268 267 267 267 267 267 267 267 267 266 266 266 266 266 265 265 265
283 281 281 275 279 278 279 280 279 277 276 274 273 272 272 272 271 272 272 272 272 272 272 272 272 272 271 271 270 269 269 269 269 268 268 268 267 267 267 267 267 267 267 267 266 266 266 266 266 265 265 265 265 264
283 283 282 281 279 278 279 280 278 277 276 275 274 273 273 273 272 272 272 272 272 272 271 271 270 270 269 269 269 269 268 268 268 268 267 267 267 267 267 267 267 266 266 266 266 266 266 266 265 265 265 265 264 264

GFSWCAN_850_thetae_048.txt.gz
Theta_e
301 300 300 300 300 299 300 300 300 300 300 301 299 300 301 300 299 300 301 302 303 305 305 306 307 307 307 308 313 310 314 314 315 316 318 319 321 318 319 318 321 320 322 324 323 327 326 316 314 320 321 319 318 317
300 300 300 299 299 300 300 300 300 300 299 300 300 301 300 299 300 300 301 301 303 304 302 303 306 307 307 308 309 310 310 312 313 315 317 316 321 319 317 321 318 321 322 324 322 323 322 315 319 317 319 319 316 317
300 300 300 300 300 300 300 300 301 300 300 300 302 302 300 300 300 300 300 301 301 302 302 302 303 306 307 308 310 311 310 311 311 312 316 318 323 320 325 321 319 318 316 321 320 320 320 318 317 316 315 316 315 315
299 301 300 301 300 300 300 301 301 301 301 302 302 300 300 300 300 299 300 300 301 301 302 302 302 304 307 308 310 310 310 313 313 313 316 317 320 316 321 319 320 319 316 319 321 321 317 317 317 317 315 313 313 313
299 299 301 301 301 301 302 302 302 302 301 300 300 299 301 300 299 299 299 299 299 301 303 302 303 303 307 309 310 311 312 313 317 317 312 316 317 317 316 316 321 317 319 322 322 320 320 321 320 318 316 313 312 313
296 299 299 300 300 300 300 300 300 300 300 299 299 299 299 299 299 298 298 298 298 297 300 304 304 304 302 308 309 310 311 312 315 316 317 316 316 316 320 320 317 316 316 317 319 316 316 315 313 315 315 313 312 311
295 296 299 298 300 300 300 299 300 300 300 299 299 299 299 300 300 299 299 298 297 297 301 303 306 306 303 305 312 312 312 312 312 313 315 317 318 316 319 321 318 317 316 315 314 314 314 312 312 311 311 312 310 308
296 295 295 298 298 298 298 299 299 299 299 299 299 298 298 298 297 298 299 298 297 301 301 305 306 309 309 311 312 313 314 314 314 315 314 316 315 315 319 317 317 316 313 312 312 312 311 311 310 309 307 310 306 304
298 297 295 295 297 297 298 298 298 298 297 296 296 295 294 296 299 300 300 299 299 302 303 302 307 312 310 310 310 311 313 311 313 316 316 316 317 319 316 317 316 314 313 313 309 308 308 307 306 309 307 305 302 301
299 298 298 296 294 294 295 296 296 296 295 295 296 297 296 297 298 298 298 300 300 302 302 304 304 308 310 307 309 310 306 310 312 314 314 317 317 311 308 308 309 309 308 309 307 306 304 303 303 303 303 301 302 299
299 299 299 298 296 294 294 294 295 295 295 297 297 298 298 297 300 301 302 303 301 302 303 306 306 306 307 310 310 308 310 305 312 313 318 315 313 304 303 306 306 306 307 306 307 309 308 307 304 302 300 299 298 298
299 299 299 299 297 295 295 296 296 297 297 298 300 298 298 300 303 304 304 303 303 307 305 307 307 305 307 308 308 305 310 305 313 306 313 310 304 299 301 302 303 304 304 304 305 307 305 303 301 300 299 297 296 296
299 299 298 298 296 296 296 296 296 297 297 300 299 302 303 301 303 306 306 307 307 300 301 304 306 307 306 306 304 307 313 312 304 308 307 302 299 298 298 299 301 302 302 301 299 299 300 298 296 298 296 296 296 294
298 299 298 298 297 297 297 297 297 297 299 299 300 301 304 302 302 302 301 304 299 299 300 302 302 304 303 304 304 311 305 306 310 308 304 299 295 296 296 297 298 297 297 297 295 295 295 295 295 295 295 295 295 293
296 298 298 298 298 298 299 300 300 300 298 296 297 300 298 296 294 295 294 298 297 298 299 300 302 304 303 306 303 308 308 303 301 299 297 294 293 294 294 294 294 294 294 294 293 294 293 293 294 293 293 293 293 292
295 296 296 296 297 297 297 298 299 297 295 292 289 292 291 294 292 291 291 293 295 297 299 300 304 303 300 299 298 297 300 296 295 292 291 292 294 293 293 292 292 292 292 292 292 293 293 293 293 292 292 292 290 289
295 296 295 297 298 298 298 299 295 294 293 292 291 287 287 288 288 288 288 290 293 296 299 297 296 295 297 296 293 292 291 290 288 289 287 290 292 291 291 290 290 291 291 291 291 291 290 290 290 289 287 286 287 286
299 298 297 298 298 298 298 295 293 291 290 288 289 287 285 285 286 287 287 289 295 294 293 292 291 290 291 292 290 287 286 285 287 285 284 286 288 289 289 288 288 289 289 288 288 287 287 287 287 286 286 284 284 283
298 299 299 299 298 297 296 294 291 289 288 287 286 286 286 285 285 285 286 287 287 288 288 288 288 287 287 285 284 284 284 284 286 283 283 284 285 286 287 287 288 287 287 286 287 285 284 284 283 283 283 283 283 282
298 298 299 298 298 296 296 294 292 291 290 288 287 286 285 284 284 284 284 286 286 285 285 285 284 283 283 282 282 281 281 284 286 284 281 281 283 285 285 285 284 284 284 284 283 283 283 282 282 282 281 281 281 280
299 298 299 297 295 295 294 295 294 293 293 293 291 289 287 286 284 283 283 283 283 283 283 282 281 280 279 279 280 279 280 281 280 281 280 279 280 281 281 282 282 282 281 281 280 280 280 279 279 279 280 279 279 278
296 294 293 293 293 292 292 292 293 292 293 292 291 289 288 286 285 283 282 281 280 280 280 280 280 280 279 278 278 278 278 279 279 280 280 280 279 279 279 278 279 279 278 277 278 278 278 278 278 278 277 276 276 275
293 292 291 291 292 292 291 291 292 291 292 292 291 290 288 285 283 282 281 280 279 278 279 278 278 277 277 277 278 278 277 278 277 277 277 278 278 277 277 277 276 275 275 274 274 274 274 274 274 274 273 273 273 273
292 291 290 290 291 289 290 289 290 290 290 291 291 289 287 285 282 282 281 279 278 277 278 278 278 278 277 277 276 276 276 276 276 276 275 275 275 275 275 274 274 274 273 273 273 273 273 273 272 272 272 271 271 270
291 287 289 289 288 289 289 289 289 291 290 290 289 288 285 284 283 282 281 279 278 277 276 276 276 277 277 276 275 275 276 275 275 275 274 274 273 273 273 274 273 273 272 272 271 271 271 270 270 270 269 269 269 268
287 285 288 288 288 289 288 288 287 287 287 287 285 282 282 283 282 281 280 278 277 276 275 276 276 275 274 274 274 274 274 274 274 274 274 273 273 273 272 271 270 271 270 270 270 269 269 269 269 268 267 267 268 268
287 286 285 283 285 285 285 284 284 285 286 286 284 282 282 281 280 279 277 276 275 275 275 275 274 274 273 273 274 273 273 273 273 273 272 272 271 271 270 270 269 269 269 269 269 268 268 268 268 268 267 266 266 267
285 284 284 282 283 282 283 284 284 284 284 281 280 278 279 279 279 276 275 275 275 275 275 275 274 274 274 273 273 273 273 272 272 272 271 270 270 269 269 269 268 268 268 268 268 268 267 267 267 267 267 267 266 266
283 282 282 278 281 280 280 282 282 279 277 278 278 277 275 273 271 273 273 274 274 274 274 274 274 273 273 272 272 272 272 271 270 270 269 269 268 268 268 268 268 268 268 267 267 267 267 267 267 267 266 266 266 266
282 281 281 279 279 280 277 275 276 274 273 274 273 272 272 271 272 273 273 274 274 274 274 273 273 272 272 272 272 271 271 270 270 270 269 269 268 268 268 268 267 267 267 267 267 267 267 266 266 266 266 266 266 266
283 283 282 281 280 277 275 276 275 275 275 273 273 273 272 271 272 273 273 273 273 273 273 273 273 273 272 272 271 270 270 269 269 269 269 268 268 267 267 267 267 267 267 267 267 267 266 266 266 266 266 266 265 265
281 280 281 281 279 276 277 277 277 276 275 274 273 272 272 272 272 272 273 273 273 273 273 273 272 272 271 270 269 269 269 269 268 268 268 268 267 267 267 267 267 267 267 267 267 266 266 266 266 266 266 265 265 265
281 280 280 279 278 277 277 278 278 276 275 275 273 272 272 273 273 272 273 273 273 272 272 271 271 270 269 269 269 269 268 268 268 268 267 267 267 267 267 267 267 267 267 267 266 266 266 266 266 265 265 265 265 264

GFSWCAN_850_thetae_051.txt.gz
Theta_e
300 301 300 299 300 300 300 300 300 300 302 301 301 300 300 301 301 302 302 302 304 306 306 305 307 308 307 308 311 310 312 314 315 317 316 314 318 315 315 315 321 322 322 326 326 328 328 320 320 322 322 321 321 320
301 300 300 299 300 300 301 301 303 301 301 300 300 300 300 301 302 301 302 302 303 305 305 306 307 308 308 308 308 310 313 313 313 314 316 316 322 322 316 320 315 322 322 324 323 324 322 319 320 320 320 321 322 321
301 300 300 300 300 300 300 300 302 301 300 300 300 300 300 300 300 302 302 302 302 303 305 306 307 307 307 309 310 311 311 312 312 311 314 317 319 317 323 321 318 318 319 323 322 321 322 322 320 320 321 321 321 321
301 301 301 300 300 301 300 300 301 301 301 301 300 300 300 300 300 301 302 302 303 304 305 306 303 305 306 307 310 311 312 311 311 312 316 319 319 313 320 317 317 317 317 319 319 319 319 320 321 320 320 319 319 318
300 301 301 301 301 301 301 300 300 300 300 300 300 301 300 299 300 301 301 302 302 303 306 304 303 303 304 306 308 310 312 313 312 315 319 317 313 313 316 318 318 316 318 321 321 317 321 321 320 320 321 320 318 317
300 300 300 301 302 302 302 301 300 300 300 301 301 299 299 300 300 300 300 301 302 303 302 305 305 305 304 304 306 309 312 313 313 313 316 313 311 314 323 319 314 313 314 316 318 318 319 320 318 318 319 320 319 316
299 300 300 301 302 302 302 302 301 301 302 300 299 300 300 300 300 300 301 301 301 301 302 304 306 306 305 304 305 307 311 311 313 314 315 315 315 316 321 320 313 313 316 317 317 316 316 315 316 315 315 317 316 315
298 299 300 301 301 301 301 300 300 300 300 299 299 299 299 300 299 301 298 299 300 302 302 303 307 306 305 305 304 308 311 311 312 313 313 316 316 318 318 315 314 314 315 317 317 315 314 313 312 311 311 311 312 312
297 298 298 299 300 300 300 300 299 299 299 299 299 300 300 300 301 301 298 298 302 303 304 304 307 310 305 304 307 309 311 313 311 316 315 315 316 318 315 315 314 313 316 314 314 311 310 310 311 309 308 308 309 308
295 297 298 298 298 299 299 299 299 299 298 298 298 299 299 299 299 300 300 300 302 303 303 305 306 309 308 310 311 310 308 314 314 315 314 317 317 307 301 304 309 309 310 310 311 312 311 310 309 307 307 307 306 305
296 295 296 298 297 297 297 297 297 296 298 300 300 300 299 298 300 301 301 303 302 304 304 305 307 310 308 311 311 311 308 310 316 314 317 317 311 300 298 300 303 307 308 308 308 309 309 309 309 306 305 303 302 300
298 295 294 295 296 296 295 296 297 299 299 300 300 300 298 299 302 305 305 304 306 308 306 308 308 309 308 307 307 308 311 308 315 306 311 306 301 298 297 297 298 300 303 304 303 304 304 304 304 302 300 297 297 297
298 295 294 294 295 296 295 297 299 299 300 300 301 301 302 302 304 305 305 306 307 304 301 303 309 309 307 305 304 307 312 311 302 308 306 302 298 296 296 295 295 296 298 299 299 300 299 299 299 298 295 294 293 292
297 296 296 296 296 297 297 297 297 298 300 299 301 303 303 303 300 298 299 302 298 299 299 301 304 305 302 303 302 311 305 307 311 309 303 298 295 295 295 294 293 293 293 293 293 294 294 293 292 291 290 290 291 290
297 296 296 297 298 298 298 299 298 298 296 296 298 299 298 296 294 294 295 297 295 296 298 300 301 301 304 304 303 307 308 303 300 299 296 293 293 294 293 292 292 291 291 291 290 290 289 289 289 289 289 290 290 290
298 297 297 297 298 298 298 296 297 297 294 292 289 293 291 295 293 291 291 293 293 294 298 300 303 302 301 301 299 300 300 297 295 293 291 291 292 291 291 291 290 290 289 289 289 289 290 290 289 289 290 290 289 289
297 296 296 296 298 299 299 296 293 291 292 291 291 287 288 289 288 289 289 290 291 295 300 299 298 297 299 297 294 293 293 292 290 288 288 287 288 289 289 289 288 288 288 288 287 287 287 287 288 289 287 286 286 286
297 297 298 299 298 298 295 294 292 291 289 288 290 288 287 286 287 288 288 289 294 294 293 293 293 292 293 294 291 290 289 289 286 285 284 285 285 286 286 286 286 286 286 286 286 285 285 285 285 283 283 283 283 282
298 298 298 298 298 297 296 294 291 290 288 288 287 287 287 286 286 286 288 288 288 290 290 289 289 289 288 287 287 287 287 288 286 284 283 283 283 284 283 284 284 284 283 283 283 282 282 282 282 282 282 281 281 281
298 298 297 297 297 297 295 294 293 292 291 290 289 288 287 286 286 286 286 288 288 287 286 286 285 284 284 283 283 283 284 287 286 284 282 282 281 281 281 282 281 281 281 281 280 280 280 279 279 280 280 279 279 279
298 298 298 297 294 295 295 296 295 293 293 293 292 290 290 288 286 285 285 284 285 285 285 283 282 282 281 281 281 281 281 282 282 283 282 281 280 280 280 279 279 279 279 278 278 277 277 276 276 277 278 277 278 276
296 295 294 294 292 293 293 293 294 294 294 293 292 291 290 289 287 285 284 283 282 282 282 282 282 281 280 280 281 280 280 279 279 279 279 279 279 278 278 278 277 276 276 276 275 275 274 275 274 274 274 274 274 274
292 291 291 292 293 293 292 293 293 293 294 293 292 291 290 288 286 285 284 282 281 281 281 280 280 280 280 279 279 279 279 280 279 279 278 277 277 276 276 275 275 275 275 274 274 273 272 272 272 272 272 272 272 272
291 290 290 292 293 293 292 292 292 292 293 293 292 290 289 287 286 285 284 281 280 280 280 281 281 281 280 278 278 277 278 278 277 277 277 277 276 275 274 273 273 273 273 273 272 271 271 271 271 271 270 270 269 270
292 288 291 292 292 293 293 293 292 293 292 292 290 290 288 287 287 285 284 281 280 279 279 279 280 280 280 278 277 276 275 276 276 275 274 276 276 276 275 273 271 270 270 271 271 271 270 269 269 269 269 268 267 268
290 288 290 291 291 293 292 292 291 291 291 290 288 286 287 287 286 285 283 281 279 278 278 279 279 279 278 277 276 275 274 275 275 273 273 273 272 273 273 272 272 269 269 269 268 269 268 268 268 267 268 268 267 267
290 290 287 287 289 289 290 289 288 289 289 289 288 287 287 286 284 281 279 278 277 276 275 276 277 277 276 275 273 273 274 274 274 273 272 272 271 271 270 270 269 269 269 269 268 268 267 267 267 267 266 266 266 266
286 286 287 286 286 286 287 287 287 287 287 284 285 283 283 283 282 279 277 275 275 274 274 273 273 274 274 273 272 272 273 273 273 271 270 269 269 270 270 269 269 269 269 269 268 268 266 266 266 265 266 266 266 266
286 285 284 282 284 283 282 285 285 281 279 283 283 281 278 275 276 275 275 274 274 274 274 273 272 273 273 273 273 273 272 271 271 270 271 271 270 268 268 268 267 268 268 267 267 268 267 267 267 267 267 266 265 264
285 285 284 281 282 282 279 280 278 276 277 277 276 275 274 273 272 273 274 274 274 274 273 272 272 272 272 272 271 272 271 270 270 270 270 269 268 268 267 267 267 268 268 268 267 267 267 267 266 265 265 265 264 265
285 285 284 283 281 279 277 277 276 277 276 276 277 277 275 273 272 272 272 273 273 273 272 272 272 271 271 271 271 270 269 270 270 269 269 268 268 267 267 268 267 267 267 267 267 267 267 266 265 264 264 265 265 265
284 285 283 282 280 278 278 281 280 280 279 279 277 275 275 276 276 272 273 273 272 272 272 271 271 270 272 271 270 270 269 269 269 269 268 268 267 267 267 267 267 267 267 267 267 266 266 266 266 265 265 265 265 265
284 283 282 282 280 281 280 282 281 280 280 279 277 277 276 277 277 273 273 273 272 271 271 272 272 271 270 270 270 269 269 269 268 268 268 268 267 267 267 267 267 267 267 267 267 266 266 266 266 266 265 265 265 265

GFSWCAN_850_thetae_054.txt.gz
Theta_e
298 300 301 300 300 300 300 300 300 300 299 302 301 300 300 300 301 301 302 302 304 304 307 307 306 308 308 309 311 311 311 314 313 316 316 316 317 315 313 313 319 318 319 322 324 326 326 321 320 321 321 320 321 321
299 301 300 300 300 300 300 301 301 302 299 301 300 300 301 301 302 300 303 303 304 305 306 306 306 306 308 309 310 310 312 312 313 314 316 316 321 319 316 317 316 319 317 321 322 323 323 321 320 320 320 321 322 322
300 301 301 300 300 300 300 301 302 301 300 299 300 301 303 302 301 301 303 304 305 303 304 306 307 306 306 308 309 311 311 312 311 312 314 316 318 316 320 318 317 318 317 320 321 319 317 321 321 320 320 320 321 322
301 301 301 301 301 300 301 301 300 302 301 302 301 300 300 300 300 301 303 303 303 303 305 306 306 307 306 308 309 311 311 310 313 313 317 317 319 315 319 316 316 316 317 320 320 319 318 316 318 319 321 320 320 320
300 301 302 302 301 300 301 300 300 300 300 301 300 300 300 300 300 302 303 303 302 303 305 306 305 305 306 307 308 309 312 312 313 313 317 317 315 317 320 318 317 315 315 317 321 319 319 320 320 318 316 317 321 320
301 301 302 302 302 300 300 301 301 301 301 301 301 302 301 301 302 303 302 302 302 304 304 306 306 305 305 307 307 308 310 311 313 312 314 314 314 315 320 316 314 313 312 312 317 315 316 318 318 317 317 318 320 321
301 300 301 302 302 300 300 300 301 301 301 300 300 301 301 301 302 303 302 302 303 303 304 306 306 306 305 306 307 307 308 310 312 314 315 315 314 313 318 318 314 313 314 316 317 317 318 318 317 316 316 315 318 319
301 300 300 302 302 300 300 301 301 300 300 300 300 300 301 301 301 300 301 302 302 302 303 305 305 307 306 307 307 307 309 310 311 311 313 316 315 317 317 315 315 314 315 315 315 317 316 315 314 313 312 313 314 315
300 301 300 300 300 301 301 300 300 299 299 300 299 300 300 301 301 299 301 301 302 303 304 305 306 309 306 307 306 308 309 310 310 315 315 315 317 314 305 304 306 309 311 312 313 313 312 312 312 312 310 310 311 311
299 300 300 299 299 300 299 299 299 299 299 300 300 300 301 300 298 299 301 302 303 303 305 305 306 307 304 305 308 311 309 310 312 313 313 316 309 301 298 299 300 301 305 309 311 312 311 311 313 311 309 309 309 308
298 299 299 299 299 299 299 299 299 300 300 301 301 301 300 300 301 301 301 303 303 303 303 304 305 308 304 305 306 308 309 309 313 314 315 315 303 299 297 297 297 300 302 304 306 307 307 308 310 309 306 305 305 305
298 298 298 298 298 297 298 298 300 300 300 301 300 299 300 300 300 304 304 304 304 306 306 308 307 307 305 305 302 304 307 306 313 306 310 305 299 297 295 295 294 296 298 300 301 302 304 305 305 304 302 301 301 300
296 296 296 296 296 297 298 299 300 301 302 302 302 301 301 303 304 305 305 305 304 302 300 301 306 307 307 304 302 305 309 309 305 307 303 299 296 295 294 293 292 292 294 295 295 296 297 297 298 298 296 295 295 294
295 295 296 296 296 297 298 299 299 300 300 301 302 302 302 300 299 298 298 299 298 297 297 298 303 303 302 303 302 308 304 305 309 305 299 295 295 293 293 292 292 291 290 290 290 290 290 290 289 290 290 290 290 289
296 296 297 298 298 297 297 298 298 298 296 296 296 298 297 296 294 294 292 296 295 295 296 300 301 304 303 305 302 306 305 300 298 297 294 292 292 291 291 291 290 289 289 288 288 288 288 288 288 287 288 288 288 288
297 298 298 297 298 298 298 298 297 296 294 291 289 293 291 293 292 291 291 293 293 293 297 299 303 303 301 299 298 298 299 296 294 292 290 289 290 289 289 289 289 288 288 287 287 287 287 287 287 286 287 287 286 286
298 298 297 297 298 298 297 296 293 291 291 292 291 288 289 290 290 290 290 291 292 293 300 299 297 297 299 296 294 293 293 291 289 287 287 287 287 287 287 287 287 287 287 286 286 286 286 286 287 286 285 284 284 284
296 296 297 298 297 296 294 293 291 290 289 289 290 288 288 288 288 289 289 290 294 294 294 293 292 291 291 293 291 291 289 286 285 284 285 285 285 285 285 285 285 285 285 285 285 284 284 284 283 283 283 282 282 282
297 298 299 298 298 297 295 293 292 290 289 290 288 287 288 287 286 288 288 288 288 289 290 289 288 288 287 286 288 287 288 286 285 284 283 283 284 283 283 283 283 282 282 282 282 282 282 282 282 282 282 282 281 281
298 298 297 297 298 297 295 294 293 292 292 290 289 288 288 287 286 285 285 287 287 286 285 285 285 284 284 283 283 284 287 286 285 284 283 282 281 281 281 281 281 280 280 280 280 279 279 279 279 279 279 278 279 279
297 296 295 295 294 296 297 296 295 294 293 293 292 291 290 287 286 285 285 284 285 285 284 284 283 282 282 282 282 282 282 282 282 282 281 281 280 280 279 279 279 278 278 277 277 277 276 276 276 276 276 276 276 275
297 296 295 293 293 294 295 295 295 295 294 293 293 292 291 290 288 285 283 284 283 282 283 282 282 282 281 282 282 281 280 280 280 280 279 279 279 278 278 278 277 277 276 276 275 274 274 274 274 274 274 275 274 273
292 292 292 293 293 293 293 294 294 294 295 294 293 292 291 289 287 286 284 283 282 282 282 281 281 281 280 280 280 280 280 280 280 279 279 278 277 277 276 276 276 276 275 275 274 273 272 272 272 272 272 272 272 272
291 291 291 294 294 293 293 294 294 294 293 293 292 290 289 289 288 286 284 283 282 281 282 283 282 281 280 279 279 279 279 279 279 279 278 278 277 275 274 273 273 273 273 273 273 272 271 271 271 271 270 269 270 270
292 289 293 294 294 294 294 294 294 293 293 293 291 290 289 289 288 287 285 283 281 281 281 281 282 281 280 279 278 277 277 277 276 275 275 276 277 277 275 274 272 270 271 271 271 271 270 270 269 269 269 269 268 269
290 289 292 293 293 294 294 293 293 292 292 290 289 288 289 289 287 286 284 282 280 279 280 280 280 279 278 277 276 275 275 276 275 273 273 272 273 274 273 273 272 269 268 269 269 269 269 269 268 268 268 268 267 267
291 290 289 290 291 291 291 290 290 290 290 290 290 289 289 287 285 282 280 279 278 277 277 278 278 278 277 275 274 273 274 274 274 273 272 272 272 271 271 270 269 269 268 269 268 267 267 267 267 267 267 267 266 266
287 288 288 288 287 288 289 289 288 288 287 286 287 284 285 285 283 280 278 277 276 276 275 275 276 275 275 274 274 274 273 273 273 272 272 272 272 271 269 268 269 268 268 268 268 268 267 267 266 266 267 266 265 265
288 286 284 284 285 283 284 286 285 282 281 285 285 283 280 278 278 277 276 276 276 276 275 274 273 273 272 272 273 273 273 272 272 271 272 272 271 269 268 268 267 267 268 267 266 267 268 268 267 267 267 266 265 265
287 287 284 283 283 282 280 281 280 280 280 278 277 276 276 275 275 275 275 276 276 275 275 274 274 274 274 274 272 272 271 271 271 270 271 270 269 268 267 267 267 267 267 267 266 267 266 267 266 266 265 265 265 265
288 287 284 283 281 280 279 279 279 279 279 279 279 277 276 274 273 274 274 274 273 273 273 273 273 273 273 272 273 272 271 271 270 270 269 269 268 267 267 268 267 268 267 266 267 266 266 266 266 265 265 265 264 264
287 286 283 282 281 280 280 283 282 282 281 280 278 277 277 278 277 274 273 273 274 274 274 273 273 272 273 272 271 270 270 270 270 269 269 269 268 268 268 268 267 266 267 267 267 266 265 265 265 265 264 264 264 265
285 284 283 283 282 283 282 284 283 282 282 281 279 279 278 279 278 274 274 274 274 274 273 272 273 272 271 270 270 270 270 270 269 269 269 268 268 268 268 267 267 267 267 267 267 266 265 264 264 265 265 265 265 264

GFSWCAN_850_thetae_060.txt.gz
Theta_e
297 297 296 297 298 299 300 300 300 300 300 300 300 300 300 300 299 298 299 300 300 300 301 304 305 305 304 304 304 305 306 306 307 307 306 305 304 310 312 312 312 311 311 312 314 318 317 317 319 319 316 318 319 319
297 297 298 299 300 301 301 300 300 300 300 300 300 300 300 301 301 299 299 299 300 300 301 302 304 306 306 305 305 306 307 307 307 308 305 305 303 302 309 311 311 313 313 313 314 314 314 317 317 317 317 316 317 317
299 300 300 300 301 301 300 300 300 300 300 300 300 300 300 300 300 300 300 300 300 301 300 301 303 306 306 306 308 307 307 307 308 309 307 306 307 306 307 306 309 310 313 315 315 315 316 315 315 316 316 316 316 319
300 299 300 301 301 301 300 300 300 300 300 301 300 300 300 300 300 300 300 301 300 300 301 303 302 304 306 305 306 307 308 308 308 309 307 304 305 308 305 308 309 309 313 314 314 314 315 315 316 318 317 315 317 316
300 300 300 301 300 301 301 301 300 301 301 301 300 301 300 300 300 301 300 301 301 301 300 303 304 304 305 305 305 305 306 307 308 309 306 305 306 307 307 308 310 309 311 313 314 314 313 314 312 314 317 315 315 315
300 301 300 300 301 300 302 301 300 300 300 301 301 301 300 300 302 300 301 300 301 302 303 302 305 306 306 305 305 305 305 305 307 308 306 307 311 308 305 308 308 306 306 309 310 311 314 314 316 317 317 316 316 316
300 300 300 300 302 301 301 301 300 300 300 300 300 300 300 300 301 300 301 301 302 301 303 302 302 305 306 305 305 306 307 308 307 309 308 308 309 311 302 308 304 304 303 307 310 314 315 313 312 313 313 313 313 313
300 300 301 299 302 300 301 300 300 301 301 300 300 301 300 300 301 300 302 302 301 301 303 301 301 303 306 306 306 305 306 307 307 308 309 309 309 309 307 300 300 301 301 305 308 310 310 311 311 311 311 311 312 312
300 300 300 300 300 300 300 300 299 301 301 300 300 301 300 300 301 301 302 302 302 303 299 297 299 304 305 305 306 306 307 302 307 301 306 308 304 299 298 298 298 297 299 301 306 307 309 308 307 308 309 309 309 308
300 300 299 299 300 301 300 301 300 300 300 301 301 301 300 301 302 302 302 303 302 303 303 298 302 302 305 304 303 302 303 300 307 305 307 301 298 296 294 295 294 294 295 297 302 302 304 304 304 304 303 303 305 304
300 300 300 300 300 300 299 300 301 301 300 300 300 301 301 301 300 300 300 300 301 300 302 303 303 302 303 303 304 304 303 303 304 306 303 298 296 294 293 292 292 292 293 295 297 298 299 301 300 300 300 301 301 300
298 298 298 299 300 300 300 300 301 301 300 300 300 300 301 302 301 300 301 299 299 304 300 302 303 304 302 303 302 304 303 303 305 302 295 293 294 293 291 290 289 290 290 292 294 294 294 296 295 295 295 295 295 294
298 298 298 298 299 300 301 301 301 300 299 301 301 300 299 296 293 294 300 301 299 298 296 298 302 302 303 302 300 302 304 305 301 297 293 293 291 290 289 288 288 288 289 289 289 290 290 290 291 290 289 289 290 290
297 296 297 297 298 298 299 299 300 301 300 298 295 291 291 289 292 291 291 291 294 294 294 296 299 301 300 301 301 304 298 298 294 293 290 291 290 288 288 287 287 286 286 286 286 287 287 287 286 286 286 287 288 287
297 298 298 298 298 298 298 299 299 299 293 290 291 289 289 290 289 290 290 292 292 293 294 297 300 299 298 298 295 298 295 291 291 288 289 288 287 287 286 286 285 285 284 284 285 285 285 285 285 284 285 285 285 285
298 297 297 297 298 298 298 296 298 294 290 288 288 288 288 286 287 289 290 290 291 293 296 296 297 295 295 292 292 292 291 289 288 287 286 286 286 286 285 285 284 284 284 283 283 283 284 284 283 283 284 284 284 284
297 296 297 297 294 294 296 296 291 289 289 289 288 287 287 288 287 287 288 288 291 293 292 293 290 291 292 291 290 288 287 286 285 284 283 284 283 283 284 284 284 284 283 283 283 283 282 282 283 283 282 282 282 282
296 297 297 297 297 295 292 291 289 288 288 287 287 286 286 285 285 286 287 289 292 292 290 288 287 285 286 287 285 285 283 282 283 283 282 283 283 284 284 283 283 283 283 283 283 283 282 282 281 280 280 281 281 280
296 297 298 297 295 294 293 291 289 289 287 286 284 284 284 284 284 285 286 285 286 286 285 284 281 282 282 284 284 283 283 282 281 281 281 281 281 282 282 282 283 283 282 282 281 281 280 280 280 280 279 279 278 278
298 297 297 297 296 294 293 293 291 290 289 286 285 284 283 283 283 283 284 284 284 283 283 282 282 282 282 284 283 283 282 281 281 280 279 280 280 281 281 280 280 279 279 279 279 279 279 278 278 278 278 277 277 276
295 296 295 295 295 296 295 294 293 290 288 289 288 287 285 283 282 282 282 283 282 282 283 281 281 281 283 283 283 282 282 281 280 280 278 278 278 278 278 278 278 278 278 277 277 276 276 275 275 274 275 274 274 274
294 293 293 293 294 294 294 294 294 293 292 291 290 289 287 284 283 282 281 281 281 281 280 281 281 281 281 281 281 281 280 280 279 279 278 278 277 276 276 275 276 275 274 274 274 273 273 272 272 273 273 272 272 271
292 292 293 292 293 293 293 294 294 294 289 290 290 286 285 285 283 282 281 282 280 280 280 280 279 279 279 279 279 278 278 278 277 277 277 276 276 275 275 274 274 273 273 272 272 272 272 271 271 271 271 271 270 270
292 293 293 293 292 288 293 293 293 292 291 285 284 283 285 284 283 281 280 281 281 280 279 279 279 279 278 278 278 277 277 278 277 276 275 275 275 274 273 273 273 273 272 271 271 270 270 270 270 270 269 269 269 269
291 289 292 286 293 286 280 279 281 284 282 282 281 281 282 286 278 277 278 280 280 280 280 279 278 278 277 276 276 276 276 277 277 276 275 275 274 274 273 272 271 271 271 271 270 270 269 269 269 269 269 268 268 268
284 289 287 284 285 285 283 281 280 281 279 281 282 287 285 275 275 278 280 279 279 279 279 279 279 278 276 276 276 276 275 275 274 275 274 274 274 273 273 272 271 270 270 270 269 270 269 269 268 268 268 268 268 267
281 282 288 287 290 289 285 287 286 281 280 281 278 277 273 272 273 279 278 278 279 278 279 278 278 277 276 275 275 274 273 273 273 273 272 272 271 271 271 271 270 270 269 269 269 269 269 268 268 268 267 267 267 267
286 284 280 282 282 283 278 277 277 277 277 282 279 273 272 272 276 278 277 277 278 277 278 277 277 276 275 275 274 274 274 273 272 272 272 272 272 271 270 270 270 269 269 269 269 268 268 268 268 267 267 267 266 266
284 283 282 276 279 279 279 276 278 279 279 281 271 271 277 277 277 277 277 276 276 276 276 276 275 275 274 274 274 273 272 273 272 272 272 271 271 270 269 269 268 269 269 269 269 268 268 268 267 267 267 267 266 266
284 282 279 278 274 277 279 278 276 277 279 277 276 275 276 276 276 276 276 276 276 275 275 274 274 274 274 274 273 272 271 271 271 271 271 271 270 269 269 268 268 269 269 269 268 268 268 267 267 266 266 266 266 266
284 281 280 278 277 278 278 278 277 277 277 276 275 275 275 275 275 275 276 276 275 275 274 274 274 274 274 274 273 272 272 271 271 271 270 270 269 269 269 269 269 269 269 268 268 268 268 268 268 268 267 267 266 266
282 280 278 276 279 278 280 280 279 278 278 276 275 275 275 275 274 274 274 274 274 274 274 274 274 274 273 273 272 271 271 270 270 270 269 269 269 269 268 268 268 268 268 268 268 268 268 268 268 268 267 267 267 266
281 281 280 280 279 279 280 281 281 280 279 278 278 278 277 276 274 274 274 274 274 274 274 274 274 274 272 271 271 271 270 270 270 270 269 269 268 268 268 268 268 269 268 268 268 268 268 268 268 267 267 267 266 266

GFSWCAN_850_thetae_063.txt.gz
Theta_e
296 297 298 297 296 297 297 297 298 298 298 298 298 298 298 298 299 299 301 300 300 300 300 303 304 304 304 304 303 303 304 303 302 303 304 304 301 306 308 308 310 310 310 308 310 313 314 314 313 315 314 316 317 317
297 296 298 299 299 299 299 300 300 300 300 300 299 299 299 299 298 298 299 299 300 300 300 301 302 303 304 304 304 304 305 305 305 303 302 303 302 299 307 308 309 310 309 309 310 312 312 312 312 312 313 315 315 316
299 300 300 299 299 300 301 300 301 300 300 300 300 300 300 300 299 298 298 299 299 299 300 300 301 302 303 305 304 304 305 306 307 307 303 303 303 303 303 304 307 306 309 310 311 311 311 311 312 314 316 317 315 316
300 300 300 300 300 300 300 300 300 300 300 300 300 299 299 300 301 299 299 298 299 300 300 300 300 300 302 305 306 305 305 306 307 308 305 304 307 306 303 305 306 305 307 308 309 311 312 314 314 313 315 316 316 316
300 300 301 300 301 301 300 300 300 300 300 300 300 300 300 299 300 301 299 300 299 300 299 299 301 300 303 305 305 306 307 307 308 306 305 307 305 308 307 307 306 307 309 309 308 310 309 312 313 313 313 315 315 315
300 299 300 300 301 301 301 301 300 300 300 300 300 301 300 300 300 301 300 299 299 299 301 299 303 303 303 305 304 305 305 305 306 307 305 308 308 308 304 307 306 306 305 306 308 306 308 312 311 313 314 313 314 314
300 300 300 301 300 300 300 299 299 300 300 301 300 300 300 300 300 300 301 300 299 300 301 301 299 306 303 304 305 304 305 306 306 306 305 306 308 309 303 304 302 302 301 303 306 307 311 310 308 309 311 311 311 311
300 299 300 299 299 300 300 301 300 300 300 300 300 300 300 301 300 301 302 301 300 302 301 302 303 304 305 305 305 306 306 306 307 306 306 307 308 306 300 298 298 298 299 303 302 306 305 306 308 308 309 311 311 310
300 299 300 300 301 300 300 300 300 301 301 300 300 300 300 300 301 301 301 300 301 301 300 297 299 305 305 305 305 305 304 303 305 303 304 306 301 297 296 296 295 295 295 297 301 303 304 305 304 304 304 304 305 304
299 299 300 300 300 300 300 300 300 301 300 299 300 301 299 300 301 301 301 300 300 301 302 296 301 305 305 303 300 302 302 303 306 304 302 298 296 294 293 292 291 292 293 295 297 299 299 300 298 299 300 298 296 294
299 299 299 300 300 300 300 300 301 300 300 300 300 300 300 300 300 300 299 300 300 297 301 301 302 301 303 304 303 302 303 301 304 305 301 297 295 293 290 289 289 290 291 292 293 293 294 294 293 291 290 291 294 293
298 298 299 300 300 300 300 301 301 301 301 302 301 300 301 299 299 298 295 296 299 302 299 303 303 302 302 303 302 303 304 302 303 297 295 293 292 290 288 287 287 288 288 289 289 289 289 290 290 290 288 288 288 288
297 298 299 299 299 300 301 300 300 300 301 300 299 297 295 292 290 291 299 299 297 296 294 298 302 301 302 302 301 302 304 304 297 294 292 291 290 288 287 286 285 285 286 286 285 286 287 287 287 287 286 286 286 286
298 297 297 298 299 299 299 300 300 300 299 295 292 288 288 286 289 290 290 291 292 293 293 296 299 300 299 300 298 299 295 295 292 290 289 288 288 286 286 285 285 284 284 284 284 284 284 284 284 284 285 285 286 285
297 297 297 298 298 298 299 299 299 298 292 289 289 287 287 288 288 289 289 291 291 292 294 298 298 296 294 295 293 294 291 288 289 285 285 286 285 285 284 284 283 283 283 283 283 283 283 283 284 283 284 284 284 284
297 297 296 296 296 298 297 296 297 292 289 287 286 286 286 284 284 286 288 288 290 292 295 294 293 294 293 292 291 291 288 287 285 284 285 284 284 284 284 283 283 283 283 283 284 284 284 284 283 283 283 283 283 283
297 297 297 297 292 294 295 294 290 288 288 288 287 285 285 286 285 285 286 286 290 292 291 290 288 289 291 291 286 286 285 285 283 282 282 283 283 283 283 283 283 283 283 283 283 282 282 282 282 282 281 281 281 281
295 297 297 296 295 294 291 290 288 288 286 284 285 284 284 283 284 285 285 287 290 289 287 286 286 284 285 286 282 283 282 282 282 281 281 282 283 283 283 283 283 283 283 282 282 282 282 282 281 280 280 280 280 279
298 297 297 296 294 293 292 290 288 286 285 284 283 283 283 283 283 284 284 284 285 285 284 283 281 281 281 282 282 282 281 281 280 280 281 281 282 282 282 282 282 282 281 281 281 281 280 280 280 280 279 279 278 277
297 296 296 295 294 293 293 292 289 287 287 285 284 283 282 282 282 283 284 284 284 283 282 281 280 280 282 282 282 281 281 281 281 279 278 279 279 280 280 280 280 280 280 279 279 278 278 278 278 278 278 277 277 276
296 294 294 295 295 295 294 293 290 288 287 287 285 284 283 282 282 282 282 283 282 281 281 281 281 281 283 282 282 282 281 281 280 279 278 277 278 279 279 278 278 278 278 278 278 276 277 276 275 274 275 274 274 273
293 293 293 294 294 294 293 293 292 291 290 289 289 287 285 282 281 281 281 280 280 280 280 280 280 281 281 281 281 281 280 280 280 279 278 278 277 276 276 275 276 275 274 274 274 273 273 273 272 272 272 272 271 270
291 292 292 292 293 293 293 293 293 292 288 287 288 285 282 282 282 281 281 280 279 279 280 280 279 279 279 279 279 279 279 279 278 277 277 276 275 275 274 274 273 273 273 272 272 271 271 271 271 271 271 270 270 269
293 293 293 293 292 287 292 291 291 289 288 284 282 283 282 282 281 280 280 280 279 279 279 279 279 279 278 278 277 277 277 277 276 275 274 275 274 274 273 273 273 272 272 271 271 270 270 270 269 269 269 269 269 268
291 288 291 284 290 284 278 277 279 282 280 280 280 282 279 283 276 276 277 279 279 279 279 278 278 278 277 276 276 276 276 276 276 276 275 274 274 273 272 272 271 271 270 270 270 269 269 268 268 268 268 268 268 267
283 287 286 282 285 284 282 281 280 279 277 278 280 283 282 273 272 277 279 278 279 279 279 279 278 277 276 276 275 275 275 274 274 275 274 273 273 272 272 271 270 270 270 270 269 269 268 268 268 268 268 268 267 267
281 280 285 285 287 286 282 284 283 280 278 280 278 272 271 270 270 277 277 278 279 279 278 278 277 277 276 276 275 275 274 273 273 273 273 272 271 271 270 270 270 270 270 270 269 269 268 268 268 268 268 268 267 267
283 283 278 280 280 281 274 273 273 274 275 280 277 270 269 270 275 277 278 278 278 278 277 277 276 276 275 274 274 274 274 273 272 272 272 272 271 270 270 269 269 269 269 269 269 269 269 268 268 268 267 267 267 266
282 281 280 271 277 278 278 274 276 278 278 279 268 270 276 276 276 277 277 277 276 276 277 276 275 275 275 274 274 273 272 272 272 272 271 271 271 270 269 269 269 269 269 269 268 268 268 268 268 268 267 267 267 267
281 280 277 276 272 275 276 275 276 276 277 276 275 275 275 275 276 276 276 275 275 275 275 275 274 274 274 274 273 272 271 271 271 271 270 270 270 269 269 268 268 268 269 269 268 268 268 267 267 267 267 267 267 267
281 280 278 277 276 276 276 276 276 276 276 275 275 275 275 275 274 275 275 275 275 275 274 274 274 274 273 273 273 272 271 271 270 270 270 269 269 269 268 268 268 268 268 268 268 269 268 268 268 267 267 267 267 267
280 279 277 275 277 278 278 279 278 277 276 276 275 275 275 275 274 274 274 274 274 274 274 273 273 273 273 273 272 271 271 271 270 270 270 269 269 268 268 268 268 268 268 268 268 268 268 268 268 268 267 267 267 267
279 280 279 279 278 278 280 280 280 278 278 277 277 276 276 275 274 274 274 274 274 274 274 273 273 274 273 271 271 271 270 270 270 269 269 269 269 268 268 268 268 269 269 269 268 268 268 268 268 267 267 267 266 266

GFSWCAN_850_thetae_066.txt.gz
Theta_e
297 297 296 296 297 297 298 298 297 297 297 298 298 299 299 299 299 299 300 300 300 300 302 304 304 304 304 303 303 302 303 303 303 304 305 306 302 304 305 308 310 310 310 311 311 314 312 312 312 315 314 311 311 313
296 297 298 299 299 299 299 299 298 298 299 298 298 298 298 298 299 301 300 300 300 300 300 303 304 304 304 304 303 303 304 303 302 301 300 301 301 298 305 307 306 308 308 308 309 308 308 312 311 311 311 312 313 314
298 299 300 300 300 300 301 300 299 300 299 300 298 299 298 299 299 299 298 299 300 299 299 301 301 303 304 303 304 304 304 305 304 304 301 301 302 301 302 304 306 306 307 308 309 308 309 310 310 310 311 312 312 314
299 300 300 300 300 299 299 300 300 300 300 300 300 299 299 299 299 298 298 299 299 300 300 300 300 301 302 303 304 304 304 304 306 306 303 301 302 303 301 303 303 304 305 307 307 307 309 308 311 311 312 313 313 314
300 299 299 300 300 301 301 301 300 300 300 300 300 300 300 299 299 299 298 299 300 300 299 299 300 300 301 301 303 304 305 305 305 306 303 303 303 305 303 306 307 306 306 306 307 307 307 307 310 308 310 311 312 314
300 300 299 300 299 300 300 301 301 300 300 300 300 300 300 300 299 299 299 299 298 299 301 297 301 301 300 300 301 301 304 305 304 305 304 307 308 306 299 303 305 305 304 303 306 306 305 308 308 308 307 308 308 307
299 299 299 301 300 299 300 299 299 300 300 300 300 300 300 299 300 299 299 299 298 299 299 298 297 303 301 302 303 304 305 305 305 305 305 306 306 307 304 303 300 300 299 301 303 304 307 306 305 305 305 304 307 303
299 299 299 300 300 300 300 300 300 300 300 299 300 300 300 299 300 300 301 300 299 299 299 301 302 304 302 304 304 304 305 305 305 305 305 304 306 304 303 296 296 295 296 301 301 301 303 302 302 303 302 303 308 303
300 300 299 300 300 300 300 300 300 300 300 299 299 300 300 300 300 300 301 299 300 301 299 299 301 305 303 304 304 304 304 304 304 304 305 305 299 296 295 293 293 292 293 294 296 299 301 299 299 303 296 298 301 296
299 299 300 300 300 299 300 299 300 299 301 300 300 300 300 301 300 300 301 301 300 301 301 300 299 305 304 302 300 302 302 302 303 305 300 297 295 292 290 290 289 290 291 292 294 296 294 295 294 293 293 292 291 290
299 299 300 300 300 300 299 299 300 300 300 300 300 298 300 300 301 300 298 300 299 300 299 300 300 303 303 302 301 300 302 302 306 304 302 296 294 292 288 288 287 288 288 289 290 290 290 290 290 289 289 289 290 289
298 299 300 300 300 300 300 299 300 300 301 301 299 299 299 299 298 299 298 298 300 301 299 302 302 301 302 303 303 301 304 302 301 296 295 292 291 288 287 286 285 286 286 287 287 286 286 286 286 286 285 285 286 285
297 299 298 299 300 300 300 300 300 300 300 299 297 293 293 288 287 290 300 297 295 294 294 298 301 301 301 301 301 302 303 299 294 292 291 289 288 286 285 284 284 284 284 284 284 284 284 284 284 284 283 283 283 283
296 297 297 298 299 299 300 299 299 298 297 292 290 285 283 282 287 288 289 289 291 292 292 296 299 298 297 298 295 297 293 292 290 289 287 287 286 285 284 283 283 283 282 283 282 283 283 283 282 283 283 283 284 283
297 297 296 297 299 299 298 298 298 298 291 288 288 285 285 287 286 287 287 290 289 291 293 298 295 294 293 293 291 292 289 289 288 284 284 285 284 284 283 283 283 282 282 282 283 283 283 283 283 283 283 283 283 282
297 297 294 294 297 299 298 297 298 292 287 286 285 285 284 284 284 285 286 287 289 292 294 293 294 293 292 290 289 289 288 286 284 284 283 283 283 283 283 283 282 282 282 282 282 282 282 282 282 281 282 282 282 281
297 297 296 293 294 298 297 296 290 287 287 287 285 283 284 284 284 284 285 285 289 290 289 290 289 289 291 288 285 284 284 283 282 281 282 282 282 282 282 282 282 282 282 282 281 281 281 281 281 281 281 280 280 280
297 298 297 295 295 294 292 289 286 285 284 283 283 283 283 283 283 284 284 285 288 287 286 286 285 284 285 285 282 282 281 281 280 280 280 281 282 282 282 282 282 282 281 281 281 281 281 281 280 279 279 279 279 278
297 296 297 294 293 292 291 288 286 284 283 283 283 283 283 282 283 284 284 284 284 284 284 283 281 281 280 281 281 281 280 280 279 279 279 280 280 281 281 281 281 281 281 281 280 280 279 279 279 278 278 278 278 276
295 295 295 294 294 293 291 290 287 285 285 284 283 283 282 282 282 283 283 283 283 282 281 281 280 280 281 281 281 281 280 280 280 279 278 278 279 280 280 280 280 280 280 279 279 279 278 278 277 277 276 276 275 274
294 294 294 294 294 293 292 290 288 286 286 285 284 283 283 282 281 281 281 282 281 281 280 280 279 280 281 281 281 281 281 281 281 280 277 277 278 279 279 278 278 278 278 277 277 276 275 274 273 273 273 273 272 271
293 293 293 293 293 293 291 291 290 289 289 287 287 285 283 281 281 280 280 279 279 278 280 279 279 280 281 280 280 280 280 280 280 279 278 278 277 276 276 275 275 275 275 274 273 273 273 272 272 272 271 271 270 270
292 292 292 293 293 293 292 292 292 290 285 285 286 283 280 280 281 281 280 280 278 278 279 279 279 280 280 279 279 279 279 279 279 278 277 277 276 275 274 274 273 273 273 272 271 271 271 270 270 270 270 269 269 269
293 292 292 292 292 285 291 289 289 287 286 283 282 282 279 281 280 279 278 279 278 278 279 278 279 278 278 278 277 277 276 276 276 275 274 274 274 273 273 272 272 272 271 270 270 270 270 270 269 269 269 269 269 268
291 287 290 281 288 282 277 276 278 281 279 279 280 279 278 282 276 275 275 278 279 278 278 278 279 278 279 278 277 277 276 276 276 276 274 274 273 273 272 272 271 271 271 270 270 270 269 269 269 269 269 269 269 269
282 285 285 280 282 282 281 280 278 278 277 278 279 279 280 274 273 276 277 278 279 279 278 278 278 278 277 276 276 276 276 275 275 274 274 273 273 272 272 271 270 270 270 269 269 269 269 269 269 269 269 268 268 267
280 279 283 283 285 284 279 282 282 277 275 278 276 270 270 269 269 276 277 278 279 278 278 277 277 276 277 276 275 274 274 273 273 272 272 272 271 271 270 270 269 269 269 269 269 269 269 269 269 268 268 268 267 267
281 281 278 278 279 279 271 270 270 273 275 279 275 269 268 269 275 277 277 278 279 278 277 277 276 275 275 274 274 274 273 273 272 272 271 271 271 270 270 270 269 269 269 269 269 269 268 268 268 268 267 267 267 267
279 279 279 271 275 275 274 271 274 276 276 277 267 269 275 275 276 277 277 277 277 277 277 276 275 275 274 274 274 273 272 272 272 271 271 271 270 270 269 269 269 269 269 269 269 268 268 268 268 268 267 267 267 266
279 278 276 274 270 272 274 273 274 275 275 275 274 274 275 275 275 275 275 275 275 275 275 275 274 274 274 273 272 272 271 271 271 270 270 270 270 269 269 269 269 269 269 269 268 268 268 268 268 268 267 267 267 266
279 278 277 275 273 274 275 275 275 276 275 275 275 274 274 274 274 274 274 274 274 274 274 274 274 274 273 273 272 272 271 271 270 270 270 269 269 269 269 268 268 268 268 268 268 268 268 268 268 267 267 267 267 267
279 277 276 273 275 276 277 278 277 277 276 275 275 275 275 275 274 274 274 274 274 274 273 273 273 273 273 272 271 271 270 270 270 270 270 269 269 269 268 268 268 268 268 268 268 268 268 268 268 268 268 267 267 267
279 279 278 278 276 277 278 279 277 277 277 276 276 275 275 275 274 274 274 274 274 273 273 273 273 273 272 271 271 270 270 270 270 270 269 269 269 268 268 268 268 269 269 268 269 268 268 268 268 268 267 267 266 266

GFSWCAN_850_thetae_069.txt.gz
Theta_e
296 297 297 296 297 297 297 297 297 297 298 298 298 298 298 298 297 297 297 299 298 299 301 302 303 303 304 303 304 302 303 303 304 305 306 306 306 307 306 308 310 310 311 312 311 313 312 310 313 314 311 311 311 311
296 297 298 298 299 298 299 298 299 298 298 297 297 298 299 299 299 298 298 299 299 299 300 301 302 303 303 303 303 302 304 303 304 305 304 305 305 304 307 308 307 309 310 312 312 313 310 311 312 310 310 311 311 311
297 299 299 299 300 300 299 299 300 300 299 298 298 298 298 299 299 299 299 300 299 299 299 301 302 303 304 303 303 303 303 304 303 303 303 304 304 304 307 307 308 307 306 309 309 308 309 308 308 310 310 310 311 312
298 299 300 299 299 299 300 300 299 299 299 298 299 298 298 298 299 298 298 299 299 299 301 300 300 303 303 303 303 303 304 304 304 303 304 303 305 303 305 305 306 306 306 308 308 308 308 308 308 307 309 310 311 311
299 299 299 299 298 299 300 300 300 300 300 299 299 299 299 299 299 298 299 299 299 300 300 300 300 302 302 303 303 303 303 304 305 305 303 306 303 306 305 306 307 306 307 309 309 306 306 306 307 306 305 305 305 306
299 299 299 299 299 300 299 300 300 300 299 300 300 300 299 299 298 298 297 298 299 300 300 300 300 300 300 301 303 303 303 304 305 304 304 305 306 306 307 307 305 304 303 303 305 304 304 306 307 305 305 303 303 303
299 299 299 300 300 299 299 299 300 300 300 300 300 300 299 299 299 298 299 299 299 299 299 299 300 302 300 301 301 302 302 301 303 304 303 305 306 306 305 306 299 298 297 300 300 301 305 304 303 303 303 301 300 299
299 299 300 300 300 299 300 299 299 300 300 300 300 300 299 299 298 299 300 299 299 299 299 302 302 303 300 301 302 302 304 303 303 302 303 305 305 305 307 296 294 294 294 297 296 298 298 300 300 300 300 299 297 298
299 299 300 299 300 301 300 299 300 300 300 300 300 300 299 299 299 300 300 299 299 299 299 300 303 305 301 302 303 302 304 304 304 304 305 306 302 303 293 291 290 290 290 292 292 294 297 296 295 294 293 293 291 295
300 300 300 299 299 299 299 300 299 299 300 299 299 300 300 300 299 299 300 300 299 300 301 299 299 304 302 303 302 301 301 304 305 303 299 298 294 290 288 288 288 287 288 289 291 292 291 292 291 290 288 288 287 286
299 299 300 300 300 299 299 299 299 299 300 300 299 300 300 299 300 300 298 299 299 300 299 300 300 302 302 303 303 301 304 302 304 303 301 296 294 290 288 287 286 285 286 287 287 287 287 288 287 286 285 284 283 283
298 297 299 300 300 300 300 299 300 300 300 300 299 299 300 298 298 300 300 299 300 300 298 302 301 301 301 300 303 301 304 302 303 295 294 292 290 287 286 285 284 284 284 284 285 285 285 285 284 283 282 281 281 282
297 297 300 300 300 300 300 300 300 300 300 299 298 293 292 287 287 289 300 296 296 293 293 297 301 300 300 302 302 302 302 297 294 292 290 289 286 285 284 284 283 283 283 283 282 283 283 283 283 283 281 281 282 282
296 297 299 300 299 299 299 299 299 298 297 292 289 285 285 284 287 288 288 289 290 291 292 296 297 297 295 296 294 296 292 292 291 289 288 287 285 284 283 283 282 282 282 281 281 281 281 281 281 281 282 282 283 282
294 295 297 299 296 295 296 296 297 296 291 287 287 285 285 285 285 285 286 288 288 291 293 297 294 293 292 292 291 292 291 289 288 286 285 284 284 283 283 282 282 281 281 281 281 281 281 281 281 281 281 281 281 281
297 295 295 296 299 299 296 296 296 292 286 285 283 283 283 283 283 284 284 286 288 291 292 293 293 292 291 289 288 287 289 286 285 284 283 282 282 282 282 282 281 281 281 281 281 281 281 281 281 280 280 281 280 280
298 297 295 292 294 299 297 296 290 285 285 284 283 282 282 282 282 283 283 284 288 289 289 290 289 289 289 287 285 284 284 283 282 280 281 281 281 281 281 281 281 282 281 281 281 281 280 280 280 281 280 279 279 278
297 297 296 295 295 295 295 288 285 284 283 283 282 283 283 282 283 283 283 284 287 286 286 287 286 285 285 286 284 283 280 279 280 280 280 280 281 281 282 281 281 281 281 281 281 280 280 280 280 279 279 278 278 277
295 295 295 293 293 293 288 286 284 283 282 283 283 283 282 282 282 283 284 283 284 284 284 283 283 283 282 281 281 280 280 279 278 278 278 279 280 280 280 280 280 280 280 280 280 280 279 279 278 278 277 277 276 275
294 294 294 294 294 291 290 287 285 284 284 283 283 282 282 281 281 282 282 283 282 282 281 281 280 279 280 280 281 280 280 279 279 279 278 278 279 280 280 280 280 279 279 279 279 278 277 277 276 275 275 274 274 273
294 294 293 292 292 291 289 288 286 285 285 284 283 283 282 282 281 280 280 281 280 280 280 279 278 280 281 280 280 280 280 280 281 280 279 278 278 279 279 279 278 278 277 276 276 275 274 274 273 272 272 272 271 270
293 293 293 292 292 291 290 289 288 287 287 286 285 283 282 281 280 280 280 278 278 278 279 278 279 280 280 280 280 280 280 280 280 279 279 278 277 276 275 275 275 275 274 273 273 273 272 272 271 271 271 270 270 270
292 292 292 293 292 292 291 290 290 289 286 285 285 282 280 279 280 281 279 279 278 278 279 279 279 279 279 279 279 279 279 279 278 277 276 276 275 274 273 273 273 273 272 272 271 271 271 271 270 270 270 269 269 269
293 292 291 291 291 284 289 287 287 285 285 283 283 282 280 280 280 279 279 278 278 278 278 278 279 279 278 278 277 277 276 276 276 275 274 274 274 273 273 273 272 272 271 271 270 270 270 269 269 269 268 268 268 268
291 285 288 280 287 282 278 276 279 281 280 279 280 279 278 280 278 277 277 278 278 278 278 278 278 278 277 276 276 275 275 275 275 275 274 273 273 272 272 271 271 271 270 270 269 269 269 269 268 268 268 268 268 267
282 283 283 278 281 282 279 278 277 278 278 277 276 277 278 275 275 276 278 278 278 278 278 277 277 277 276 276 276 276 276 275 274 274 273 273 272 272 271 271 270 270 270 269 269 269 269 268 268 268 268 268 267 267
279 277 281 281 283 282 277 280 280 277 275 277 275 271 272 272 270 275 277 278 278 278 277 277 276 277 276 276 275 274 274 273 273 273 272 272 271 271 271 270 270 270 269 269 269 269 269 268 268 268 268 268 267 267
279 279 276 276 277 277 270 271 272 273 276 277 274 269 269 270 275 276 277 278 278 278 278 277 276 276 276 275 274 274 273 272 272 272 272 271 271 271 270 270 270 269 269 269 269 269 268 268 268 268 268 268 267 267
278 277 278 269 273 273 272 270 273 275 275 275 268 271 274 274 275 276 277 277 277 277 277 276 275 275 275 274 274 273 272 272 272 271 271 270 270 270 269 269 269 269 269 269 268 268 268 268 268 268 268 267 267 267
277 277 274 272 268 271 273 272 273 274 275 274 274 273 274 274 275 276 276 276 275 275 275 275 274 274 274 273 272 272 271 271 271 270 270 270 270 269 269 268 268 269 269 268 268 268 268 268 268 268 268 268 267 267
278 277 275 274 272 273 274 274 275 275 275 274 275 274 274 274 274 274 274 274 274 274 274 274 274 274 274 273 272 271 271 271 270 270 270 269 269 269 268 268 268 268 268 268 268 268 268 268 268 268 267 267 267 267
277 276 273 271 274 274 275 277 276 276 276 275 274 274 274 275 274 274 274 274 273 273 273 273 273 273 273 272 271 271 271 270 270 270 269 269 269 268 268 268 268 268 268 268 268 268 268 268 268 268 267 267 267 266
278 277 277 276 275 275 276 277 276 276 276 275 275 275 274 274 273 273 274 274 273 273 273 273 273 273 272 271 271 271 270 270 270 269 269 269 268 268 268 268 268 268 268 269 269 268 268 268 267 267 267 267 266 266

GFSWCAN_850_thetae_072.txt.gz
Theta_e
295 296 296 296 297 298 298 298 297 297 297 298 297 298 298 298 298 298 297 297 296 297 297 299 301 302 303 303 305 304 305 303 303 307 307 307 308 308 307 309 310 311 310 311 312 311 313 312 314 315 314 312 311 312
295 296 297 297 298 298 299 300 298 298 298 299 297 298 298 298 298 298 298 297 298 298 299 300 300 302 303 303 303 303 305 304 305 307 307 307 308 308 307 308 309 312 312 313 312 312 313 313 313 311 312 312 312 313
295 296 297 298 299 299 299 299 300 299 299 299 299 298 298 298 298 298 297 298 298 298 297 298 301 301 302 303 303 303 303 305 305 305 307 307 308 307 309 308 308 308 308 311 310 310 311 309 310 311 310 311 310 310
297 298 298 298 299 299 300 299 299 299 299 299 300 299 298 298 298 298 298 298 297 298 301 301 299 300 302 302 303 302 304 304 304 305 305 307 307 306 308 308 308 308 308 309 309 309 309 308 310 310 309 309 308 306
298 299 299 299 299 300 299 299 299 300 300 299 299 299 298 298 299 298 298 298 298 299 302 301 301 301 302 302 303 304 303 305 305 305 306 308 306 307 308 309 308 307 307 309 309 310 309 308 308 308 307 307 305 303
299 299 299 300 299 300 300 299 299 300 300 299 299 298 299 298 298 297 297 299 299 299 300 303 301 301 302 302 303 302 303 304 304 304 305 304 307 307 309 309 308 308 306 304 307 304 304 305 306 304 304 304 301 299
299 299 299 299 299 300 300 299 299 299 300 300 300 299 299 298 298 298 299 298 299 299 300 302 303 302 302 303 303 304 303 302 302 301 305 306 307 306 308 309 304 301 300 299 300 300 304 304 301 300 301 299 298 296
299 299 300 299 300 300 300 299 300 300 300 300 300 299 299 298 298 299 300 299 299 300 300 303 303 302 302 302 303 302 302 301 301 302 304 306 306 306 309 299 297 295 296 299 295 296 296 297 297 298 297 296 293 291
299 299 300 299 300 299 299 299 299 300 300 300 300 299 297 297 299 300 299 299 299 299 301 301 304 305 301 302 302 302 302 304 302 303 306 306 307 306 293 292 292 291 291 292 292 295 295 294 292 292 292 291 290 287
299 300 299 299 300 299 300 299 299 300 300 300 298 299 299 299 299 298 298 299 300 300 301 304 302 305 302 302 303 303 302 306 308 307 301 303 296 291 290 289 289 288 288 289 291 295 292 292 291 288 287 286 285 283
297 299 300 299 299 300 300 299 300 300 300 300 299 299 299 299 299 299 299 301 299 301 300 302 302 304 302 304 304 302 305 304 306 303 306 302 297 291 288 288 287 287 287 287 288 287 287 287 287 286 284 283 283 283
298 300 300 299 299 299 299 300 300 300 300 300 298 298 299 297 299 302 302 301 302 302 299 303 301 302 300 302 303 302 306 304 306 298 301 299 291 288 287 286 285 285 286 285 285 285 284 284 283 282 281 280 281 282
299 300 300 299 300 300 299 300 300 300 300 299 297 293 294 291 296 300 301 300 300 296 296 298 302 300 300 300 301 304 303 300 297 298 296 292 288 287 286 285 284 284 284 283 282 282 281 281 280 280 280 280 281 281
298 300 300 300 300 300 300 299 299 299 297 292 292 291 291 291 292 292 294 294 292 293 294 298 299 300 298 299 299 300 295 297 297 297 293 289 286 285 284 284 283 282 281 281 280 280 280 280 280 280 281 281 281 281
294 299 298 295 295 296 298 299 299 297 291 289 290 290 290 288 288 288 289 291 290 290 295 298 297 298 296 296 295 296 295 294 292 291 288 286 284 283 283 283 282 281 281 280 280 280 280 280 280 280 280 280 280 280
295 294 297 299 297 295 294 294 295 291 287 286 285 289 287 290 289 288 288 290 288 290 294 296 297 296 293 292 292 291 293 291 288 286 284 283 282 282 281 281 281 281 280 280 280 280 280 280 280 280 280 280 280 280
297 295 292 293 297 297 296 295 289 286 286 286 286 284 285 286 286 286 286 287 287 292 295 294 294 292 291 290 288 286 286 285 283 282 281 281 281 281 281 281 281 281 280 280 280 280 280 279 279 279 279 278 278 277
297 297 296 295 294 296 295 288 286 285 285 285 286 284 284 284 285 285 285 286 289 290 290 290 288 289 289 289 287 284 282 281 280 280 279 280 280 280 281 281 280 280 280 280 280 279 279 279 278 277 277 276 275 274
295 296 295 294 293 293 288 287 286 285 285 285 284 284 284 284 283 283 285 285 285 286 287 286 286 286 285 284 284 283 282 282 281 279 279 279 280 280 280 280 280 280 280 280 280 280 279 278 276 275 275 274 274 273
294 293 293 293 294 290 288 287 286 286 286 285 284 284 284 283 283 283 283 283 284 284 283 284 284 283 283 282 283 282 281 280 281 281 279 278 278 279 279 279 278 279 279 278 278 276 276 276 276 275 274 273 272 271
293 291 292 292 290 289 289 288 287 286 286 286 285 285 284 284 284 283 282 282 282 282 282 281 281 280 280 280 281 281 281 281 282 281 280 278 276 276 277 278 278 278 276 275 275 274 274 273 272 272 272 271 270 269
293 292 292 292 291 290 289 289 288 288 287 287 286 285 285 285 284 282 281 281 281 280 280 281 280 280 279 279 278 278 279 280 280 279 278 277 276 275 275 275 275 274 274 273 273 272 271 271 271 270 270 269 269 269
292 292 293 292 292 291 290 289 290 289 289 288 286 285 284 284 282 282 282 280 279 278 279 278 277 277 277 278 279 279 279 279 278 277 277 276 275 274 273 273 273 272 272 271 271 270 270 270 270 270 269 268 268 268
292 291 290 290 291 289 288 289 288 287 288 288 286 285 284 283 281 282 282 280 279 279 278 277 278 277 277 277 276 277 277 276 276 275 274 273 273 272 272 272 272 271 271 270 270 270 270 270 269 269 269 269 269 268
290 285 287 288 287 288 288 288 287 288 287 286 285 285 283 282 283 282 281 280 279 278 278 277 277 277 277 276 275 275 275 275 274 274 274 273 273 272 272 272 271 271 271 270 270 270 269 269 269 269 269 269 268 268
285 282 286 287 287 289 288 288 287 287 286 284 283 280 281 282 282 282 281 280 279 278 278 277 277 277 276 276 275 275 275 275 274 273 273 273 272 272 271 271 270 270 270 270 269 269 269 269 269 268 268 268 268 268
285 284 282 280 283 284 284 283 283 285 285 284 282 281 281 281 280 279 277 277 277 277 277 277 276 276 276 276 275 274 274 273 273 273 272 272 271 271 270 270 269 270 269 269 269 269 268 268 268 268 268 268 268 268
281 280 282 277 278 278 280 280 281 281 281 279 279 278 279 279 279 277 276 277 278 277 277 277 276 276 276 275 274 274 273 273 272 272 272 271 271 271 270 270 270 269 269 269 269 269 269 268 268 268 268 268 268 268
278 277 277 273 275 276 275 277 278 277 275 277 278 278 276 274 273 274 276 277 277 277 276 276 275 275 275 275 274 273 272 272 271 271 271 270 270 270 270 269 269 269 269 269 269 268 268 268 268 268 268 268 268 268
277 276 275 274 274 276 274 273 274 273 273 274 275 274 274 272 274 276 276 276 276 276 276 275 275 274 274 273 273 272 272 272 271 271 270 270 270 270 269 269 269 269 268 268 268 268 268 268 268 268 268 268 268 267
277 276 276 276 275 274 273 274 274 274 274 273 274 275 274 273 274 275 275 275 275 275 275 275 274 274 274 273 272 272 271 271 271 270 270 270 269 269 269 268 268 268 268 268 268 268 268 268 268 268 268 267 267 267
276 275 276 276 275 274 275 276 276 275 275 276 275 274 274 275 275 274 274 274 274 274 274 274 274 273 273 272 271 271 271 271 270 270 270 269 269 269 268 268 268 268 268 268 268 268 268 268 268 267 267 267 267 266
277 277 277 277 276 276 276 276 276 276 276 276 274 274 274 274 274 274 274 274 274 274 274 273 273 273 272 272 271 271 270 270 270 270 269 269 268 268 268 268 268 268 268 268 268 268 268 267 267 267 267 267 266 266

GFSWCAN_850_thetae_075.txt.gz
Theta_e
293 293 294 295 296 296 297 298 298 298 298 297 297 298 297 297 294 294 295 295 296 297 298 298 299 301 303 303 306 305 306 305 304 309 309 309 309 310 309 310 312 312 312 312 312 314 313 311 313 314 316 315 314 314
293 294 295 295 296 297 297 298 298 299 299 298 297 298 298 298 297 297 297 296 296 297 298 299 298 299 301 303 304 303 305 305 305 307 308 309 310 310 309 310 311 313 311 312 311 312 313 314 314 313 313 313 313 312
293 294 295 296 297 298 299 299 299 299 300 299 298 299 298 298 298 298 297 298 297 298 298 299 300 301 300 301 304 304 304 304 306 306 308 310 310 309 310 309 309 311 311 313 313 314 313 313 311 312 312 311 311 310
294 295 296 298 298 298 299 299 299 299 299 300 298 299 299 298 298 298 297 298 298 298 299 300 300 299 302 302 302 303 303 303 304 305 306 308 309 308 309 309 310 309 310 310 310 310 310 310 311 310 310 310 309 308
297 298 299 299 300 299 299 299 299 300 299 299 299 299 299 298 298 298 298 298 298 299 302 299 300 302 300 300 303 303 304 304 304 304 305 308 307 308 309 309 310 309 309 310 310 311 312 311 308 308 308 307 306 305
298 298 299 299 299 300 299 299 299 300 299 300 300 300 299 299 298 298 298 298 298 298 301 304 302 302 302 301 302 303 304 304 303 303 305 307 307 308 310 309 308 309 308 306 308 306 306 307 306 302 302 301 302 303
298 299 299 300 300 299 299 300 300 299 299 300 300 299 299 299 298 298 299 299 298 298 300 302 304 303 303 303 304 304 303 303 303 302 304 306 307 307 309 309 305 303 303 303 302 301 306 303 302 299 298 299 299 298
299 299 299 299 300 300 300 300 300 299 300 300 300 299 298 298 298 298 299 299 299 299 300 304 305 304 302 303 304 303 300 301 301 303 303 307 307 307 310 301 299 297 299 301 298 298 299 298 297 296 296 295 294 292
299 299 299 300 300 299 299 300 300 300 300 300 300 298 297 297 298 299 299 299 299 300 303 304 305 305 302 303 303 303 304 305 303 304 305 306 308 306 295 294 294 293 293 293 294 298 296 296 295 293 292 291 291 288
297 299 298 299 299 299 299 300 300 300 300 299 298 298 298 298 299 299 300 299 299 300 302 304 304 305 303 303 304 304 303 305 307 305 303 306 297 293 292 292 291 291 291 291 293 295 293 293 292 290 288 287 286 284
299 299 299 300 299 299 300 299 300 300 299 298 299 299 298 298 299 299 299 302 300 304 302 304 303 305 303 305 305 302 305 306 308 306 308 307 299 292 290 290 289 289 289 289 289 289 288 289 289 288 286 284 283 282
300 299 299 299 298 298 299 299 299 301 301 300 298 298 299 299 300 303 303 302 303 304 302 303 303 303 302 302 305 303 306 306 307 303 306 304 293 290 289 288 287 287 287 287 287 286 286 286 285 284 283 282 281 280
300 299 299 300 300 300 300 300 299 299 299 299 298 296 299 296 300 304 302 302 303 300 299 300 302 301 300 301 303 305 307 304 301 304 301 294 289 288 287 286 285 285 285 285 284 283 283 282 281 280 280 279 279 279
299 299 300 300 299 299 299 299 299 298 297 295 296 294 297 297 296 296 298 298 295 296 297 301 302 303 300 301 302 304 299 300 302 302 297 291 287 287 286 285 284 283 282 281 281 280 280 280 279 279 279 279 280 279
298 295 296 299 299 300 299 298 298 297 292 292 293 295 293 291 291 291 292 294 293 294 297 302 302 301 299 299 298 299 299 299 297 296 291 287 285 285 285 284 283 282 281 281 280 280 279 279 279 278 278 279 279 278
295 297 299 295 294 295 297 298 298 293 289 288 289 293 291 295 294 292 293 294 291 293 298 301 301 299 296 296 297 295 298 297 292 289 286 285 284 283 283 282 282 282 281 281 280 280 279 279 279 279 279 279 279 278
297 293 294 298 299 297 296 295 290 289 289 289 289 288 290 290 290 290 290 290 291 296 298 299 298 295 295 295 293 291 291 289 286 284 283 283 283 282 281 281 281 281 281 280 280 279 279 278 278 278 277 276 276 276
297 296 294 294 295 294 292 289 289 289 288 289 289 288 287 288 289 289 289 290 293 294 294 292 292 293 293 293 291 287 285 284 283 283 282 281 281 281 281 281 280 280 280 280 279 279 279 279 278 277 277 276 276 275
296 296 295 295 294 293 290 289 289 288 287 287 287 287 287 287 287 287 288 288 288 289 290 290 290 290 288 287 286 285 285 284 283 282 281 280 280 280 280 280 279 279 279 279 278 278 278 277 277 277 277 277 276 275
294 294 293 292 293 292 290 289 289 289 290 288 288 287 287 286 287 287 286 286 287 287 286 286 287 286 285 285 285 284 284 284 284 283 282 281 280 279 279 280 279 278 278 277 277 277 277 276 275 275 275 275 275 274
293 293 293 293 292 291 291 290 289 289 288 288 288 288 287 287 287 286 286 285 285 285 285 284 283 283 283 283 283 283 283 284 284 285 283 281 279 279 279 278 278 278 278 278 277 276 276 275 274 274 273 273 272 271
293 293 293 292 291 291 290 290 290 289 289 289 289 289 289 288 287 285 285 284 283 283 284 283 283 282 281 281 280 280 279 280 280 280 280 279 279 279 278 278 278 277 277 276 276 275 274 273 273 272 272 271 271 271
292 293 293 293 292 291 290 291 291 291 292 290 289 289 288 288 285 285 285 283 281 281 281 281 280 280 279 279 279 279 279 280 279 279 278 278 277 276 276 276 276 275 275 274 274 274 272 271 271 271 270 271 271 270
292 291 291 293 292 291 291 291 290 290 290 291 289 288 288 287 285 286 285 283 281 281 280 280 281 280 280 280 279 278 278 278 277 277 276 277 276 275 275 274 274 273 273 273 272 272 271 270 270 270 270 270 270 270
291 287 290 291 291 292 292 291 290 291 290 290 289 288 287 286 287 286 285 282 282 281 281 280 281 281 281 279 278 277 276 277 277 276 275 275 275 274 274 273 272 271 271 272 272 271 270 270 270 270 269 270 269 269
288 285 289 291 291 292 292 291 291 291 289 288 287 285 286 287 287 286 284 283 282 281 280 281 281 280 280 279 279 278 276 275 276 276 274 273 274 274 275 274 273 272 270 270 270 271 270 269 269 269 268 269 268 268
288 287 284 284 288 288 290 289 289 289 289 287 287 286 287 286 285 282 280 281 280 279 279 279 279 280 279 277 275 275 275 274 274 274 273 272 272 272 271 272 272 270 269 269 269 269 270 269 268 268 268 268 268 267
283 283 284 282 283 284 285 286 286 286 286 283 284 283 284 284 283 281 279 278 278 277 277 276 276 276 276 275 275 274 274 273 273 272 272 272 271 271 271 270 270 269 269 269 269 269 268 268 268 267 267 267 267 267
282 281 280 278 280 280 280 283 283 280 279 282 283 282 279 277 277 277 276 276 276 276 276 275 276 276 275 275 274 273 272 272 273 272 272 273 272 270 270 269 268 269 268 267 269 269 268 269 268 267 267 267 267 267
281 281 279 278 279 280 277 278 277 276 277 278 277 276 275 274 274 275 275 276 277 276 275 275 274 275 274 274 273 272 272 272 271 271 272 272 271 269 269 268 268 268 268 268 267 267 268 268 268 268 268 266 266 266
281 281 280 279 279 277 277 276 277 277 278 279 279 278 277 275 274 275 275 275 275 275 275 274 274 274 274 273 273 273 272 272 271 271 270 270 269 269 269 269 269 269 268 268 268 268 268 268 267 266 267 267 267 267
280 280 280 279 278 276 277 280 280 280 280 279 278 277 278 279 278 274 275 274 274 275 274 274 274 273 273 272 272 272 271 271 271 270 270 270 269 269 269 269 269 269 269 269 268 268 268 268 268 267 267 267 267 267
281 281 280 280 279 280 278 281 281 280 281 280 278 277 277 279 278 274 274 275 274 274 273 273 274 274 273 272 272 271 271 270 270 270 270 269 269 269 269 269 269 269 269 269 268 268 268 268 267 267 267 267 267 266

GFSWCAN_850_thetae_078.txt.gz
Theta_e
291 292 293 293 294 294 295 296 296 297 297 298 298 297 298 298 298 296 295 296 296 297 298 298 299 299 301 303 305 305 306 306 306 306 307 307 309 310 310 310 312 312 312 313 312 312 313 312 313 314 317 314 314 314
291 293 293 293 294 294 295 296 297 298 298 298 299 298 297 298 298 297 295 296 296 296 297 299 299 299 300 301 302 303 303 305 306 306 307 308 310 312 310 310 312 313 311 312 311 312 312 314 315 314 313 313 312 312
292 293 293 293 294 295 296 298 298 299 299 299 299 299 297 298 298 296 294 295 295 297 297 297 299 300 301 300 300 301 304 305 305 304 307 309 310 310 311 310 310 311 311 313 313 312 313 313 313 312 311 311 310 309
293 294 295 296 297 298 298 298 298 299 299 299 299 300 298 298 298 298 296 295 295 297 297 298 300 299 299 302 302 301 302 303 303 303 303 307 308 308 310 310 310 310 312 312 312 311 311 310 309 310 309 308 307 306
295 297 298 298 298 299 299 300 299 300 300 299 299 300 299 299 298 298 297 297 297 298 301 301 300 301 301 300 301 303 303 304 304 304 305 306 307 309 310 310 309 310 310 311 314 310 311 308 306 306 305 304 304 304
297 299 299 298 299 299 299 300 300 299 299 299 299 300 299 299 298 298 297 297 298 298 299 304 302 301 301 302 301 302 303 304 303 303 303 306 307 308 310 310 308 307 306 306 306 304 307 306 302 301 301 301 301 300
298 298 299 299 299 300 300 300 300 300 299 300 299 299 300 299 298 298 298 299 298 298 300 302 303 303 303 303 302 302 302 304 303 301 302 306 307 307 310 308 303 300 302 302 300 302 306 300 299 297 297 298 297 294
298 299 299 299 299 299 299 299 300 300 300 299 299 300 300 299 299 299 299 299 298 299 300 302 305 304 303 304 304 304 303 302 302 303 303 306 306 307 308 301 299 297 299 298 297 299 299 298 297 295 295 295 295 291
298 299 299 299 299 300 299 300 300 300 299 300 300 300 299 298 298 298 299 299 299 299 301 303 305 306 303 303 303 303 302 303 302 305 306 306 307 302 296 295 294 293 294 294 295 297 296 296 294 292 290 290 289 287
299 299 299 299 300 299 300 300 299 300 300 300 299 298 297 298 298 299 300 299 299 300 302 304 304 305 304 304 305 304 304 305 306 305 305 305 298 294 294 293 292 291 292 291 292 292 292 292 292 289 287 286 285 284
300 299 300 299 300 299 299 300 300 300 300 298 299 299 298 299 299 299 298 300 299 302 302 304 304 304 304 305 305 304 305 305 306 306 306 305 298 293 291 290 289 289 289 289 289 288 288 289 289 287 285 284 283 282
299 299 299 299 299 299 299 299 299 299 299 300 299 298 298 299 299 302 303 302 303 304 303 305 304 304 303 303 304 302 304 305 307 304 308 300 293 290 289 288 287 287 287 286 286 286 285 285 285 284 282 281 281 280
299 300 299 299 298 299 299 299 299 299 299 299 299 297 299 298 303 304 303 304 303 301 300 302 303 301 302 302 303 305 305 305 302 305 299 294 290 288 287 287 285 284 284 284 283 282 282 281 281 280 280 279 279 279
300 299 299 300 299 299 299 298 299 298 299 297 298 296 299 298 297 296 298 299 296 298 299 302 301 303 300 302 302 305 300 301 304 304 295 290 288 287 286 285 284 282 282 281 281 280 280 279 279 279 279 279 279 279
297 299 300 299 298 297 297 296 296 295 294 294 295 296 294 293 293 294 295 296 295 296 299 302 302 301 301 300 300 300 301 301 297 294 291 287 286 286 285 284 283 282 282 281 280 280 279 279 279 278 278 279 279 279
297 296 296 299 298 299 299 298 298 293 291 291 291 295 294 296 295 294 295 295 294 297 299 302 302 299 298 299 298 297 300 297 292 290 287 285 284 283 283 283 282 282 281 281 280 279 279 279 279 279 279 279 279 278
296 296 298 298 297 296 296 297 293 290 290 290 290 290 293 292 292 292 292 293 295 297 300 301 299 296 297 296 294 291 291 289 287 285 284 283 283 282 282 282 282 281 281 281 280 280 279 279 279 278 278 277 277 276
298 294 296 297 295 294 294 291 291 290 290 291 291 290 289 290 291 290 290 292 295 296 295 294 295 294 293 295 291 287 286 285 285 284 283 282 282 282 282 281 281 281 281 280 280 280 279 279 279 278 278 277 276 276
297 296 295 296 296 294 292 291 291 290 290 290 289 289 289 289 288 289 289 290 290 291 292 291 291 291 290 288 287 286 285 285 284 283 282 281 281 281 281 281 280 280 280 280 279 279 279 279 278 278 278 278 277 276
296 296 293 295 295 293 292 291 291 291 291 289 289 289 289 289 289 288 287 288 288 288 287 288 289 288 288 287 287 286 285 284 284 284 283 281 281 281 281 281 280 279 279 279 278 278 278 277 276 276 277 276 276 275
293 292 294 295 293 293 292 291 291 290 290 290 289 289 289 288 288 288 287 286 286 286 286 286 285 284 284 285 285 284 284 285 284 286 283 282 281 280 280 279 279 280 279 279 278 277 277 276 276 275 275 274 273 273
294 294 294 292 292 292 291 291 291 291 291 290 291 291 291 289 288 286 286 285 284 285 285 284 283 283 282 282 281 281 281 282 281 282 281 281 281 280 280 279 280 279 278 278 278 277 276 275 274 274 273 272 273 272
294 294 293 293 292 292 291 292 292 292 292 291 291 291 290 289 287 287 285 283 283 283 282 282 282 281 281 281 281 281 281 281 281 280 280 279 279 278 278 277 277 277 277 276 275 275 274 272 272 272 272 272 272 271
292 291 293 294 292 292 292 292 292 292 292 292 291 290 290 288 288 287 286 284 282 282 282 282 282 281 281 281 280 279 279 279 279 278 278 278 278 277 276 276 275 274 274 274 274 273 273 272 271 272 271 272 272 272
292 288 291 293 293 293 292 292 292 293 292 291 290 290 289 289 290 288 286 283 283 283 282 282 283 283 282 281 279 278 278 279 279 277 277 277 277 276 275 274 274 273 273 274 273 273 272 271 271 271 271 271 271 270
289 287 291 293 293 294 293 293 293 292 291 289 288 288 289 290 289 287 286 284 283 282 282 283 282 282 282 281 280 279 277 277 277 277 275 275 275 275 276 276 275 273 272 272 272 272 272 270 270 270 270 270 270 269
290 289 287 287 291 291 292 291 291 291 290 289 289 289 289 288 286 284 283 283 282 281 281 281 282 282 280 278 276 276 276 275 276 275 273 273 273 273 273 273 273 272 271 270 270 270 271 271 270 269 269 269 269 269
285 286 286 286 286 287 288 289 289 288 287 286 287 286 287 286 285 282 281 280 280 279 279 278 278 278 277 276 275 275 274 273 274 274 274 274 274 273 272 271 270 270 270 269 269 269 269 269 269 269 269 268 268 268
285 283 281 280 283 282 282 285 284 281 281 285 286 284 280 280 279 279 279 278 278 278 277 276 276 276 275 275 274 274 274 274 275 273 274 274 274 272 272 270 269 269 268 268 269 269 269 269 268 268 268 268 268 268
284 283 282 281 281 281 280 280 280 279 280 279 278 277 277 278 277 277 278 278 278 278 277 276 276 276 275 275 273 273 273 273 272 272 273 273 272 271 270 269 268 268 268 268 268 268 268 268 268 268 268 268 267 267
284 284 282 281 280 279 279 280 280 281 280 280 279 278 277 276 275 276 277 277 276 275 275 275 275 275 275 275 275 274 274 274 272 271 271 270 270 269 269 269 269 269 268 268 268 268 268 268 267 267 267 267 267 267
284 283 281 280 279 279 280 283 282 281 281 281 280 280 280 280 279 275 275 275 276 276 276 276 275 274 274 273 273 272 272 272 272 271 271 270 269 269 269 269 269 269 269 269 268 268 268 268 268 267 267 267 267 267
283 282 281 281 280 282 281 283 283 283 282 282 281 281 280 281 279 274 275 276 276 275 275 275 275 275 273 273 273 272 272 271 271 271 270 270 269 269 269 269 269 269 269 269 268 268 268 268 268 267 267 267 267 267

GFSWCAN_850_thetae_081.txt.gz
Theta_e
293 292 291 291 292 293 293 294 294 295 296 296 297 298 298 298 298 298 296 295 295 297 297 297 298 298 299 300 301 303 302 302 304 301 304 303 303 307 309 310 311 309 309 308 308 309 310 311 313 315 314 313 312 311
291 291 290 290 292 293 293 294 294 295 295 297 297 298 298 298 298 298 296 296 295 296 297 297 297 296 297 298 300 301 300 302 305 304 303 304 303 305 308 311 310 312 310 309 309 308 312 313 314 312 312 311 310 309
290 290 291 292 293 294 294 294 295 296 297 298 299 298 298 299 298 298 298 297 296 297 296 296 296 297 299 299 300 300 301 302 304 303 302 305 307 308 308 308 311 311 309 312 310 312 311 310 309 308 308 307 307 307
289 291 292 294 295 296 296 296 297 297 298 298 299 299 299 299 297 297 298 296 296 295 294 295 296 297 297 300 301 301 300 300 302 303 302 303 307 306 308 307 309 310 311 310 311 310 309 306 305 305 305 305 305 304
290 292 294 296 298 299 298 298 299 298 298 299 299 299 299 299 298 297 298 297 296 295 297 298 298 299 299 301 299 301 302 301 303 303 303 305 305 306 307 308 310 307 307 311 309 304 306 303 303 303 302 301 302 300
291 294 296 297 298 298 298 298 298 298 299 299 299 299 299 299 298 297 296 296 296 295 296 298 301 301 301 300 300 301 302 303 303 302 302 303 305 307 304 309 303 301 301 300 300 303 300 299 299 299 299 298 297 297
294 296 297 298 298 298 299 299 299 299 299 300 299 299 299 299 298 298 298 298 297 297 298 300 299 302 301 302 301 300 302 303 302 302 302 302 305 305 304 306 299 297 300 297 298 301 300 297 296 296 297 294 293 290
296 297 298 298 298 299 298 298 299 299 299 299 299 299 299 299 298 298 299 299 298 297 298 299 299 302 302 302 302 302 302 302 302 302 302 303 305 305 302 297 295 294 295 295 296 297 297 295 294 293 294 292 290 287
297 297 298 298 299 299 299 299 299 299 299 300 299 299 299 298 298 298 299 299 297 298 300 298 300 304 303 303 303 301 302 302 302 302 303 304 303 295 295 293 292 292 292 292 293 293 293 292 290 289 288 288 286 285
297 299 299 299 299 299 299 299 300 299 300 299 299 299 297 298 298 298 299 298 299 299 300 299 302 303 303 303 302 302 302 303 304 303 304 301 296 292 291 290 289 289 290 290 290 290 290 290 288 286 285 284 284 283
298 299 299 299 299 299 299 300 299 299 299 299 299 299 298 298 298 299 297 299 298 299 300 302 302 303 303 303 303 303 303 302 303 302 302 300 295 291 288 288 287 287 287 288 288 287 287 288 286 284 283 282 282 281
298 298 299 299 300 299 299 299 299 299 299 299 299 298 298 299 299 300 301 300 300 300 302 300 303 303 303 303 301 301 302 301 303 302 304 295 291 288 287 286 285 286 285 285 285 284 284 284 284 283 282 281 280 280
299 298 298 299 298 298 298 299 300 299 298 298 299 298 299 297 301 303 299 299 302 301 301 303 301 301 301 302 301 302 302 303 300 302 293 290 288 287 286 285 284 283 283 282 282 281 282 281 281 281 280 280 280 279
299 298 298 298 299 298 298 298 299 299 298 297 297 293 297 297 294 294 297 298 296 299 301 301 301 300 300 300 298 303 299 299 302 298 289 287 287 286 285 284 283 281 281 280 280 280 280 279 279 279 279 279 279 279
298 298 298 298 298 298 298 298 298 297 294 294 295 294 292 293 294 295 296 296 296 298 301 301 299 300 296 295 294 295 297 296 293 287 284 285 285 284 284 283 282 282 281 280 280 279 279 279 279 278 278 279 279 278
297 297 298 299 298 298 297 296 296 294 291 290 291 294 294 294 292 293 294 295 295 299 301 301 299 296 297 296 297 292 296 289 286 285 285 284 284 283 283 282 282 281 281 280 280 279 279 279 279 279 278 279 278 278
296 295 294 295 294 294 295 295 295 291 291 290 290 290 292 292 292 291 292 293 296 298 295 297 297 296 296 295 289 286 284 284 285 284 284 283 282 282 282 282 281 281 280 280 279 279 279 279 278 278 278 278 278 277
296 298 296 295 295 296 295 292 290 290 290 290 289 289 289 290 290 290 290 292 295 295 294 293 294 288 286 290 285 285 285 285 284 283 282 282 282 282 281 281 281 281 280 280 280 280 279 279 279 278 278 277 276 276
294 297 297 296 296 295 292 291 290 290 289 289 289 288 288 288 288 289 289 290 291 292 291 290 286 286 285 287 286 285 284 283 283 282 282 281 281 281 281 281 280 280 280 280 280 280 280 279 279 278 278 277 276 276
296 295 296 295 295 292 292 292 291 291 291 290 289 289 289 289 288 287 287 288 288 287 286 286 286 287 287 286 286 285 284 283 282 282 281 281 281 281 281 280 280 280 279 279 279 278 278 277 277 277 277 277 276 275
293 294 295 294 293 293 292 291 291 290 290 290 289 289 288 287 287 286 285 286 285 286 286 284 283 285 285 285 285 285 285 284 284 283 282 281 280 280 280 280 280 280 279 279 278 278 277 276 275 275 275 274 274 273
294 294 293 293 292 292 291 291 291 290 291 291 291 291 290 289 287 286 285 284 284 285 284 283 283 283 283 283 282 283 282 282 283 282 281 280 280 280 279 279 279 278 278 277 277 276 276 275 274 273 273 272 272 272
294 294 293 292 291 291 291 292 293 292 290 291 291 291 290 288 287 286 284 283 282 282 282 282 281 281 281 281 281 281 281 280 280 280 279 279 278 278 277 277 277 277 276 276 275 275 274 274 273 273 272 272 272 272
292 292 293 293 292 291 292 292 292 292 292 292 290 290 288 288 288 286 284 283 282 281 281 281 281 281 281 280 279 279 279 279 279 278 278 278 277 276 276 275 275 275 275 274 274 273 273 272 272 272 272 272 272 272
291 289 292 288 292 289 287 289 290 291 288 289 288 286 285 289 285 284 282 283 282 282 282 282 282 282 281 280 279 279 279 279 278 277 277 277 277 276 275 275 275 274 273 273 273 273 272 271 271 271 271 271 271 271
284 287 289 290 291 289 290 287 287 287 286 285 285 288 289 286 283 284 284 284 283 282 282 283 282 282 281 280 278 278 278 278 278 277 276 275 276 276 276 275 275 274 273 273 272 272 272 271 271 270 270 270 270 270
284 284 287 289 291 292 289 291 290 287 285 284 284 283 281 279 279 283 283 283 282 282 282 282 282 281 280 280 279 278 277 277 278 276 274 273 274 273 273 274 274 273 272 271 271 271 271 270 269 269 269 269 269 269
285 286 281 286 285 286 283 283 283 282 282 286 285 279 279 278 281 283 281 281 281 281 281 281 280 280 279 278 277 275 274 274 274 274 274 274 274 273 273 272 271 270 270 270 269 269 269 270 270 269 269 268 269 268
284 283 282 277 281 281 281 281 281 281 281 284 277 277 280 280 280 280 280 280 280 280 279 279 278 277 277 276 275 275 275 274 274 273 274 274 273 272 272 271 270 270 270 270 269 269 269 269 268 268 268 268 268 268
284 283 281 280 275 278 280 281 279 279 280 280 279 279 278 278 278 278 278 278 278 277 277 277 276 276 276 275 274 274 273 273 272 273 273 273 273 271 271 270 270 270 269 269 268 268 268 268 268 268 268 267 267 267
284 283 281 280 278 280 280 280 279 279 278 278 278 277 276 277 277 278 278 278 278 277 276 276 276 276 275 275 275 275 274 273 272 272 271 271 271 271 270 270 270 269 269 269 269 269 269 268 268 268 268 267 267 267
283 282 279 277 279 280 281 281 280 280 280 279 278 277 279 278 276 276 276 276 276 276 276 275 275 275 275 273 273 273 273 272 272 271 271 271 270 270 270 270 270 270 269 269 269 269 269 268 268 268 267 267 267 267
281 280 280 280 280 281 282 283 283 282 282 281 280 280 280 279 276 275 275 276 277 276 276 276 276 275 274 273 273 273 273 272 272 271 271 270 270 270 270 270 270 269 269 269 269 268 268 268 268 268 268 268 267 267

GFSWCAN_850_thetae_084.txt.gz
Theta_e
290 290 291 292 292 291 291 291 292 293 293 294 295 296 297 297 298 298 297 296 294 295 295 297 297 298 298 299 301 300 298 300 303 301 302 303 301 304 306 307 308 309 309 306 306 307 308 311 313 314 312 309 309 309
290 290 292 292 291 290 290 292 292 293 294 294 294 295 297 297 298 298 298 297 296 294 296 296 296 296 296 296 297 299 299 300 302 305 302 303 301 300 305 307 309 310 310 309 307 306 309 310 311 310 309 308 307 307
290 292 292 291 290 290 291 293 294 294 294 294 295 297 297 297 298 298 298 298 296 297 295 295 295 296 297 298 297 299 300 300 299 299 301 302 304 306 305 307 310 306 306 310 310 309 308 307 306 305 305 305 304 305
291 291 291 289 289 292 294 296 296 296 296 296 297 297 299 298 298 298 298 298 297 296 295 295 296 296 296 296 296 299 300 300 300 301 301 302 302 305 304 306 307 307 309 308 309 307 306 304 302 302 301 303 304 302
291 290 290 289 292 294 296 298 298 298 297 297 297 298 299 299 299 298 297 297 297 296 295 296 297 296 297 298 299 300 299 301 300 302 301 301 302 305 305 306 304 302 304 306 305 300 303 299 300 301 301 300 298 298
290 289 288 292 294 296 297 298 298 298 298 298 298 299 299 299 298 297 296 296 297 296 295 295 298 298 300 300 299 300 299 300 302 302 301 302 303 304 305 307 298 298 297 297 300 299 298 297 297 297 296 295 295 295
288 289 292 294 296 297 297 298 298 299 298 298 299 299 299 299 298 296 297 297 297 296 296 297 296 300 302 300 300 300 299 301 302 302 302 301 302 304 303 302 296 294 295 296 299 300 296 296 293 294 295 293 293 290
290 293 295 296 296 297 297 298 298 298 298 299 299 299 299 299 298 297 299 299 296 296 297 298 295 301 301 301 301 301 301 302 301 301 302 303 303 301 298 295 292 292 294 293 294 294 294 293 293 292 291 290 289 287
293 296 296 297 297 298 298 298 298 299 298 298 299 299 299 299 298 298 298 298 296 297 297 298 297 298 302 302 301 301 301 301 300 301 302 301 297 293 292 290 289 289 290 290 292 292 292 291 290 289 288 287 287 284
295 296 298 299 299 298 298 298 298 298 299 299 299 300 296 298 298 298 297 297 297 299 299 299 300 301 301 301 301 301 300 301 302 302 302 296 293 290 289 288 288 288 288 289 289 289 289 288 287 286 285 284 284 283
297 298 298 298 298 298 299 299 299 298 299 299 298 298 298 298 298 298 297 297 298 298 297 299 301 302 302 302 301 301 302 301 303 301 302 298 293 289 287 286 286 286 286 286 286 286 287 286 284 283 281 281 281 281
298 299 299 299 299 299 300 299 300 299 299 299 299 298 298 299 298 298 298 298 297 297 299 298 301 302 300 301 301 301 299 302 302 302 296 290 289 287 286 285 284 284 284 284 284 283 282 283 283 282 281 280 280 280
298 299 300 299 298 298 299 299 299 299 299 299 299 299 298 297 299 299 300 300 299 300 302 302 300 300 301 301 301 300 301 301 300 294 290 288 288 286 285 284 283 282 282 282 281 281 281 281 281 280 280 279 279 279
298 298 298 299 298 299 299 299 299 298 298 297 295 290 296 290 288 290 294 297 297 299 301 300 299 300 300 298 296 301 295 296 297 290 289 285 285 285 284 283 282 281 281 280 280 280 280 280 279 279 279 279 279 279
298 298 298 298 298 298 298 298 298 296 294 293 294 289 286 291 293 295 296 296 297 300 301 300 298 299 295 295 294 294 296 293 290 285 281 285 285 284 283 282 282 281 280 280 279 279 279 279 279 278 278 278 278 278
297 297 298 298 298 298 298 298 297 293 291 291 291 292 293 290 290 293 294 294 296 300 301 300 294 292 292 292 291 288 293 287 283 280 283 284 283 283 283 282 281 281 280 280 279 279 279 279 279 278 278 278 278 277
297 298 298 298 295 295 297 296 293 291 290 290 289 290 291 291 290 290 291 294 297 298 292 293 293 294 294 289 285 282 279 278 283 283 283 283 283 282 282 281 281 281 280 280 280 279 279 279 279 278 278 277 277 276
295 295 295 296 296 294 296 293 290 289 289 289 288 288 288 289 289 290 290 295 295 294 293 291 290 286 282 284 281 281 284 284 284 283 282 282 282 281 281 281 281 280 280 280 280 279 279 279 278 278 277 277 276 275
296 295 294 294 294 294 292 291 290 289 289 288 288 288 288 288 288 288 290 290 291 291 290 288 284 282 281 284 283 283 283 283 282 282 282 282 281 281 281 280 280 280 280 280 279 279 279 279 278 278 278 276 276 275
295 295 294 294 294 293 292 291 290 290 290 289 289 289 289 287 287 287 288 289 289 286 285 283 282 285 285 285 285 284 283 283 282 281 281 280 281 280 280 280 280 280 279 279 279 278 278 278 278 277 277 277 276 275
294 294 294 295 293 292 291 290 290 289 289 288 288 288 287 287 286 285 284 285 284 284 283 283 283 284 285 285 284 284 283 282 282 282 281 281 280 280 280 280 280 279 279 278 278 278 277 277 276 275 275 274 274 273
294 295 293 293 291 291 291 290 290 290 290 289 290 290 289 287 286 284 284 283 283 283 283 282 283 283 283 283 283 284 284 284 283 282 281 280 280 279 279 279 279 279 278 278 277 276 276 275 274 274 273 272 272 272
294 294 292 292 291 291 290 292 292 291 289 290 291 289 287 287 286 284 283 282 281 282 282 282 282 282 282 281 281 281 281 282 281 280 280 280 279 278 278 278 277 277 276 276 275 275 274 274 273 272 272 272 271 271
293 292 293 292 291 289 292 292 292 291 291 290 288 288 286 287 286 283 281 282 281 281 282 281 281 281 281 281 280 280 279 279 279 278 278 278 277 277 276 275 275 275 275 274 274 273 273 272 272 271 271 271 271 271
291 289 291 285 292 286 284 284 287 288 286 286 285 283 283 288 282 280 276 281 281 281 281 281 281 281 280 279 279 279 279 279 278 278 277 277 276 276 275 275 275 274 274 273 273 273 272 271 271 271 271 271 270 270
283 287 288 284 287 287 286 284 283 284 283 282 282 288 288 280 279 280 281 282 281 282 282 282 281 281 280 279 279 278 279 278 278 277 276 276 276 276 276 275 275 274 274 273 272 272 272 271 270 270 270 270 270 270
281 281 287 288 289 290 286 289 288 284 280 281 280 278 275 274 274 280 283 282 282 282 282 282 282 282 281 280 279 279 277 277 277 277 274 274 274 273 273 273 274 273 272 272 270 270 270 270 270 270 269 269 269 269
284 285 281 282 283 283 277 278 277 278 277 284 281 275 274 274 278 282 281 282 282 282 282 282 282 281 280 279 277 276 275 275 274 274 274 274 274 274 273 271 271 271 270 270 270 269 269 269 269 269 269 269 269 268
282 282 282 275 279 279 280 277 277 280 280 282 272 272 278 279 280 280 281 281 281 281 281 281 279 279 278 277 276 275 275 275 275 274 274 274 273 273 272 271 270 270 270 269 269 269 269 269 268 268 268 268 268 268
283 281 279 277 273 275 279 279 278 279 280 279 278 278 278 278 279 280 280 280 280 279 279 279 278 277 277 276 275 274 274 273 273 273 273 273 273 272 271 270 270 269 269 269 269 269 269 268 268 268 268 268 268 268
283 281 279 278 278 279 278 277 278 278 278 277 277 276 276 277 278 278 278 278 278 278 277 277 276 276 276 275 275 274 274 273 273 272 272 271 271 270 270 270 270 270 269 269 269 269 269 269 269 268 268 267 267 267
281 280 278 275 279 279 280 280 278 278 277 277 277 277 277 277 275 276 276 276 276 276 276 276 276 276 275 274 273 273 273 272 272 271 271 271 270 270 270 270 269 269 270 270 269 269 269 269 269 268 268 268 268 267
280 280 280 280 279 280 281 282 281 280 280 279 279 279 278 277 275 275 275 276 276 276 276 276 276 275 274 273 273 273 273 272 271 271 271 270 270 270 270 270 270 270 269 269 269 269 269 269 269 268 268 268 267 267

GFSWCAN_850_thetae_087.txt.gz
Theta_e
290 290 290 290 290 292 293 292 291 290 291 292 293 294 295 296 297 298 298 297 296 293 293 296 296 295 296 298 297 298 297 297 301 302 302 302 301 303 305 305 307 306 306 305 306 308 308 310 311 311 309 308 308 308
289 290 289 290 291 292 292 291 290 290 292 293 293 294 294 296 297 297 298 297 296 295 294 296 294 295 297 296 296 298 298 298 300 303 303 303 302 298 304 304 307 303 305 309 307 306 308 307 307 307 307 307 306 305
289 289 290 290 291 292 291 290 290 291 292 293 294 294 294 295 296 297 298 298 296 295 295 295 294 295 296 296 296 296 298 299 299 299 299 302 302 303 302 303 306 305 303 306 308 309 307 305 303 303 303 300 300 300
289 289 290 291 292 291 289 290 293 294 294 295 295 295 295 296 297 298 298 298 297 296 296 296 296 296 296 295 296 297 297 298 300 300 300 301 302 302 302 304 306 304 303 306 306 304 302 301 301 300 301 300 300 298
289 289 290 291 291 290 289 292 294 296 298 297 296 296 297 298 299 298 298 298 297 297 295 295 296 296 296 296 296 295 296 297 300 300 300 301 300 304 303 305 300 299 300 302 304 299 299 296 298 299 301 300 298 295
289 289 290 291 290 288 292 295 296 298 298 297 297 297 298 299 299 298 297 297 297 297 296 293 296 297 299 297 297 296 297 300 300 301 301 301 302 304 299 302 297 296 296 297 299 297 296 295 295 297 297 295 294 293
289 290 290 290 288 292 294 296 297 297 298 298 298 299 299 299 299 297 296 296 296 297 296 295 295 299 300 299 298 298 297 299 300 301 300 301 301 303 302 301 294 294 294 294 296 297 296 295 292 292 293 292 292 292
290 290 289 289 293 294 295 296 297 297 298 298 298 298 299 299 298 297 298 298 296 296 295 296 296 298 300 300 300 299 299 300 300 299 301 302 302 299 297 293 291 292 293 292 293 293 293 292 292 291 291 290 290 288
289 289 290 293 294 295 296 296 297 297 298 298 299 299 299 298 297 298 298 297 296 297 296 297 296 295 301 300 300 300 300 295 300 297 299 301 298 294 290 290 289 289 289 290 291 291 291 291 290 289 288 287 286 284
288 290 293 294 295 296 297 297 297 298 298 298 298 298 297 298 298 297 296 296 296 297 298 297 298 299 300 300 300 300 300 295 302 300 301 296 290 289 288 288 287 287 287 288 289 289 288 288 288 287 286 284 284 283
291 294 295 297 298 298 298 298 298 298 298 298 298 297 298 298 297 297 296 297 297 298 297 298 298 299 300 300 298 300 300 300 302 298 303 295 291 288 287 286 285 285 285 285 285 286 286 286 285 284 283 282 282 281
295 298 299 299 298 297 298 298 298 298 299 298 299 298 298 298 298 298 297 297 297 297 296 297 300 301 300 300 300 300 300 301 301 299 295 288 288 286 286 285 284 284 283 283 282 282 282 283 283 282 282 281 281 281
298 299 299 298 298 298 299 299 298 298 299 298 299 298 298 297 298 293 297 298 297 298 298 301 300 300 300 299 299 297 300 298 299 293 288 286 287 285 284 283 282 282 282 281 280 280 280 281 281 280 280 279 280 280
298 299 298 298 298 299 299 299 298 298 299 298 296 293 296 287 288 289 290 295 297 299 300 300 298 298 299 296 298 301 297 295 293 288 286 284 284 283 283 282 282 281 281 280 280 280 280 280 279 279 279 278 279 278
298 298 298 298 298 298 298 298 298 297 295 293 293 288 286 290 292 294 295 297 297 299 300 299 297 298 293 294 292 291 293 289 289 286 280 284 284 284 283 282 281 281 280 280 280 280 280 279 279 279 278 278 278 278
297 298 298 298 298 298 299 299 297 294 292 291 291 292 291 288 290 292 295 295 297 300 299 298 293 291 292 290 290 287 293 290 283 279 283 284 284 283 282 282 281 280 280 280 280 279 279 279 279 279 278 278 278 278
296 296 296 297 297 297 296 296 292 290 290 289 288 289 290 290 289 290 292 295 297 298 293 291 290 292 291 288 287 283 280 276 281 283 284 283 283 282 282 281 281 280 280 280 280 279 279 279 278 278 278 277 277 276
297 296 297 296 297 297 298 292 290 289 288 288 288 288 287 288 289 289 291 294 294 293 292 289 289 285 283 286 280 278 282 282 283 283 282 282 282 281 281 281 281 280 280 279 279 279 278 278 278 278 277 277 277 276
295 297 297 294 294 294 292 290 290 288 288 288 288 288 287 287 288 289 289 290 291 291 289 287 283 281 278 281 280 283 283 283 282 282 282 281 281 281 281 280 280 280 280 280 279 279 278 278 278 278 277 277 276 276
293 294 294 293 293 292 291 290 290 289 288 289 289 288 287 286 286 287 289 290 290 286 283 280 279 283 284 284 285 284 284 283 282 281 281 281 281 280 280 280 280 280 279 279 279 278 278 278 277 277 276 276 276 275
294 293 293 293 292 291 290 290 289 289 288 288 288 287 287 286 285 285 284 285 284 283 281 282 283 285 285 284 284 283 283 283 283 282 282 280 280 280 280 280 279 279 279 278 278 278 277 277 276 275 275 274 273 273
293 293 293 292 291 291 290 290 290 289 289 289 289 288 287 286 284 283 283 283 282 282 282 283 284 284 284 284 283 283 283 282 282 281 281 280 280 279 279 279 279 279 278 278 277 276 275 275 274 274 273 272 272 271
294 295 293 292 291 291 290 291 291 291 286 289 290 287 285 286 284 284 282 282 282 283 283 283 283 283 283 283 283 283 283 283 282 281 280 280 279 279 278 278 277 277 276 276 275 275 274 273 273 272 272 272 271 271
294 292 292 291 292 289 292 291 291 291 290 288 287 286 285 286 284 281 279 281 281 281 282 282 282 281 281 281 281 280 280 280 280 279 278 278 277 277 276 275 275 275 274 274 274 273 273 272 271 271 271 271 271 271
292 289 290 285 291 286 284 283 286 287 284 285 283 283 283 287 279 276 277 281 281 281 281 281 281 281 281 280 279 279 279 279 279 278 278 277 277 276 276 275 275 275 274 274 273 273 272 272 271 271 270 270 270 270
283 286 287 283 285 286 284 284 283 283 282 281 280 286 286 276 275 276 280 281 281 280 280 281 280 280 280 279 279 279 279 279 278 277 277 276 276 275 275 275 275 274 274 273 273 272 271 271 271 271 270 270 269 269
280 280 286 286 288 288 284 287 286 282 279 280 280 277 274 273 274 279 281 281 281 281 281 281 281 281 281 279 279 278 278 278 277 277 276 274 274 274 273 273 273 273 273 272 271 270 270 270 270 270 269 269 269 269
283 283 283 281 281 282 276 277 277 277 276 282 280 273 273 275 277 281 282 281 282 282 282 282 282 281 280 280 279 279 277 277 276 275 274 274 274 274 273 272 271 271 271 270 270 270 269 269 269 269 269 268 268 268
281 281 281 274 278 279 278 275 276 279 279 280 271 271 277 278 279 281 282 282 282 282 282 282 281 280 280 279 277 276 275 274 274 275 274 273 273 273 272 271 271 270 269 269 269 269 269 269 268 268 268 268 268 268
281 280 278 277 273 275 277 277 278 278 279 278 278 277 277 277 279 281 281 281 281 281 281 280 280 279 278 277 276 275 274 274 273 273 273 273 272 272 271 271 270 270 270 269 269 269 269 268 268 268 268 268 268 268
280 279 278 278 276 276 276 277 277 278 278 277 277 276 276 277 277 278 278 278 279 279 279 278 277 276 276 275 275 274 274 273 273 272 272 272 271 271 271 270 270 270 270 270 269 269 269 269 269 268 268 268 268 268
280 278 277 273 278 278 278 278 277 277 277 277 277 277 277 277 276 276 276 276 277 277 277 277 276 276 275 274 274 273 273 273 272 272 272 271 271 271 270 270 270 270 270 270 269 269 269 269 269 269 268 268 268 268
279 279 280 279 278 278 279 280 279 279 278 278 278 278 277 276 275 275 276 276 276 276 276 276 275 275 274 273 274 274 273 272 272 272 271 271 271 271 270 270 270 270 269 270 269 269 269 269 269 268 268 268 268 268

GFSWCAN_850_thetae_090.txt.gz
Theta_e
293 291 290 290 290 290 290 290 293 294 293 290 291 292 293 294 296 297 297 297 296 294 294 294 294 294 295 296 295 297 297 296 301 301 302 302 301 303 304 304 306 305 305 304 306 307 306 307 309 308 308 306 306 304
291 291 290 290 290 290 290 291 292 292 291 289 290 292 293 294 295 296 297 297 297 296 296 295 295 294 296 297 297 297 298 297 299 298 300 301 304 299 302 305 305 301 305 308 306 306 306 304 303 303 303 302 303 302
290 289 289 289 289 290 291 293 292 291 290 290 291 292 293 294 294 296 297 298 296 295 296 295 296 297 296 295 294 296 296 298 298 299 298 301 303 302 302 302 304 301 302 305 305 303 304 302 300 298 299 297 299 300
290 289 290 289 289 290 290 292 292 289 290 292 292 293 293 294 294 295 296 297 298 296 294 295 296 296 296 296 296 295 296 299 299 299 299 301 302 301 302 303 304 301 302 301 305 302 300 298 297 296 295 296 298 297
289 288 289 289 289 290 292 291 290 290 293 294 295 295 295 295 295 296 297 297 298 296 295 295 296 297 296 296 295 297 297 297 297 300 301 300 299 302 302 303 298 298 298 298 302 297 298 295 294 294 293 292 293 295
290 289 289 289 289 291 291 290 289 292 295 297 298 297 296 296 297 297 297 297 298 298 297 293 296 296 298 297 296 296 295 295 296 300 300 300 302 302 300 296 296 296 295 296 297 296 295 294 292 291 293 291 291 291
289 288 288 289 289 290 290 289 292 295 297 298 297 297 297 298 298 298 297 297 297 297 296 294 294 298 299 297 297 297 296 299 300 299 300 300 300 302 301 301 294 294 293 293 294 295 296 293 291 291 291 290 290 289
289 288 288 289 290 290 289 290 294 296 297 298 299 299 298 299 298 298 297 297 296 296 295 296 295 298 299 299 298 298 298 298 299 300 300 301 301 300 297 292 291 291 292 292 292 292 291 290 290 289 288 288 287 285
288 287 289 290 290 289 290 293 294 296 297 298 298 299 298 298 298 298 298 296 295 296 295 296 295 295 300 299 299 299 299 296 299 298 297 299 296 298 289 290 290 289 288 288 290 290 290 289 288 287 286 285 284 281
288 288 289 290 289 290 293 294 295 296 297 298 298 299 297 298 298 297 296 295 296 296 297 297 297 295 300 298 299 298 298 293 297 297 299 298 289 289 288 288 287 287 287 287 288 289 286 287 286 285 284 283 283 282
289 290 290 289 290 292 293 295 295 296 297 297 298 298 297 297 297 297 296 296 296 297 296 297 297 297 298 300 298 299 296 293 296 298 299 294 291 288 286 286 285 285 285 285 285 285 285 285 285 284 282 280 281 281
289 289 289 290 292 294 295 295 296 296 297 297 298 297 297 298 297 297 295 296 296 296 297 297 297 300 300 300 298 298 300 300 299 298 296 290 288 286 285 284 283 284 284 283 283 282 282 283 283 282 281 280 280 280
290 291 293 295 296 296 296 297 297 297 297 298 298 298 298 297 297 292 295 298 297 295 296 298 300 300 299 299 298 299 299 296 296 292 293 285 287 285 284 283 282 282 282 283 283 283 283 282 282 281 281 280 279 279
293 295 298 298 298 298 298 297 298 298 297 298 296 295 294 293 288 289 291 290 297 299 298 299 299 299 299 298 298 299 293 295 292 289 288 283 285 283 283 283 282 281 281 281 280 280 280 280 280 279 279 279 279 279
297 298 298 298 298 298 298 298 297 297 296 293 292 291 287 290 292 294 295 297 297 298 299 299 297 297 290 291 292 290 296 294 290 286 278 283 284 284 283 282 281 281 280 280 279 279 279 279 279 279 279 279 278 278
297 297 297 298 298 298 297 297 297 293 292 291 290 289 290 292 291 293 295 296 298 299 299 299 294 291 289 287 291 289 294 292 284 278 283 284 283 283 282 281 281 280 280 279 279 279 279 279 279 279 278 278 278 277
297 296 297 297 297 296 296 297 295 291 290 289 287 289 289 289 289 290 293 294 298 299 287 290 289 290 289 285 286 283 283 279 280 282 284 283 283 282 282 281 281 280 280 279 279 279 279 278 278 278 278 277 277 276
296 296 297 298 298 297 297 291 290 289 287 288 287 287 287 288 288 290 292 294 295 293 292 288 289 284 282 287 281 276 281 282 283 283 283 282 282 281 281 281 280 280 280 280 279 279 278 278 278 278 278 277 277 276
296 297 296 297 298 297 292 290 289 288 288 288 288 287 287 287 287 289 290 291 291 291 290 287 281 281 278 279 279 282 282 282 282 282 282 281 281 281 280 280 280 280 279 279 279 279 278 278 278 278 277 277 276 276
295 294 293 292 293 294 291 289 289 289 288 288 288 287 286 286 286 287 289 289 290 288 283 279 277 282 283 284 284 284 284 283 282 281 281 280 280 280 280 280 279 279 279 279 279 278 278 277 277 277 276 275 275 275
295 294 292 293 293 291 290 289 289 288 288 287 287 287 286 286 285 285 285 287 286 282 280 282 283 284 285 285 284 284 283 283 282 282 282 281 280 280 280 279 279 279 279 278 278 277 277 276 276 275 274 274 273 273
292 292 292 292 291 290 290 289 289 289 289 289 289 287 286 285 283 283 283 283 281 282 283 283 284 284 284 283 283 282 282 282 282 281 281 280 280 280 279 279 279 278 278 277 277 276 275 275 274 273 273 272 272 272
293 295 294 292 291 290 290 291 291 290 287 289 288 286 284 285 284 283 281 281 281 282 284 284 284 284 283 283 283 282 282 282 281 281 280 280 279 279 278 278 277 277 276 276 275 275 274 273 273 272 271 271 271 271
296 293 291 291 292 288 291 291 290 290 290 286 285 284 283 284 283 281 278 280 281 282 283 283 283 283 282 282 282 282 282 281 281 280 279 278 278 277 276 275 275 275 275 274 274 273 273 272 272 271 271 270 270 270
293 289 289 285 290 286 282 279 282 284 281 281 281 280 281 285 277 275 277 280 281 281 282 282 282 282 282 281 280 279 279 279 279 278 278 277 277 277 276 275 275 275 274 274 274 273 273 272 271 271 271 270 270 270
285 286 286 283 284 283 282 281 279 279 278 278 279 284 284 275 275 275 278 280 281 281 281 282 281 281 280 280 279 279 279 278 278 277 277 276 276 275 275 274 274 274 274 273 273 272 272 271 270 270 270 270 269 269
281 280 285 285 286 287 282 285 285 280 278 279 277 274 273 274 273 277 280 281 281 281 281 281 281 281 280 280 279 279 278 278 278 277 277 275 274 274 274 273 273 273 272 272 271 270 270 270 269 270 269 269 269 269
282 282 281 280 280 281 273 273 273 274 275 281 279 273 273 274 276 280 281 281 281 281 281 281 281 281 280 279 279 279 278 277 277 276 274 274 274 274 273 273 272 272 271 271 270 270 270 270 269 269 269 268 268 268
280 280 280 272 277 277 276 273 275 278 278 279 270 271 276 277 278 280 281 281 281 282 282 282 281 281 280 280 279 277 275 275 274 274 274 273 273 273 272 271 271 271 270 270 270 269 269 269 269 269 268 268 268 268
280 279 278 276 270 273 275 276 276 277 278 277 277 276 276 276 278 281 282 282 282 282 282 281 281 280 279 278 277 275 274 274 273 273 273 272 272 272 271 271 271 271 270 270 270 270 269 269 269 269 269 268 268 268
279 279 278 276 274 276 276 276 277 277 278 277 278 277 275 276 277 278 280 280 280 281 280 280 279 277 276 276 274 274 274 274 273 273 273 272 272 271 271 271 271 271 270 270 270 270 269 269 269 269 269 268 268 268
279 278 276 271 276 277 277 277 277 277 277 277 277 277 277 277 276 276 277 278 278 278 278 277 277 276 275 275 274 274 274 274 273 272 272 272 271 271 271 271 270 270 270 270 270 270 270 269 269 269 268 268 268 268
279 278 278 278 278 277 278 279 278 278 277 277 278 277 276 276 275 276 276 276 276 276 276 276 276 275 274 274 274 274 274 273 272 272 272 271 271 271 271 270 270 270 270 270 270 269 269 269 269 268 268 268 268 267

GFSWCAN_850_thetae_093.txt.gz
Theta_e
292 292 295 292 291 290 290 290 290 291 292 293 292 290 292 293 294 296 297 296 297 295 295 294 294 293 294 294 296 296 297 297 299 302 303 304 304 304 304 305 307 306 306 306 305 306 306 305 308 309 308 305 304 302
291 291 292 292 291 290 289 290 290 291 294 292 291 289 291 292 293 295 296 296 296 295 296 295 295 296 295 295 296 296 297 297 299 299 300 300 302 302 302 306 305 307 307 306 307 308 302 301 301 298 300 299 299 298
290 291 292 291 291 289 290 290 290 291 293 292 291 289 291 293 293 294 296 296 296 295 295 295 296 296 296 295 295 295 295 297 298 298 298 299 302 302 303 303 304 303 301 305 305 303 299 297 297 295 295 294 294 295
290 290 290 290 289 289 289 289 290 293 292 291 290 290 292 292 294 294 295 296 296 296 295 295 296 296 296 296 296 295 294 296 298 298 299 299 300 301 303 303 303 301 300 300 304 300 298 295 294 294 294 293 293 293
290 290 290 289 289 289 289 290 290 292 291 289 291 292 293 293 294 295 295 296 295 297 296 295 296 297 297 296 295 295 295 297 297 297 300 301 300 301 303 302 299 298 298 299 301 296 296 293 292 293 293 292 291 289
290 291 290 289 289 290 289 290 292 291 290 290 293 294 295 295 295 296 295 295 297 297 297 297 296 296 297 296 295 295 297 296 296 299 300 300 300 302 302 302 296 295 295 294 296 295 293 292 290 290 290 289 289 289
290 290 290 290 289 288 289 291 291 290 289 292 296 297 297 297 296 295 297 297 297 296 296 296 295 298 297 296 295 295 295 295 297 298 300 299 300 301 302 302 294 294 293 292 293 294 293 291 289 288 288 288 287 286
288 289 289 290 288 288 289 290 290 289 293 295 297 297 297 296 296 296 297 297 296 296 296 296 296 297 298 298 296 297 296 298 298 299 299 300 301 300 301 293 291 291 292 291 291 291 290 289 289 287 286 286 286 284
289 290 289 288 288 288 289 290 290 290 294 296 297 298 297 297 297 297 297 295 296 296 295 296 296 298 298 298 298 298 298 298 298 300 299 299 299 300 292 291 290 288 288 288 289 288 288 287 286 286 285 284 283 282
288 289 289 288 288 290 290 290 289 293 295 296 297 299 298 298 297 296 296 295 296 295 296 297 295 298 299 298 297 297 297 298 298 298 298 300 296 289 288 287 287 286 286 287 289 288 286 285 283 282 282 282 282 281
288 288 287 287 289 290 289 289 292 293 295 296 297 296 297 297 297 296 296 296 295 297 296 296 296 298 298 300 299 297 297 296 299 299 299 298 295 289 286 286 285 285 284 284 284 283 283 284 282 281 280 280 281 280
288 288 288 289 289 290 289 290 292 294 296 296 297 296 297 297 297 296 295 296 296 296 296 296 296 298 298 300 299 297 299 298 299 299 299 297 289 286 285 284 284 284 283 283 282 281 281 281 282 281 281 280 280 280
288 288 289 290 290 289 289 292 293 295 296 297 297 297 297 296 298 295 295 297 297 295 295 296 299 298 299 298 299 299 299 300 297 298 297 289 286 285 284 283 283 282 282 282 281 281 281 280 280 280 280 280 279 279
289 290 290 290 290 291 291 293 294 295 297 298 297 298 294 293 294 291 294 293 295 296 297 298 297 299 299 298 299 299 297 297 298 296 295 287 285 284 283 282 282 282 281 281 281 280 280 280 280 280 279 279 278 278
290 291 292 293 294 294 294 294 295 295 297 295 295 296 292 290 291 292 295 295 297 297 299 298 298 298 295 296 294 294 298 299 296 296 286 284 284 283 282 282 282 281 281 282 281 282 281 281 280 280 279 278 278 278
293 297 298 297 298 298 297 296 294 296 293 292 291 289 290 292 292 294 295 295 297 298 298 299 294 295 293 292 295 296 297 297 291 284 283 284 283 282 282 281 281 281 281 281 280 280 279 279 279 279 279 278 278 277
296 297 298 298 298 297 297 296 295 291 291 289 287 288 289 289 291 292 295 295 297 298 296 292 292 294 290 289 291 287 290 285 281 283 284 284 283 282 282 281 281 280 280 280 280 279 279 279 278 278 278 278 277 277
294 295 297 297 297 296 296 294 291 289 287 288 287 287 287 288 289 291 294 295 297 295 293 291 290 290 290 291 289 282 280 282 283 283 283 282 282 281 281 281 281 280 280 279 279 279 278 278 278 277 277 277 277 276
294 295 296 297 297 297 292 290 289 287 288 287 287 287 287 287 288 289 293 294 293 292 292 287 285 287 285 281 280 281 282 283 282 282 282 281 281 281 281 280 280 280 279 279 279 278 278 277 277 277 277 276 276 275
296 296 297 298 298 295 290 289 289 289 287 288 288 287 286 286 287 287 288 290 291 290 286 284 283 282 282 283 284 284 284 283 282 281 281 281 280 280 280 280 279 279 279 278 278 278 277 277 276 276 276 275 275 274
294 292 292 296 293 290 290 289 288 288 288 287 287 287 286 286 286 287 288 288 287 282 282 282 282 284 284 285 284 284 283 283 283 283 282 280 280 280 279 279 279 279 278 278 277 277 277 276 275 275 274 274 273 273
292 292 292 293 291 290 289 289 289 288 288 288 288 287 286 284 284 284 284 284 281 281 282 283 283 284 284 283 283 283 282 282 282 282 281 280 280 280 279 279 278 278 277 277 277 276 276 275 274 273 272 272 272 271
292 295 293 292 291 290 289 290 290 289 287 288 287 286 284 283 283 284 281 281 281 282 283 283 283 283 283 282 282 282 282 282 281 281 280 280 279 279 278 278 277 276 276 275 275 275 274 273 273 272 272 271 271 271
295 292 291 292 291 286 290 290 290 289 289 287 286 284 284 283 282 281 280 279 281 282 283 283 283 283 283 282 282 282 282 281 281 280 279 279 278 277 276 276 275 275 275 274 274 274 273 273 272 272 271 271 270 270
293 287 289 283 289 284 281 279 281 284 280 280 281 281 281 283 280 277 279 280 281 282 283 283 283 283 283 282 282 281 280 280 279 279 278 277 277 276 276 275 275 275 275 274 274 273 273 272 272 271 271 270 270 270
283 284 285 282 283 284 282 281 278 279 279 278 279 282 282 278 277 278 279 280 281 282 282 282 282 281 281 281 280 279 279 278 278 278 277 277 276 275 274 274 274 274 274 273 273 272 271 271 270 270 270 270 270 269
281 280 283 283 285 285 281 283 283 279 277 279 279 276 277 276 276 278 279 280 281 282 282 282 282 281 281 279 279 279 278 278 278 277 277 275 274 274 274 274 273 273 272 271 271 271 270 270 270 270 269 269 269 269
281 282 281 279 279 279 273 272 272 274 276 280 278 274 276 275 277 279 280 281 282 281 281 280 280 280 279 279 279 279 278 278 277 276 274 274 274 273 273 273 272 272 271 271 270 270 270 270 270 269 269 269 269 269
279 279 280 271 275 275 274 272 274 277 277 278 273 273 275 276 277 279 280 281 281 281 280 281 280 280 280 279 279 278 277 275 274 274 274 273 273 273 272 272 271 271 271 270 270 270 270 270 270 269 269 269 268 268
279 279 276 274 270 273 275 275 276 277 277 277 276 275 275 275 277 279 280 280 281 281 281 281 281 280 280 279 277 276 275 274 274 274 273 273 272 272 272 271 271 271 270 270 270 270 270 270 269 269 269 269 269 268
278 278 276 275 274 276 276 276 276 277 277 277 277 276 275 276 277 279 280 281 281 281 281 280 280 278 277 276 275 274 274 274 274 273 273 272 272 271 271 271 271 271 270 270 270 270 270 270 269 269 269 268 268 268
278 277 275 271 276 277 277 277 277 277 277 277 277 277 277 277 276 277 278 279 279 280 279 278 278 277 276 275 275 274 274 274 273 272 272 272 272 271 271 271 270 270 270 270 270 270 269 269 269 269 268 268 268 268
278 277 277 277 276 276 277 277 277 277 277 277 277 277 276 276 275 276 277 277 277 277 277 277 276 276 275 274 274 274 274 273 272 272 272 272 271 271 271 271 271 270 270 270 269 269 269 269 268 268 268 268 267 267

GFSWCAN_850_thetae_096.txt.gz
Theta_e
294 294 294 293 293 291 291 291 291 291 291 293 294 292 289 292 294 294 296 296 295 296 297 296 296 297 297 297 299 298 301 300 302 304 304 305 306 306 307 307 308 308 309 309 308 308 309 302 307 309 303 302 302 300
293 293 292 293 294 292 291 290 290 290 291 292 293 293 291 291 293 294 295 296 296 296 297 296 296 296 296 296 297 298 299 299 300 303 303 302 304 304 304 307 306 308 306 308 306 305 300 297 297 296 297 296 297 297
293 293 292 291 293 292 291 290 289 290 290 293 293 291 290 289 292 294 295 296 296 295 295 296 298 298 296 296 296 297 297 298 300 298 299 300 303 304 305 304 304 305 303 307 307 301 298 296 295 294 294 293 294 294
292 292 291 291 292 291 291 290 289 290 291 293 293 291 290 290 292 294 295 295 296 296 297 298 296 297 296 296 296 296 297 297 298 298 300 300 302 303 304 304 304 304 303 302 304 301 299 296 294 293 292 292 291 291
291 290 290 291 291 291 290 289 289 290 291 293 292 289 289 291 292 294 295 295 295 296 298 298 298 297 297 296 295 296 296 297 299 299 301 302 302 303 304 304 303 299 299 303 302 297 297 294 291 291 290 289 290 291
291 290 290 290 290 290 289 289 290 290 290 292 290 290 291 293 293 294 296 296 296 295 296 300 298 297 296 297 296 297 297 298 298 299 300 300 301 303 304 303 298 296 296 295 296 295 294 292 291 290 289 289 288 288
291 290 290 291 290 290 290 289 290 290 292 291 290 292 293 294 295 295 297 297 296 296 296 299 299 298 297 296 296 297 297 298 298 299 300 301 302 302 303 302 297 295 295 294 294 294 293 293 291 290 288 287 286 285
290 290 291 291 290 290 289 289 290 292 291 290 290 294 296 297 295 296 296 297 296 296 296 299 299 299 297 299 298 298 298 297 299 300 300 301 302 302 303 297 295 294 293 292 292 292 292 290 289 288 287 287 286 285
290 290 290 290 290 290 289 288 290 291 290 290 295 296 297 297 297 296 297 296 296 296 298 297 300 301 298 299 298 298 299 299 300 300 300 301 302 302 297 296 294 291 292 291 291 290 289 288 287 286 286 285 285 283
289 288 288 289 289 289 288 288 289 290 290 293 295 297 297 298 297 297 296 295 296 296 297 297 298 301 299 299 299 300 299 301 300 300 299 301 301 292 291 290 289 288 288 289 291 290 289 287 286 284 283 282 281 280
288 288 290 290 289 288 288 289 290 289 292 294 296 296 297 297 296 296 295 297 297 297 296 297 298 301 299 302 301 299 301 301 301 302 301 301 301 292 289 288 287 286 286 286 286 285 285 285 285 284 282 281 280 279
289 288 289 289 288 288 290 291 289 291 294 296 297 296 296 297 297 298 298 297 297 298 298 297 297 299 300 299 301 299 300 300 301 300 301 302 293 288 288 286 285 285 284 284 284 283 282 282 282 281 280 279 279 279
289 289 288 288 288 288 290 290 290 293 294 296 297 297 297 297 300 299 298 299 299 297 297 297 298 299 298 298 299 301 300 301 300 303 303 297 289 287 286 284 283 283 282 281 281 280 280 280 280 280 280 280 279 279
288 288 288 288 289 289 290 289 291 293 294 296 297 300 299 298 300 300 300 301 299 298 298 298 298 298 298 299 303 301 300 300 302 302 302 292 288 286 284 282 282 282 281 281 281 280 280 280 280 279 279 278 278 278
288 288 288 288 290 290 290 290 292 294 295 296 297 300 297 296 294 295 297 297 297 297 298 299 299 300 300 301 300 300 300 301 301 302 294 289 285 284 282 282 282 281 280 280 280 280 279 279 279 278 278 278 278 278
289 289 290 290 290 291 290 291 293 294 294 293 292 294 293 296 295 295 296 297 297 298 299 300 299 300 300 300 299 301 302 303 298 291 287 285 283 282 282 281 281 280 280 280 280 279 279 279 279 279 279 278 278 277
290 290 291 291 290 290 291 293 293 293 291 291 291 289 292 295 296 294 295 295 297 299 304 300 300 301 297 299 299 296 299 292 287 286 286 284 282 282 281 281 281 281 281 280 280 280 280 280 279 278 277 278 277 277
292 295 297 295 293 292 292 293 291 290 290 290 292 290 288 289 291 292 294 296 297 297 297 298 296 298 300 300 299 291 285 284 285 285 283 282 282 282 281 281 281 281 281 281 280 280 279 279 278 278 278 277 277 276
295 297 298 297 294 293 293 290 289 289 289 289 287 287 288 287 289 291 293 296 296 295 293 293 296 298 296 290 289 286 285 285 284 283 281 282 281 281 281 281 280 280 280 279 279 278 278 278 277 277 277 276 276 276
294 295 296 296 296 293 290 290 290 290 291 290 289 288 288 288 288 288 289 290 290 292 293 294 292 288 288 286 285 286 285 284 283 283 281 280 280 281 280 280 280 279 279 278 278 278 277 277 276 276 275 275 275 276
295 296 297 297 292 290 289 290 289 289 289 289 288 289 288 287 288 289 288 290 290 288 289 285 285 283 284 284 284 284 283 284 284 284 283 282 280 281 280 279 279 279 279 278 278 277 277 277 276 274 274 273 273 272
295 297 297 296 291 290 289 289 290 289 290 290 289 289 289 290 289 287 286 288 286 284 284 285 284 283 284 284 283 283 283 283 283 283 282 281 280 280 280 279 279 279 278 278 277 277 276 275 274 274 273 272 272 271
294 296 295 293 291 291 290 290 291 290 291 290 289 290 289 288 286 285 286 284 283 282 283 283 283 283 283 283 283 282 282 282 282 281 281 280 280 279 278 278 278 277 277 276 275 275 274 274 273 273 272 271 271 271
293 291 291 291 291 290 290 291 291 290 290 290 290 289 288 287 284 286 288 285 283 282 282 282 282 282 282 282 282 282 282 282 281 281 280 279 279 278 277 276 276 275 275 275 274 274 274 273 273 272 271 271 270 270
292 287 289 289 289 290 291 291 290 290 290 289 289 288 287 285 288 288 288 284 283 283 282 282 283 283 283 282 281 282 281 281 280 280 279 278 277 276 276 275 275 275 274 274 273 273 273 273 272 272 271 270 270 269
288 285 288 289 289 291 290 290 290 289 288 288 288 286 286 288 288 289 286 284 283 282 282 282 282 282 281 281 281 281 280 279 278 278 278 277 276 276 276 275 275 274 274 273 273 272 271 271 271 270 270 269 270 270
288 287 284 283 285 286 288 286 286 288 288 288 288 286 287 289 288 283 280 280 281 281 282 283 282 282 282 281 280 279 279 278 278 278 277 276 275 275 274 274 273 273 272 272 271 271 270 270 270 270 270 269 269 269
283 282 286 281 281 281 283 283 284 284 284 282 285 285 287 286 284 279 279 281 282 282 282 282 281 281 280 280 279 279 278 278 277 276 275 275 274 274 274 273 272 272 271 271 271 270 270 270 270 270 269 269 269 269
281 280 280 276 278 278 278 280 280 279 277 280 283 281 279 275 275 276 280 281 282 282 281 281 280 280 279 279 279 278 278 277 275 275 274 274 273 273 273 272 272 271 271 271 271 271 270 270 270 270 269 269 269 269
279 278 278 276 277 279 276 275 277 276 276 276 276 275 275 274 276 278 280 281 281 281 281 281 280 280 280 279 278 277 276 275 274 274 274 273 273 272 272 271 271 271 271 270 270 270 270 270 270 270 269 269 268 268
278 278 278 278 278 277 276 276 277 277 276 275 276 277 276 275 277 278 280 280 280 280 281 281 280 279 278 277 276 275 275 274 274 274 273 273 272 272 271 271 271 270 270 271 270 270 270 269 269 269 268 268 268 267
277 277 278 278 278 276 277 277 277 277 277 278 277 277 277 278 276 277 279 280 280 281 280 280 279 278 277 276 275 275 275 274 274 273 272 272 272 271 271 271 271 271 270 270 270 269 269 269 268 268 268 268 267 267
277 276 277 278 278 278 277 278 278 278 278 278 277 276 277 277 277 277 277 278 279 279 279 278 277 276 275 275 274 274 274 273 273 272 272 272 271 271 271 271 270 270 270 270 269 269 269 268 268 267 267 267 267 267

GFSWCAN_850_thetae_099.txt.gz
Theta_e
294 295 295 294 294 294 294 293 291 291 291 292 294 293 292 292 293 295 296 296 296 297 298 299 299 299 299 299 301 300 303 302 303 306 305 306 307 307 308 307 308 310 311 311 311 309 311 300 307 308 301 299 301 300
293 293 295 294 294 292 292 292 291 291 291 292 294 294 292 290 293 294 295 296 296 296 298 298 298 298 299 299 299 299 300 301 301 303 304 303 306 306 307 311 307 309 308 308 306 305 300 298 298 296 297 297 297 297
293 293 294 294 294 294 293 292 291 291 291 291 292 294 293 291 291 293 295 296 295 295 296 298 300 300 299 299 299 299 300 300 301 300 300 301 304 306 306 306 306 307 305 308 305 301 299 298 297 296 296 294 295 296
293 293 293 293 293 293 293 292 291 290 290 291 292 293 292 291 289 292 295 296 296 296 298 300 298 299 299 299 299 299 299 299 299 300 301 301 303 304 306 306 305 304 304 305 302 300 299 297 295 295 295 295 295 295
292 293 293 292 292 292 292 292 291 290 290 291 292 293 292 290 289 292 295 296 296 297 299 299 299 300 299 299 299 299 299 299 299 300 302 303 303 304 305 305 305 301 301 304 303 298 298 295 293 292 292 292 293 293
292 292 292 291 292 292 292 291 290 290 290 291 293 292 289 289 291 294 295 296 296 297 298 300 300 299 299 299 299 299 299 299 299 299 300 302 302 303 304 305 299 298 298 297 297 295 295 293 292 292 292 292 291 291
292 292 291 291 290 291 291 290 290 290 290 291 292 290 289 291 293 295 297 298 297 297 296 299 301 300 299 299 299 299 299 299 299 299 300 301 302 303 304 304 299 297 298 297 296 296 296 295 294 292 292 290 289 288
291 292 292 290 291 291 290 290 290 289 290 291 292 290 291 293 293 294 295 297 297 297 296 301 301 301 299 300 300 299 299 298 299 300 300 302 302 303 304 301 299 297 296 295 295 295 294 293 292 291 291 290 290 288
290 291 291 290 291 290 290 290 290 290 291 292 290 291 292 293 294 295 296 296 296 296 299 299 301 302 300 300 300 300 299 300 300 301 301 302 303 304 299 299 297 295 295 294 293 293 292 291 290 289 289 288 288 286
290 291 291 291 291 290 290 289 289 291 291 290 291 294 295 297 297 297 297 296 296 296 298 299 300 302 301 301 300 300 300 302 303 302 301 302 302 296 294 293 292 292 291 292 293 292 291 289 288 287 286 285 284 283
289 291 291 291 291 290 290 289 289 289 290 291 294 295 297 297 296 297 296 298 298 298 298 298 299 302 301 302 303 301 302 302 302 303 302 303 303 294 292 291 290 290 290 289 289 288 288 288 287 286 284 283 282 281
290 290 288 288 289 289 289 288 289 291 291 293 296 296 296 297 297 299 299 299 298 300 300 299 299 301 301 301 302 301 301 302 302 302 302 303 295 291 290 289 288 288 287 287 287 286 285 285 285 284 283 281 280 279
290 288 289 290 289 289 289 289 290 291 292 295 296 296 297 298 301 301 300 300 301 300 300 299 301 300 300 300 300 302 301 303 302 303 304 299 292 290 289 287 286 285 285 284 284 283 282 281 281 280 280 280 279 280
290 288 289 289 289 288 289 291 290 290 293 294 296 300 301 300 301 301 302 303 302 300 299 299 300 300 299 300 303 303 303 301 303 303 304 296 290 288 286 285 283 282 282 281 280 281 281 281 281 280 280 280 280 279
289 289 289 288 288 288 289 290 290 290 293 294 298 302 299 300 299 299 300 300 299 299 299 300 300 300 301 303 302 303 302 303 303 304 297 291 288 286 285 283 282 281 281 280 280 281 280 280 280 280 279 279 278 278
289 288 289 289 289 289 290 290 291 292 294 294 296 298 297 299 297 296 298 297 299 299 300 301 301 301 300 301 301 302 303 304 300 295 290 288 286 284 283 281 281 281 280 280 279 279 279 278 278 277 277 278 278 277
288 290 289 289 290 291 291 291 291 293 294 294 294 293 296 298 298 296 297 297 298 299 304 301 301 301 301 301 301 302 302 296 291 289 288 287 284 282 282 282 282 280 280 280 279 279 278 278 277 278 279 277 277 276
289 289 289 289 291 292 291 292 293 292 293 292 295 293 292 294 295 295 295 296 298 300 300 301 300 301 302 303 303 296 291 289 288 287 286 284 282 282 281 281 280 280 280 280 279 279 278 279 280 281 279 278 278 277
289 289 289 290 291 291 292 292 292 293 292 291 290 291 292 291 292 293 294 295 295 296 298 298 300 302 302 296 295 292 289 288 287 285 284 283 282 281 281 281 280 280 280 280 280 281 281 279 279 279 279 279 279 279
292 291 291 290 291 293 292 291 292 293 293 291 291 292 292 292 291 291 292 294 295 297 299 299 299 294 294 291 291 290 289 288 286 285 284 283 281 281 281 282 282 281 281 280 280 279 280 279 279 278 278 277 277 277
297 295 292 292 292 291 292 292 292 291 291 292 291 292 290 291 292 293 292 292 294 296 296 292 291 287 287 289 289 288 287 287 288 287 286 284 283 283 282 282 281 281 281 281 281 280 279 279 279 277 277 276 276 275
292 292 292 293 292 291 291 292 292 292 292 291 292 292 292 293 293 292 291 293 294 291 291 290 288 286 286 286 286 287 286 285 285 285 285 284 284 283 282 282 281 281 281 280 280 280 279 278 277 276 275 275 274 274
294 294 293 292 292 292 291 292 292 292 293 292 292 293 293 292 291 290 292 291 289 286 288 287 287 287 286 285 284 284 284 285 285 284 284 284 282 282 281 281 280 280 280 280 278 278 277 276 275 274 274 274 274 274
296 295 292 293 293 292 291 293 292 292 292 294 294 292 292 291 289 291 294 291 287 286 286 285 285 285 284 284 284 284 284 284 283 283 282 282 281 280 279 278 278 277 277 277 277 276 276 275 274 274 274 273 273 273
293 289 291 292 291 292 293 293 293 293 293 293 293 292 292 289 294 294 294 289 286 286 286 286 286 285 286 286 284 282 282 283 282 281 280 280 279 278 277 277 276 275 275 276 276 276 275 274 273 273 273 272 272 272
291 288 291 293 292 294 294 293 293 293 293 293 292 291 290 293 294 295 292 288 286 286 285 286 286 286 286 285 283 282 281 281 280 280 278 278 278 279 279 278 278 277 276 274 273 273 273 272 271 271 271 271 271 270
292 290 287 285 289 291 292 291 292 293 293 292 292 291 292 294 295 288 284 285 285 284 285 285 286 285 284 283 281 280 280 279 280 279 278 277 276 275 275 276 276 275 273 273 272 271 271 271 270 270 270 270 270 270
286 286 289 286 286 287 289 290 290 290 290 288 291 292 292 292 289 283 282 282 283 283 283 283 283 282 280 280 280 280 279 279 278 277 276 275 275 275 274 274 273 273 272 272 272 271 271 271 270 269 269 269 269 268
286 284 284 281 284 283 283 286 286 283 281 286 289 287 283 279 277 279 279 281 280 281 281 281 281 281 280 280 280 279 279 278 276 275 276 277 275 274 273 273 273 272 272 271 272 271 271 271 270 270 270 269 269 268
283 283 283 281 282 284 280 280 280 279 279 280 279 278 278 276 275 277 279 280 281 281 280 281 281 280 280 280 279 279 277 276 275 275 276 276 274 273 273 272 272 272 271 271 271 271 271 270 270 269 268 268 268 267
282 283 283 283 282 280 278 278 278 278 279 280 281 281 279 277 277 278 279 280 280 281 280 279 279 279 279 279 278 277 275 275 275 275 274 274 273 273 272 272 272 271 271 271 270 270 270 269 269 268 267 267 267 266
282 282 282 282 281 279 279 281 281 281 281 281 280 279 279 281 280 276 279 279 278 278 279 280 280 279 278 278 276 276 275 275 274 274 273 273 272 272 272 272 272 271 271 270 270 269 269 269 268 268 267 267 267 267
281 282 282 282 281 281 280 282 282 281 282 281 280 280 280 281 280 276 277 278 277 278 278 279 279 278 277 276 275 275 275 274 274 273 273 272 272 272 272 271 271 270 270 270 269 269 269 268 268 268 267 267 266 266

GFSWCAN_850_thetae_102.txt.gz
Theta_e
297 297 296 294 294 293 293 292 292 292 292 292 292 294 293 292 293 295 297 296 297 298 299 300 300 300 300 300 301 300 302 303 303 306 305 305 306 306 308 309 308 308 311 310 310 311 310 300 304 304 300 298 299 300
296 295 295 295 294 294 294 293 292 292 292 291 293 294 293 290 292 294 296 296 296 296 298 299 298 299 299 300 300 300 301 302 302 303 303 302 305 308 306 310 307 309 307 306 305 304 300 299 298 297 298 297 297 297
295 294 296 296 295 294 293 294 292 292 292 291 292 294 293 290 291 293 296 296 296 295 297 298 300 301 301 301 301 301 302 301 301 301 301 303 303 306 308 307 307 307 305 306 305 301 299 298 298 297 297 296 297 297
294 294 294 295 295 295 293 292 292 292 292 291 292 293 293 293 290 292 295 295 296 296 299 301 300 300 300 300 301 301 301 300 300 300 302 303 302 305 306 306 307 305 305 305 302 300 299 296 296 296 296 296 296 296
294 294 294 294 294 295 294 293 292 291 291 291 291 293 292 292 290 290 294 295 296 298 299 299 299 300 301 301 301 301 300 300 300 300 302 303 303 305 305 306 304 301 300 302 301 298 298 296 294 294 293 293 294 294
293 294 294 293 293 292 293 293 291 291 291 291 291 293 293 291 289 294 295 296 296 296 298 300 299 301 301 301 301 300 300 300 300 300 301 301 302 304 305 305 300 299 298 298 298 296 296 294 294 294 293 292 292 291
293 293 293 293 292 292 292 292 292 291 291 291 291 293 292 289 291 295 297 298 297 297 298 299 301 301 300 300 300 300 300 300 299 300 300 301 302 303 305 305 299 298 298 298 296 297 297 295 295 294 293 292 291 290
292 292 292 292 291 292 292 291 291 290 291 291 292 292 290 290 292 295 296 297 297 297 296 299 301 302 300 300 300 300 299 299 299 299 300 301 302 304 304 300 299 298 297 296 296 296 295 294 294 293 292 292 291 289
292 292 292 291 291 291 291 291 290 290 290 290 292 291 291 291 293 294 295 295 296 296 298 299 301 303 300 301 301 300 300 301 300 302 302 302 303 304 300 300 298 297 296 296 295 294 293 292 291 290 289 288 287 285
290 291 292 292 291 291 290 290 290 290 291 291 292 292 293 293 293 295 296 296 297 296 297 300 300 302 301 301 301 300 300 301 303 303 302 303 302 297 296 295 294 293 293 293 294 293 292 291 289 287 286 285 284 283
290 291 291 291 291 291 290 290 290 291 291 292 292 294 296 296 296 297 296 297 297 299 299 299 300 302 302 302 303 301 303 303 302 304 303 304 302 295 294 293 292 292 291 291 290 289 289 289 288 287 285 283 282 281
290 290 291 291 291 290 290 289 290 291 292 292 295 295 296 297 297 300 299 299 300 300 300 299 299 301 301 302 303 302 302 303 302 303 303 303 295 293 292 290 290 289 288 288 288 287 286 285 285 284 283 281 281 280
289 290 291 291 291 291 290 289 289 291 293 293 295 295 296 297 301 301 300 300 301 300 301 300 302 302 302 301 300 302 301 303 303 303 304 299 293 291 290 289 287 286 286 285 285 284 283 282 282 282 282 281 280 280
290 291 290 289 290 290 289 289 289 292 293 294 295 299 300 300 301 302 303 304 303 301 301 299 300 301 300 300 301 302 303 302 303 304 303 296 291 289 287 286 284 283 283 282 282 282 282 282 282 281 281 280 280 280
290 290 289 290 289 289 289 289 290 292 292 293 295 301 300 301 300 301 302 301 301 300 299 300 300 301 302 302 302 302 302 303 303 304 297 291 289 287 286 284 282 281 281 281 281 281 281 281 281 281 280 280 280 280
289 289 290 290 289 289 290 291 291 291 292 294 295 300 299 300 298 298 299 299 299 299 301 301 302 302 301 301 302 303 303 304 300 294 290 288 287 286 284 282 281 281 281 280 280 280 280 280 280 280 280 280 279 279
289 291 290 289 288 289 290 291 291 291 293 295 296 295 298 300 298 297 298 298 299 301 304 302 302 301 301 300 301 303 302 297 292 290 289 287 285 283 282 281 281 281 281 281 280 280 279 279 279 279 280 279 278 278
290 290 289 289 289 290 291 291 292 293 295 294 296 294 294 296 297 296 297 297 300 300 301 302 301 302 302 303 304 296 293 290 289 288 286 285 283 282 282 281 281 281 281 281 280 280 279 280 280 281 280 280 279 279
291 290 289 290 290 291 292 291 293 295 293 292 292 292 293 294 295 295 296 297 298 299 300 300 301 302 302 297 296 293 290 289 287 285 284 283 283 283 282 282 281 281 281 280 281 282 282 280 280 280 280 280 279 279
290 290 289 291 291 292 293 293 294 293 294 293 293 293 294 293 293 294 295 296 297 299 299 300 299 295 294 293 293 291 290 288 286 285 284 283 282 282 282 282 283 282 281 281 281 280 281 281 280 280 279 278 277 277
289 290 290 291 292 293 293 294 294 293 292 293 292 292 292 292 293 294 294 295 297 298 298 295 292 290 291 291 290 289 288 288 288 288 286 284 283 284 283 283 282 282 283 282 282 282 281 280 280 279 278 277 277 276
290 290 290 291 292 292 293 293 294 293 293 292 293 293 293 294 294 295 294 296 297 294 294 294 290 288 289 289 289 289 288 288 288 287 286 284 284 284 284 283 282 283 282 282 281 281 280 280 279 278 276 276 276 275
291 291 291 292 292 292 293 293 294 293 294 293 293 294 294 294 294 293 295 295 292 291 291 290 289 289 288 287 287 286 286 286 286 286 285 285 284 283 283 282 281 281 281 281 279 279 279 278 277 276 275 274 275 274
292 292 293 294 294 293 292 294 294 294 293 294 296 294 294 293 292 293 296 294 290 289 289 288 288 287 286 285 285 286 286 286 285 284 284 283 282 282 281 280 279 278 278 278 278 277 277 276 276 275 274 274 274 274
293 292 293 294 293 293 294 294 294 294 295 295 295 294 293 292 294 295 295 292 288 288 288 288 287 287 286 286 285 284 284 284 284 283 282 282 281 279 279 278 277 277 277 276 277 277 276 275 275 274 274 273 273 272
292 289 293 294 294 295 294 294 294 295 294 295 295 294 293 294 295 296 295 290 288 288 287 287 287 287 287 286 284 283 283 283 282 280 280 280 280 281 280 280 279 278 277 277 274 274 274 274 273 272 272 272 272 271
293 291 288 288 292 293 294 294 295 295 294 294 293 293 294 295 297 290 287 288 287 287 287 287 288 287 286 285 284 282 281 281 281 280 279 278 277 277 277 278 277 277 275 274 273 273 272 272 271 271 271 271 271 271
289 289 290 289 290 290 293 293 294 294 293 293 293 294 295 294 290 285 285 285 286 286 286 286 286 285 284 284 283 282 280 280 279 278 277 276 276 276 275 275 274 274 273 273 272 272 272 271 271 271 270 270 270 269
288 286 285 286 287 287 287 289 289 286 284 288 293 290 285 281 281 281 283 283 284 284 283 283 283 283 283 281 279 279 279 278 278 276 278 278 277 276 274 274 273 273 272 272 272 272 272 271 271 271 270 270 269 269
286 286 285 284 285 286 283 282 283 281 282 283 281 280 279 278 278 280 281 282 282 282 282 281 281 280 279 278 278 279 278 278 277 278 278 277 276 274 274 273 273 272 272 272 272 271 271 271 270 270 269 269 268 268
285 286 286 286 284 281 280 280 280 281 282 284 284 282 279 277 278 280 281 282 282 281 280 279 279 278 278 278 278 278 277 276 276 275 275 274 274 273 273 273 272 272 272 271 271 271 270 270 269 268 268 267 267 266
286 286 285 284 282 280 281 284 284 283 282 282 281 280 281 282 280 278 279 279 280 280 280 279 278 278 278 279 278 277 277 276 275 275 274 274 273 273 273 273 272 272 271 271 271 270 269 269 268 268 267 266 265 265
285 285 284 283 282 283 282 284 284 283 284 283 283 284 283 283 280 277 278 279 279 279 278 278 279 279 278 277 276 276 276 275 274 274 273 273 273 273 272 272 272 271 271 270 270 270 269 269 268 267 266 266 265 265

GFSWCAN_850_thetae_105.txt.gz
Theta_e
297 297 296 294 294 294 295 294 294 293 293 293 292 292 294 292 293 296 297 296 297 297 298 299 301 301 301 300 297 300 298 300 299 301 302 302 304 305 308 308 308 306 308 305 306 307 304 298 300 301 300 298 298 298
297 296 296 294 294 293 293 293 293 293 293 292 292 293 293 292 293 296 297 296 296 296 297 299 298 297 299 298 299 300 300 301 301 297 299 300 302 302 305 309 306 306 306 303 303 302 299 298 297 297 297 297 298 298
297 297 296 294 294 294 293 293 292 292 292 292 292 294 293 291 292 295 296 296 295 296 297 299 300 301 300 301 301 301 300 301 301 301 301 298 302 303 305 307 307 306 305 300 302 300 298 298 297 297 297 296 296 296
296 296 296 295 295 294 293 293 292 292 292 292 292 294 294 291 290 293 295 295 296 296 296 300 301 300 300 300 301 301 300 301 300 300 300 297 299 303 304 306 304 302 303 303 301 299 297 296 295 295 295 295 295 294
295 295 295 296 295 295 293 293 292 293 292 292 292 293 293 293 291 291 293 295 296 297 298 297 298 299 301 300 301 301 301 300 300 300 299 299 302 302 303 304 301 299 299 302 299 299 297 295 294 293 293 293 293 293
295 294 294 295 295 295 294 292 292 291 291 292 291 292 293 291 289 290 291 292 295 296 297 297 299 300 301 300 300 301 300 300 300 300 299 300 302 302 299 299 299 298 298 299 297 296 296 294 294 293 292 291 290 290
294 294 294 294 294 294 294 293 292 291 291 292 291 292 293 292 290 295 296 297 296 297 297 298 298 301 301 300 300 300 300 300 300 299 300 300 301 302 299 301 298 298 298 297 296 296 295 296 294 293 293 292 289 288
293 294 294 293 293 292 293 293 291 291 291 291 291 293 292 290 290 295 296 297 297 297 296 297 296 301 300 300 300 300 299 299 299 299 300 300 301 302 301 299 298 297 297 296 296 295 295 294 293 292 291 290 288 287
293 293 293 293 293 292 292 292 291 291 291 292 292 292 290 290 292 293 295 296 296 296 297 297 298 297 300 301 300 300 300 296 299 296 299 300 296 299 298 299 297 296 296 295 295 294 293 292 290 289 289 288 287 285
292 292 293 292 291 292 292 291 291 290 291 291 292 291 292 291 292 294 295 295 296 295 295 297 299 296 301 301 301 300 300 297 301 300 301 294 297 296 295 294 294 293 293 293 294 293 292 290 289 287 285 284 283 282
292 292 292 291 291 291 291 291 290 291 291 292 292 292 294 293 295 295 296 296 295 297 297 298 299 298 301 297 297 300 298 296 299 302 297 297 298 295 293 292 291 291 290 290 290 289 289 288 287 285 284 283 282 282
291 292 292 292 291 291 290 291 291 291 292 292 293 295 296 295 296 298 295 296 296 297 299 299 299 300 301 302 300 301 297 295 298 301 297 294 295 292 291 290 289 288 288 288 287 286 286 286 285 285 283 283 282 281
290 291 292 291 291 290 290 290 291 292 292 292 293 295 296 296 298 297 297 296 297 299 301 300 298 301 301 300 298 297 297 294 302 299 298 296 292 290 289 288 287 286 286 286 285 284 284 284 283 283 283 282 281 281
290 291 291 291 291 290 290 291 291 292 293 293 294 296 296 297 295 295 295 296 301 301 300 300 301 300 299 296 298 300 296 298 296 295 300 293 290 289 288 287 286 285 285 284 283 283 283 282 282 282 281 281 281 280
290 291 291 291 291 290 289 289 289 291 292 293 294 297 294 299 300 301 301 301 301 300 299 300 299 300 297 295 297 300 298 295 297 300 294 290 289 288 287 286 284 283 283 283 282 282 282 282 281 281 281 280 280 280
290 291 291 291 291 290 290 289 290 291 292 293 294 295 299 299 298 299 300 300 300 299 299 301 298 298 298 299 299 295 300 301 297 292 289 289 287 286 285 284 283 281 281 282 282 282 281 281 281 280 280 280 279 279
291 290 289 289 289 289 289 290 291 291 291 294 296 295 295 299 298 298 298 299 299 300 297 299 297 300 297 299 299 299 298 294 291 289 288 288 286 285 284 282 281 281 281 281 281 281 281 281 280 280 280 280 279 279
290 290 290 290 289 290 291 291 291 292 293 294 295 295 295 297 297 298 298 299 300 300 301 298 300 299 300 299 299 294 291 290 289 288 287 286 285 283 283 282 281 281 281 281 281 281 281 281 281 281 280 280 280 279
290 289 289 289 289 290 291 291 292 294 294 293 293 293 294 295 296 296 296 298 299 299 300 300 297 297 297 296 294 291 290 289 287 286 285 284 283 282 282 281 281 281 281 281 281 281 281 280 280 280 279 279 279 279
290 289 289 289 290 291 292 293 292 293 293 293 293 293 294 294 294 295 296 297 298 298 299 294 295 294 294 294 294 293 290 288 287 284 283 283 282 282 282 282 282 282 281 281 281 281 280 281 281 280 279 279 278 277
290 289 290 290 292 293 294 293 294 293 293 293 293 293 292 292 292 293 295 296 297 298 297 295 293 293 291 292 292 291 289 288 286 285 283 282 282 282 283 283 283 282 282 282 282 281 281 280 280 279 279 278 277 276
290 290 290 291 292 292 293 294 293 293 293 293 293 293 293 294 294 295 294 295 297 295 295 295 292 290 290 290 289 288 288 288 288 287 285 283 284 283 283 282 282 282 282 282 281 281 280 280 279 279 278 276 275 275
290 290 291 291 292 292 293 293 294 293 291 293 293 294 294 295 294 293 295 295 294 293 293 293 291 289 289 289 289 288 288 288 288 286 285 284 284 284 283 282 282 282 281 281 280 280 279 278 277 276 276 275 274 274
290 291 291 292 293 292 293 294 294 294 293 294 294 294 293 293 292 293 294 294 292 291 290 290 289 288 288 288 287 287 286 286 285 285 285 284 284 282 282 281 280 280 280 280 278 277 277 277 276 275 275 274 274 274
291 292 292 293 293 292 293 294 293 293 290 294 293 293 292 291 292 293 295 292 290 290 289 288 288 287 286 285 286 286 286 286 285 284 283 282 282 281 280 279 278 278 278 278 277 277 276 276 275 275 274 273 272 272
289 290 291 293 291 293 293 294 292 291 293 294 294 293 292 293 294 295 292 290 289 289 289 288 287 286 286 286 285 285 284 284 283 282 281 281 281 280 280 279 279 279 278 278 275 274 274 273 273 273 272 271 271 271
291 291 289 291 292 295 293 295 294 291 291 294 293 291 293 294 293 288 288 289 289 289 288 288 287 287 286 285 284 284 283 283 283 281 280 280 279 279 279 279 278 278 276 274 274 273 273 272 272 272 271 271 271 270
289 290 288 290 291 292 292 290 290 290 291 294 292 292 293 286 285 284 286 287 288 287 287 288 288 287 286 285 284 283 282 282 281 280 278 277 276 276 276 276 275 274 274 273 273 273 272 272 272 271 270 270 270 269
288 287 288 285 288 287 286 286 287 285 285 288 291 286 283 281 282 282 284 286 286 286 287 286 285 286 285 284 283 282 281 280 279 277 278 278 277 277 275 275 274 274 273 273 273 273 272 272 271 270 270 269 269 268
286 287 285 285 282 284 283 283 282 282 283 284 282 279 279 280 281 282 283 283 284 285 285 285 284 284 283 282 280 279 279 278 277 277 278 278 277 275 274 274 273 273 273 272 272 271 271 271 270 270 270 269 268 268
286 287 286 285 283 282 281 281 282 283 284 283 282 280 278 279 280 281 282 282 282 283 283 282 282 281 281 280 280 279 279 278 277 277 277 276 275 274 273 273 273 273 272 272 271 271 271 270 270 270 269 268 268 267
287 286 285 281 281 281 281 282 284 282 282 281 280 279 279 280 279 280 281 281 281 281 280 280 280 279 279 279 278 277 276 276 276 275 275 274 274 273 273 273 272 272 272 271 271 271 271 270 269 269 268 267 266 266
286 284 282 282 281 281 282 284 284 284 284 282 281 281 283 281 278 278 279 280 280 280 280 279 279 279 279 278 278 276 276 275 275 274 274 273 273 273 273 272 272 271 271 272 271 271 270 269 268 267 267 266 266 265

GFSWCAN_850_thetae_108.txt.gz
Theta_e
296 296 296 295 294 294 295 295 294 293 293 293 292 292 292 296 296 297 296 296 297 297 298 299 300 300 300 299 295 299 297 299 297 298 300 301 304 303 307 307 307 306 307 303 304 304 303 298 299 301 300 298 297 296
297 296 295 294 294 295 296 295 294 293 293 292 292 292 291 293 295 296 296 296 296 296 297 299 299 297 297 299 298 300 300 300 300 296 297 299 301 301 305 304 306 305 303 302 302 301 298 297 297 297 297 297 297 296
297 296 294 294 295 294 294 294 293 293 293 292 292 293 293 291 295 296 295 295 295 295 297 299 300 301 299 299 300 300 300 300 300 300 298 297 301 301 305 307 304 305 303 299 299 299 298 296 296 296 296 295 295 295
297 296 294 294 293 293 293 293 293 292 292 292 293 293 292 291 293 295 295 296 295 296 294 299 300 300 300 300 300 300 300 300 300 300 299 294 298 301 301 305 301 299 301 301 299 297 296 295 294 294 294 295 293 293
296 296 295 294 294 293 293 293 292 292 292 292 293 293 293 291 291 294 294 295 296 297 296 297 298 299 300 299 300 300 300 300 300 299 295 296 300 301 300 301 300 299 299 301 298 298 297 295 293 292 292 292 292 292
296 296 295 295 294 293 294 292 293 292 292 292 293 293 293 292 290 291 292 292 295 296 296 294 298 299 301 300 300 300 300 300 299 299 298 299 300 301 298 300 299 298 297 298 296 296 295 294 293 292 291 290 290 290
296 296 296 295 295 294 293 292 292 291 292 292 292 292 292 290 290 293 295 296 295 296 296 296 296 300 301 300 300 300 300 300 300 299 299 299 300 301 298 299 298 298 297 296 295 295 295 294 292 292 290 289 289 288
295 295 295 295 295 295 293 292 291 291 292 292 292 293 293 290 293 295 295 296 296 296 296 297 295 300 300 299 299 300 299 299 299 298 299 298 300 301 299 299 298 297 297 296 295 295 294 292 292 291 290 289 288 287
294 294 294 294 294 294 294 292 291 291 292 291 292 292 290 289 290 294 295 297 296 296 295 296 297 298 300 300 300 300 299 293 298 295 297 299 296 297 297 297 296 296 296 295 294 294 293 293 291 290 289 288 287 286
294 294 294 294 292 293 293 292 291 291 292 293 292 291 290 289 292 295 295 294 295 295 295 295 297 293 300 300 300 299 299 294 297 298 299 298 297 295 294 293 293 294 295 295 294 291 291 290 289 288 286 285 284 283
293 293 293 293 292 292 292 291 291 291 292 292 292 292 293 292 294 294 295 295 295 295 296 295 297 297 300 295 294 298 293 293 298 301 296 295 297 293 291 292 291 291 291 292 292 291 290 289 288 287 285 284 283 282
292 293 292 291 292 292 291 290 291 291 291 291 292 294 293 294 295 296 295 294 295 295 296 297 298 298 300 301 299 300 296 292 297 299 297 290 291 290 291 290 289 289 289 289 288 288 287 287 286 285 284 283 282 282
292 292 291 291 292 291 291 291 291 291 291 292 293 295 295 294 295 294 292 293 290 297 299 298 296 300 300 299 298 293 292 292 297 297 296 291 291 290 290 290 289 287 287 287 286 285 285 285 284 284 283 282 282 281
292 292 292 291 291 291 291 291 291 292 292 292 293 294 294 295 295 291 292 292 298 299 300 300 300 300 299 294 297 296 293 295 292 291 297 289 290 290 289 288 287 286 286 285 284 284 284 284 283 283 282 282 281 281
291 292 291 291 290 290 290 291 292 292 292 293 293 290 294 295 297 298 299 300 301 300 300 300 299 298 291 294 297 298 297 292 293 292 286 291 290 289 288 287 286 285 284 284 283 283 283 282 282 281 281 280 280 279
291 291 291 291 290 290 291 291 291 291 291 292 292 293 295 298 298 299 300 300 300 299 299 300 295 292 296 295 299 297 298 296 292 289 289 290 289 288 288 286 284 284 284 283 283 282 282 282 281 280 280 279 279 279
291 291 291 291 290 289 289 289 289 290 291 292 294 295 295 295 298 299 299 300 299 299 294 296 294 294 294 293 298 291 297 292 290 290 290 290 289 287 286 284 283 283 283 282 282 282 281 281 280 280 280 280 279 279
291 291 291 291 290 290 289 289 290 291 290 292 293 294 295 296 297 298 298 299 299 300 300 297 299 297 292 293 290 289 291 290 291 290 289 288 286 286 284 284 283 282 282 282 281 281 280 281 281 281 281 280 279 279
291 291 290 290 289 289 290 290 291 292 292 293 293 294 294 295 296 296 297 298 300 299 299 299 292 291 289 295 294 292 291 291 288 288 287 286 285 284 284 283 282 282 282 281 281 281 281 280 280 279 279 279 279 279
290 289 290 290 290 291 291 291 291 293 292 292 292 293 294 294 295 295 296 297 298 298 298 292 293 295 295 295 296 295 293 291 288 285 284 283 283 283 283 283 282 282 281 281 281 281 280 280 280 280 280 279 279 278
290 290 289 290 291 292 293 292 293 294 293 293 293 293 292 292 293 293 294 296 297 298 295 293 293 294 293 293 293 293 292 290 289 288 286 282 282 283 282 282 282 281 282 281 281 281 281 280 280 280 279 278 277 276
289 289 289 289 291 292 293 293 293 293 293 292 293 292 293 294 293 294 294 295 296 296 296 295 294 293 291 291 291 290 289 288 286 285 285 284 283 282 283 283 282 282 282 282 281 281 281 280 279 278 277 276 275 275
289 290 290 290 291 292 292 293 293 292 291 292 293 293 293 294 294 293 294 294 295 295 295 294 294 293 290 290 289 288 288 288 287 286 284 284 283 283 282 282 282 282 282 281 281 280 280 279 278 277 276 275 275 274
290 290 290 291 291 290 293 293 293 294 293 292 290 291 293 293 293 293 292 294 293 293 293 293 292 290 289 289 288 288 288 289 288 285 284 283 283 283 283 282 282 281 281 280 280 279 278 277 277 276 275 275 274 273
290 291 291 291 293 290 288 289 290 289 285 285 288 291 292 291 291 291 292 293 292 292 291 291 290 290 289 288 287 287 287 287 286 285 284 284 284 283 282 281 280 278 278 278 278 277 276 276 275 274 274 272 272 272
286 291 290 290 289 290 288 287 284 284 285 288 287 292 291 291 289 287 289 291 290 290 290 290 289 288 287 287 286 286 286 286 285 284 283 282 282 282 281 279 279 279 279 278 277 274 273 273 273 272 272 272 271 271
286 288 290 291 292 293 290 293 293 287 285 286 286 288 291 292 293 286 288 289 289 289 289 289 289 288 286 285 285 285 285 284 284 283 282 281 281 280 280 280 279 279 278 276 274 274 273 273 272 272 271 271 270 270
290 290 287 290 291 292 285 284 283 285 283 293 291 291 292 291 285 284 286 287 288 289 288 288 287 286 286 286 285 285 284 283 283 282 280 280 279 278 277 277 276 275 274 274 274 273 273 272 272 271 271 270 270 270
288 288 289 286 287 287 285 284 283 285 286 288 285 282 281 281 282 283 284 286 287 288 288 288 287 287 286 285 284 283 283 283 282 280 279 278 277 276 276 275 275 274 273 273 273 273 272 272 271 271 270 270 269 268
287 287 285 284 282 282 283 283 284 283 284 285 284 281 280 280 281 283 283 285 286 286 286 287 287 286 285 284 283 282 281 280 279 278 278 278 278 276 275 274 274 274 273 273 272 272 272 271 271 270 270 269 268 268
287 287 285 283 282 281 282 282 282 283 283 282 282 282 280 280 281 282 282 283 284 285 285 284 284 284 284 284 283 282 280 279 278 277 278 277 276 274 274 274 273 273 273 272 272 272 272 271 270 269 268 268 267 267
287 287 283 281 280 281 282 282 283 282 281 281 280 279 279 280 280 280 281 282 282 282 282 282 283 282 281 280 279 279 279 278 277 276 275 275 274 274 274 273 273 272 272 272 272 271 271 270 269 268 267 267 266 266
284 283 281 281 280 281 281 283 284 283 283 281 280 280 280 279 278 279 279 280 281 281 281 280 280 280 279 279 278 277 276 276 275 275 274 274 274 273 273 273 272 272 272 272 271 270 269 269 268 267 267 266 266 265

GFSWCAN_850_thetae_111.txt.gz
Theta_e
296 296 297 296 296 295 295 294 295 294 294 293 291 294 296 297 297 297 296 297 298 298 298 300 299 299 299 297 294 297 295 297 295 296 299 299 301 304 306 306 307 304 305 303 304 302 302 297 299 300 299 297 296 295
296 296 296 295 295 295 295 295 293 293 292 292 291 294 297 297 297 296 296 296 296 297 298 299 299 298 298 298 297 299 299 299 298 295 296 297 300 301 303 307 305 303 301 302 301 299 297 297 296 297 297 296 296 294
296 296 294 294 295 296 295 294 293 293 293 292 291 292 295 296 296 296 296 295 295 296 296 297 300 300 298 297 298 299 300 300 299 299 297 294 299 300 303 304 303 302 301 299 298 298 297 296 295 295 295 294 295 296
295 294 294 295 296 295 294 293 293 293 292 292 293 292 292 294 296 295 295 295 296 296 297 300 300 300 300 299 299 300 300 300 300 299 298 292 296 300 302 304 300 299 300 299 298 297 295 294 293 293 294 293 293 294
295 295 295 295 295 294 293 293 293 293 292 293 293 292 291 294 295 294 295 296 296 297 294 297 299 299 300 300 300 300 300 300 299 298 293 295 298 299 300 300 300 299 299 300 295 296 296 294 292 292 293 292 291 291
294 294 293 293 293 293 293 292 293 292 293 293 293 292 290 291 294 294 293 295 296 296 296 293 297 300 300 299 300 300 300 300 299 299 297 298 299 300 299 300 299 297 297 297 297 296 295 293 292 291 291 290 289 289
295 295 294 293 293 293 292 292 292 292 293 293 293 292 291 289 292 291 293 294 294 296 296 294 295 300 300 300 300 300 300 299 299 298 298 298 299 300 297 299 299 297 296 295 295 294 293 293 292 291 290 289 289 288
295 295 294 293 293 292 293 292 292 292 292 293 292 291 289 292 293 295 295 295 295 296 296 291 296 300 299 299 299 299 299 299 298 297 298 297 299 299 296 299 298 297 296 296 295 296 294 291 291 290 289 288 288 287
296 295 295 294 294 292 292 291 292 292 292 292 293 292 289 294 294 295 296 296 296 296 295 293 293 299 299 299 299 299 299 292 297 293 295 297 297 296 295 297 297 296 296 294 294 293 292 291 290 289 288 287 286 285
295 295 295 295 294 292 292 291 292 292 292 292 291 290 289 290 295 295 295 295 295 295 295 294 296 294 299 298 298 298 298 293 296 297 298 298 296 293 293 293 294 294 294 294 293 291 290 290 289 287 286 285 284 283
294 294 294 294 294 293 291 291 292 292 292 291 291 293 291 294 294 294 294 294 295 294 295 295 295 296 299 294 294 297 291 293 297 298 297 293 295 291 292 293 293 293 293 293 293 293 291 290 289 287 285 284 283 283
294 294 293 293 293 292 291 291 292 292 292 292 293 292 293 294 294 294 294 294 295 294 295 295 296 297 300 300 298 298 296 292 296 297 299 291 288 290 290 290 291 291 290 289 289 289 289 288 287 286 285 284 283 282
293 293 292 292 292 292 291 291 292 292 291 294 294 293 294 294 294 293 291 292 292 295 296 297 295 298 300 299 297 296 292 291 296 294 294 288 289 289 290 290 289 288 288 288 287 286 286 286 285 284 283 282 282 281
293 293 292 292 292 291 291 291 291 291 291 292 293 294 294 293 294 289 290 290 296 298 298 299 298 299 298 293 291 290 290 296 293 291 295 288 290 290 290 289 289 288 287 286 285 285 285 284 283 283 282 282 281 281
292 291 292 292 291 291 290 291 291 291 292 293 292 288 293 293 295 297 297 297 299 299 299 299 297 297 289 293 296 297 299 294 292 292 285 291 290 290 290 289 288 287 286 285 284 284 284 283 283 282 282 281 280 280
292 291 291 291 291 290 291 291 292 291 291 291 292 291 294 295 297 297 298 299 298 299 299 299 294 289 290 291 298 298 297 293 290 284 290 291 291 290 289 288 287 286 285 284 284 283 283 282 282 281 280 279 279 279
292 291 291 290 290 291 291 292 292 290 291 291 292 293 293 293 293 298 299 299 299 299 293 294 292 292 292 297 297 293 293 286 290 291 291 291 291 289 288 287 285 285 284 283 283 283 282 281 281 280 280 280 280 279
291 291 291 290 290 290 290 289 290 290 289 290 292 293 294 295 297 298 298 299 299 299 300 296 297 294 287 291 288 289 290 289 291 292 291 290 289 288 287 286 284 284 283 283 282 282 281 281 281 280 280 280 280 279
291 291 291 290 289 289 289 289 290 290 290 292 293 293 294 295 296 296 297 299 299 299 299 298 291 289 290 292 292 293 293 293 290 289 288 288 287 287 285 284 284 283 283 282 282 281 281 280 280 280 280 279 279 279
291 291 291 290 290 290 290 291 290 292 291 292 292 293 294 294 295 295 296 296 298 299 298 292 291 294 295 295 295 295 295 293 291 288 286 285 285 284 284 284 284 283 282 281 281 281 281 280 280 280 280 279 279 278
291 291 290 289 290 291 291 291 291 293 292 293 292 293 293 293 293 294 294 295 297 298 294 295 295 295 294 294 294 294 293 292 291 290 289 285 284 284 283 283 282 281 281 281 281 281 281 280 280 280 279 278 278 277
290 289 289 290 290 291 292 292 293 292 293 292 292 292 293 293 293 293 294 295 295 297 297 297 296 295 294 293 292 292 291 290 288 288 286 286 284 283 283 283 282 282 281 281 281 281 281 280 280 279 278 277 276 275
290 289 289 290 291 291 292 292 292 292 291 292 292 293 293 294 294 293 294 294 295 295 295 295 294 294 293 292 291 290 289 288 287 286 286 285 284 283 283 282 282 282 281 281 281 281 280 279 278 277 277 276 275 274
289 290 290 290 290 290 292 293 293 293 293 292 292 292 292 293 293 293 288 293 294 294 294 294 294 293 291 290 289 288 288 288 287 285 284 283 283 282 282 282 282 282 281 281 281 280 279 277 277 276 276 275 274 272
290 290 291 288 291 290 286 288 289 287 285 288 289 287 290 292 290 289 286 292 293 293 293 293 292 292 292 289 289 288 288 288 288 286 284 283 283 282 282 282 281 281 280 279 278 278 277 276 275 274 273 272 272 271
284 290 289 289 288 288 287 285 282 282 282 288 284 291 291 286 285 287 287 289 290 291 292 292 291 290 289 289 289 288 287 287 287 285 284 284 284 283 283 282 281 279 278 279 278 276 274 274 273 272 272 272 271 271
285 283 289 290 291 291 289 290 291 285 282 283 287 283 283 284 283 285 288 287 288 290 290 290 290 289 289 288 287 287 286 286 285 285 284 283 282 281 280 280 280 279 279 278 276 274 273 273 273 272 272 271 271 270
290 290 286 290 290 291 284 281 280 284 282 291 290 285 284 285 284 285 286 287 287 289 289 289 289 288 288 287 286 286 285 285 284 283 282 282 281 280 280 279 278 277 276 275 274 274 273 273 272 272 271 271 270 269
288 288 289 287 288 289 288 285 284 287 287 289 283 279 283 283 283 284 285 286 286 287 288 288 288 287 286 285 285 285 284 284 283 283 281 280 279 277 276 276 275 275 274 274 274 273 273 272 272 271 271 270 269 268
287 288 287 285 286 286 284 284 284 284 285 287 286 284 282 281 282 283 284 286 286 286 286 287 287 287 286 285 285 283 283 282 281 280 279 278 277 277 276 275 274 274 274 273 273 272 272 272 271 270 269 268 268 267
287 287 285 284 283 282 283 284 283 283 283 283 283 282 281 281 281 282 283 284 284 285 285 285 286 285 285 285 284 283 282 281 280 278 278 278 277 275 275 274 274 274 273 273 272 272 272 271 270 269 269 268 267 267
286 286 283 282 281 281 282 282 283 283 282 281 281 281 280 280 281 281 281 282 283 283 284 284 284 283 283 282 282 281 280 279 278 277 277 276 275 274 274 274 273 273 273 273 272 272 271 270 269 269 268 267 267 266
283 283 281 281 280 281 281 283 282 282 282 281 280 279 280 280 280 279 279 281 281 282 282 282 282 281 281 280 280 279 278 278 276 275 275 274 274 274 273 273 273 273 273 272 271 271 270 269 268 268 267 267 266 265

GFSWCAN_850_thetae_114.txt.gz
Theta_e
297 297 296 296 296 296 296 295 293 293 291 292 295 298 298 298 299 297 297 299 300 299 299 299 299 299 298 296 292 296 295 296 294 295 298 298 300 302 302 305 306 302 304 303 305 303 303 297 300 300 299 296 295 293
297 296 296 295 296 296 295 294 294 293 291 292 297 298 298 297 295 295 296 298 300 299 299 299 298 298 297 296 297 298 298 299 297 294 296 296 298 298 303 307 304 304 301 302 300 299 297 296 296 296 297 297 294 293
297 296 296 296 295 295 294 294 294 294 291 293 296 297 296 296 295 295 296 297 298 298 297 298 300 298 297 297 297 299 299 299 299 299 296 293 298 299 303 303 303 302 300 299 299 297 296 295 295 295 295 296 295 293
296 296 296 296 295 294 293 293 293 292 291 292 296 296 297 296 296 295 295 296 297 298 298 298 300 299 299 298 299 299 299 299 299 298 297 291 296 299 301 302 300 299 300 299 297 296 294 293 293 293 293 293 294 293
295 295 295 295 295 293 293 293 292 292 292 291 294 295 296 295 295 295 295 295 297 297 296 298 299 299 299 300 300 300 300 299 299 297 293 294 297 298 299 298 300 298 299 300 299 296 295 293 292 292 292 291 291 290
294 295 296 296 295 294 293 293 292 293 293 291 291 294 295 295 294 295 295 296 297 298 298 295 298 300 299 299 300 300 300 299 298 298 297 297 297 298 297 299 298 296 296 297 297 296 294 291 291 291 291 290 289 289
296 295 295 294 293 293 293 293 293 293 293 292 290 291 293 294 294 292 293 295 296 296 297 294 296 300 299 300 299 299 299 299 299 298 297 297 298 300 297 298 298 296 295 295 295 294 293 293 291 290 290 289 288 287
293 293 293 293 293 292 293 293 293 293 293 292 290 289 291 293 292 295 294 295 296 296 296 292 297 299 300 298 298 299 299 299 298 297 297 296 298 298 296 298 297 296 295 295 295 295 293 292 291 289 289 288 287 286
294 293 293 292 292 292 293 293 293 293 292 290 290 292 294 295 295 295 295 295 296 296 295 292 295 298 298 298 299 299 298 291 296 292 295 296 294 296 296 298 297 297 295 294 293 293 291 291 289 289 288 287 285 284
294 294 293 292 292 291 292 292 293 293 292 289 290 290 290 295 295 295 296 295 295 295 295 292 295 298 298 297 296 297 297 292 295 296 297 297 295 293 293 295 295 295 295 294 292 290 290 289 288 287 286 285 284 284
295 294 294 292 292 291 292 292 292 292 292 291 292 291 295 295 294 294 294 292 294 293 294 294 295 297 298 294 293 296 290 292 296 297 297 293 296 293 291 292 293 294 293 292 293 293 291 290 289 288 286 284 284 283
295 295 294 293 291 291 292 293 292 292 291 292 292 294 293 293 294 293 294 294 294 294 294 293 295 297 299 299 296 295 294 292 295 297 298 291 287 292 292 292 292 291 291 290 290 291 290 289 287 286 285 284 283 282
295 294 294 293 291 291 292 292 292 292 292 292 293 294 294 294 292 294 292 293 293 293 294 296 294 298 299 298 296 297 293 290 295 293 292 289 289 290 291 290 290 290 289 288 288 287 287 287 285 284 284 283 282 282
294 294 293 292 291 291 292 292 291 292 292 293 293 291 290 293 294 288 289 289 294 295 297 298 296 298 297 295 286 289 289 297 296 291 294 285 289 290 290 290 290 289 288 287 286 286 285 284 284 283 282 282 282 281
293 293 293 292 291 291 291 292 291 291 292 292 292 291 293 293 294 295 296 296 296 297 299 298 296 296 288 291 295 296 299 294 291 291 285 291 291 290 290 290 289 288 286 285 285 284 284 283 283 282 282 281 280 279
293 292 292 292 291 291 291 291 291 291 291 291 292 291 293 294 296 297 297 297 297 298 299 298 292 288 289 289 292 294 297 291 289 283 291 291 291 291 290 289 287 287 285 285 284 284 283 283 282 281 280 279 279 279
292 292 292 291 291 291 291 291 291 291 290 291 292 292 292 292 293 297 298 298 298 298 290 293 291 291 291 291 293 292 295 285 289 291 292 291 292 291 289 288 287 286 285 284 284 283 283 282 281 280 280 280 280 279
291 291 291 291 290 291 291 291 290 290 289 289 291 293 293 294 296 297 298 298 298 298 299 295 295 291 286 290 287 284 290 290 292 292 292 291 290 289 289 288 286 285 284 283 283 283 282 281 281 280 280 280 279 279
291 291 290 290 290 290 289 290 290 289 289 291 292 293 294 295 295 296 297 298 298 299 299 298 289 288 287 290 293 293 293 293 292 291 290 289 289 288 287 285 284 284 283 283 283 282 281 280 280 280 280 280 279 279
291 291 290 290 290 290 290 290 290 291 291 291 292 293 294 294 295 295 296 297 298 299 298 290 287 295 296 296 295 295 295 294 292 290 288 287 286 286 285 284 284 283 283 282 281 281 281 281 280 280 280 280 279 278
291 290 289 289 290 291 291 290 290 290 292 291 292 293 293 293 293 294 294 295 296 298 294 295 296 296 295 295 294 294 294 293 292 291 290 287 286 285 284 283 283 282 282 282 281 281 281 280 280 280 279 279 278 277
291 290 290 290 290 290 291 292 292 292 292 292 292 292 292 293 293 293 294 295 296 296 297 297 297 296 295 294 293 293 292 292 290 289 288 287 286 284 283 283 282 282 281 281 281 281 281 281 280 279 279 278 277 276
290 289 289 289 290 291 291 292 292 292 289 292 292 292 291 293 293 293 293 294 295 295 296 296 296 295 294 293 292 291 290 289 288 288 287 286 285 284 283 282 282 282 281 281 281 281 281 280 279 278 277 276 276 275
289 289 289 290 290 289 291 292 292 292 292 292 290 289 289 292 293 292 287 292 294 294 294 294 294 294 293 291 290 290 289 287 287 286 285 284 283 282 282 282 282 282 281 281 281 280 280 278 277 276 276 274 273 272
289 290 290 287 289 289 285 284 287 289 289 287 286 286 288 292 285 284 286 290 292 293 293 293 292 292 292 291 290 288 288 287 288 286 284 283 283 283 282 282 282 281 281 280 279 278 278 277 275 274 273 273 273 272
282 289 286 288 287 288 286 284 282 285 284 288 285 289 291 285 286 286 286 288 289 290 291 292 292 291 290 290 289 288 288 288 287 286 284 283 283 283 283 282 282 281 279 278 278 278 276 274 274 273 273 272 272 271
284 282 289 289 290 290 289 288 289 284 283 284 289 285 282 282 280 284 286 286 287 289 290 290 290 290 289 289 288 288 287 287 286 285 285 284 283 282 281 280 280 279 279 278 277 275 274 274 273 273 272 271 271 271
289 289 283 288 288 289 282 281 281 281 281 288 288 284 282 283 283 286 286 287 286 288 289 289 289 289 288 288 287 287 286 285 285 284 284 283 282 281 281 280 280 279 278 276 274 274 274 273 272 272 272 271 271 270
288 289 289 287 288 289 289 286 286 288 288 289 283 280 285 286 286 286 285 286 285 286 287 288 288 288 287 286 286 285 285 285 284 283 283 282 281 280 279 278 276 275 274 274 274 273 273 272 272 272 271 270 269 268
288 288 289 287 287 287 288 288 286 286 285 286 286 285 284 285 285 285 285 285 284 285 285 286 287 287 286 286 285 284 284 283 282 282 281 280 279 277 276 275 274 274 274 273 273 273 273 273 272 271 270 269 268 268
287 288 286 286 284 284 285 284 284 284 284 284 284 284 284 284 283 284 284 284 285 285 285 285 286 285 285 285 285 284 283 282 282 281 279 278 277 277 275 274 274 274 273 273 273 273 272 271 270 269 269 268 268 267
286 286 284 280 281 282 282 283 283 283 282 282 282 281 281 282 282 282 282 283 283 284 284 284 284 284 283 283 283 282 282 281 281 278 277 277 276 275 274 274 273 273 273 273 272 272 271 270 269 269 268 268 267 267
283 284 282 281 280 281 281 282 282 281 281 281 280 280 280 281 281 280 280 281 282 282 283 283 282 282 281 281 281 281 280 279 278 277 275 274 274 274 274 273 273 273 273 272 271 271 270 269 269 268 268 267 267 266

GFSWCAN_850_thetae_117.txt.gz
Theta_e
297 296 296 297 296 296 296 296 297 296 296 296 297 299 300 300 300 300 300 299 300 298 299 299 299 298 297 296 297 296 298 298 297 299 300 300 303 302 304 305 305 302 303 303 304 305 305 297 300 302 298 295 294 293
297 296 296 296 296 295 295 293 294 295 296 297 298 299 300 301 299 299 300 300 300 299 298 299 298 297 296 295 297 297 297 298 297 298 298 299 301 301 303 307 303 303 301 301 300 299 297 296 295 296 297 295 294 293
296 296 296 296 295 294 293 293 295 297 298 298 298 299 299 298 297 297 299 299 299 298 298 298 297 297 296 297 299 299 298 298 298 298 297 299 300 301 304 303 303 301 300 300 299 298 296 295 294 294 295 294 293 292
296 296 296 296 295 295 294 291 293 297 297 297 297 297 295 294 295 296 299 299 299 298 298 298 298 297 297 298 298 297 298 298 298 298 297 299 301 299 302 301 301 300 300 299 297 296 294 293 293 293 293 293 293 291
296 295 296 295 294 293 294 292 292 296 296 297 296 296 295 295 295 297 298 298 297 298 298 298 299 299 299 299 299 299 298 298 298 298 298 299 297 300 300 300 299 299 299 300 300 296 296 293 293 292 291 290 290 289
296 296 295 294 293 293 293 292 291 294 296 296 296 295 294 295 295 296 296 298 299 299 299 298 299 299 300 300 299 299 299 298 298 297 297 296 297 299 300 299 298 296 297 297 297 296 294 293 292 291 290 289 288 288
296 295 295 294 293 293 293 292 291 292 295 295 295 294 295 295 294 293 295 297 298 298 299 297 299 299 299 299 299 298 299 298 298 297 297 297 298 299 300 299 297 295 295 295 295 294 292 291 290 290 290 289 288 287
295 295 294 293 293 293 293 293 292 291 292 294 295 294 294 292 294 296 296 296 296 297 298 297 298 299 299 298 298 298 298 298 297 296 296 297 298 298 299 298 295 294 294 294 295 295 294 292 290 289 288 288 287 286
294 294 293 293 293 294 294 293 293 291 290 291 292 292 292 293 295 295 296 296 296 296 295 294 298 299 298 297 298 298 297 297 296 296 296 298 297 299 298 297 296 295 295 293 292 292 292 291 290 289 288 287 286 285
293 293 292 293 293 293 293 292 291 291 292 292 291 292 295 295 295 295 296 296 296 295 295 294 294 299 297 296 295 296 296 296 299 298 297 299 297 294 295 297 297 296 295 293 292 289 290 290 289 288 287 286 285 284
293 293 292 292 293 293 293 292 290 292 291 291 291 294 295 295 294 294 294 294 293 294 294 294 296 299 297 298 297 294 295 295 298 299 299 297 298 294 292 294 295 295 294 293 293 293 292 291 290 288 286 285 284 283
293 292 291 292 292 292 293 293 290 290 291 293 295 295 294 294 294 293 294 294 294 295 293 294 296 298 298 298 296 295 297 295 299 297 300 298 294 292 291 293 293 293 293 292 292 292 291 290 288 286 285 284 283 282
293 292 291 291 292 292 292 292 292 292 294 293 294 294 293 293 291 291 293 294 294 292 294 295 295 297 298 298 296 298 296 296 296 298 298 296 290 290 291 292 291 291 290 290 289 289 288 288 286 285 284 283 282 282
294 293 291 291 292 292 292 292 292 292 293 293 293 291 290 292 292 291 292 292 292 294 296 296 294 297 296 296 291 295 294 297 298 296 298 293 290 291 291 291 290 290 289 288 287 287 286 286 285 284 283 282 281 281
293 292 291 292 292 292 292 292 292 292 292 292 292 293 292 292 293 294 294 294 294 296 298 296 296 295 291 293 294 296 298 296 296 297 294 291 291 291 290 290 289 289 288 286 286 286 285 284 283 283 282 281 280 279
293 292 292 291 291 292 292 292 291 292 291 291 292 292 292 293 295 296 295 295 296 298 298 297 293 292 293 293 295 294 297 295 295 291 291 291 291 291 290 290 288 287 286 285 285 284 284 283 282 281 280 279 279 279
293 292 292 291 291 291 291 291 291 291 290 292 291 292 293 293 293 295 296 296 297 298 294 294 293 293 292 294 295 294 295 293 289 290 291 291 292 291 290 289 288 287 285 284 284 283 282 282 281 280 280 280 280 279
292 292 291 291 291 291 291 290 290 290 289 291 291 292 293 294 295 296 297 297 297 298 298 296 294 293 292 294 294 291 290 289 290 291 291 291 290 290 289 289 288 286 284 284 283 283 282 281 280 280 280 279 279 279
291 291 290 290 291 290 290 290 290 289 290 290 292 293 293 294 295 296 296 297 298 299 299 297 293 294 294 290 292 293 291 292 291 290 290 290 290 289 288 287 286 284 284 283 283 282 281 281 280 280 280 280 280 279
291 290 290 290 290 289 289 289 290 291 290 291 292 292 293 294 294 295 296 297 298 298 297 294 294 295 296 296 296 295 294 294 292 290 289 289 288 288 287 286 285 284 283 282 281 281 281 280 280 280 280 280 279 278
290 290 290 290 290 290 290 289 289 289 291 290 292 293 293 293 293 294 294 296 296 297 295 297 297 296 296 295 295 294 294 293 293 292 291 289 287 286 285 283 283 283 283 282 281 281 281 280 280 280 280 279 278 277
290 290 289 290 290 290 291 291 291 291 291 291 291 292 292 292 292 293 293 295 295 296 296 297 297 296 295 295 294 293 293 292 291 290 290 289 287 286 284 283 283 282 282 281 281 281 280 280 280 280 279 278 277 276
290 290 289 289 290 290 291 291 292 291 288 291 292 291 290 292 293 293 293 294 294 294 295 296 296 295 295 294 293 292 291 290 290 289 288 288 287 285 284 283 282 282 281 281 281 281 281 280 280 279 278 276 275 274
289 289 289 289 289 288 291 291 292 292 292 291 290 289 290 291 292 292 290 291 292 293 293 294 294 294 293 292 291 290 290 288 287 286 286 286 285 283 283 282 282 281 281 281 281 281 280 279 278 277 276 274 273 273
289 289 289 285 288 289 285 287 285 289 287 287 288 288 289 291 285 286 289 289 290 291 292 292 292 292 292 291 290 289 288 287 287 286 285 284 284 283 282 282 282 282 281 281 280 279 278 278 276 274 274 273 273 272
282 288 285 286 286 286 284 286 286 283 287 291 287 288 289 285 287 288 287 287 288 289 291 291 291 291 291 290 290 288 287 287 287 285 284 283 283 283 282 282 282 281 281 279 278 278 277 275 274 273 273 273 272 272
282 282 288 288 289 289 287 287 287 284 285 288 289 287 285 287 286 285 286 286 286 287 290 290 290 290 289 289 288 288 287 287 286 285 284 283 282 282 282 282 281 280 279 279 278 276 274 274 274 273 273 272 272 271
287 287 284 287 287 288 286 284 283 283 284 287 287 286 285 285 286 286 286 286 285 287 289 289 290 289 288 288 288 287 287 286 285 285 284 283 283 282 281 281 280 279 279 277 275 274 274 274 273 273 272 271 270 269
288 289 289 286 286 286 288 285 286 288 288 288 286 284 285 287 287 287 286 286 285 286 287 288 288 288 287 287 286 286 286 285 285 284 284 283 282 281 281 280 279 277 275 274 274 274 273 273 273 272 271 270 269 269
288 288 289 287 282 285 289 289 288 288 288 288 287 287 287 287 287 286 286 286 285 285 285 285 286 287 287 286 285 285 284 284 283 283 282 282 281 280 278 276 275 274 274 274 274 273 273 272 271 271 270 269 269 268
288 288 287 287 287 287 288 288 286 285 285 285 285 285 286 286 286 285 285 285 285 284 284 285 285 285 285 285 285 284 284 283 282 282 280 279 278 277 276 275 274 274 274 273 273 273 272 271 270 270 269 269 268 267
286 286 284 281 282 283 284 283 283 283 282 282 282 282 282 283 283 283 283 283 283 284 284 284 284 285 284 283 283 283 282 282 281 280 278 278 277 275 274 274 274 273 273 273 272 271 271 270 269 269 269 268 267 267
283 284 283 282 280 281 281 282 282 281 280 280 280 280 280 281 281 281 281 281 282 282 283 283 283 282 282 282 281 281 281 281 279 277 276 274 274 274 274 273 273 273 272 272 271 270 270 269 269 269 268 267 267 267

GFSWCAN_850_thetae_120.txt.gz
Theta_e
297 297 296 295 296 297 298 298 298 298 298 299 299 300 300 300 299 300 300 300 300 300 298 300 299 299 299 300 301 299 300 300 301 304 304 305 306 306 307 306 306 305 306 307 307 309 308 298 301 304 299 297 297 296
297 297 296 295 295 295 296 297 298 299 299 299 299 299 300 300 300 300 301 301 300 300 299 298 298 298 298 297 298 299 301 301 301 303 303 304 305 306 307 307 305 306 305 305 303 302 298 296 296 297 297 296 296 295
296 296 295 295 295 297 296 296 297 298 298 299 300 299 299 299 300 299 299 299 299 299 298 298 297 296 296 296 297 300 300 300 300 301 303 304 305 305 307 306 305 303 301 302 302 299 297 295 294 295 296 295 294 293
296 295 295 294 294 297 297 297 297 298 299 299 298 298 299 298 299 299 299 299 299 300 301 298 297 298 298 298 298 298 298 299 299 301 302 304 305 303 304 304 304 302 302 301 299 297 296 294 293 293 293 292 291 291
296 295 294 293 294 296 297 297 297 297 297 297 299 299 296 297 299 299 299 299 299 300 300 298 298 299 299 297 297 297 298 299 300 301 303 303 303 303 302 303 302 301 301 303 304 297 298 295 292 292 291 290 290 289
295 295 295 293 292 294 296 297 297 297 297 296 295 295 296 298 299 299 298 299 299 298 299 300 298 299 299 299 299 299 299 299 300 300 301 300 300 303 303 302 300 299 298 299 298 296 295 293 292 290 290 289 288 287
295 294 294 294 294 294 295 296 296 295 295 295 295 295 296 297 297 296 299 298 298 298 299 300 301 299 299 299 298 299 299 299 300 300 300 300 302 302 302 301 299 297 297 296 295 293 292 291 290 289 288 287 286 285
294 294 294 292 292 292 294 296 296 295 295 295 295 294 295 295 296 297 297 298 298 298 299 301 301 300 299 299 300 298 299 300 299 299 300 300 301 301 301 299 298 297 296 296 296 295 294 291 289 288 287 287 286 285
294 294 293 293 292 291 292 295 295 295 294 294 293 294 296 296 296 295 296 296 297 298 299 300 301 301 299 299 300 299 299 300 298 300 300 301 301 301 301 298 298 297 297 295 293 292 291 290 289 288 287 287 286 284
293 293 294 294 293 291 291 292 294 294 293 293 292 292 295 295 296 296 296 296 296 296 298 300 298 301 299 300 300 300 299 300 301 301 299 301 301 298 299 298 298 297 295 293 292 292 291 290 289 288 287 285 284 284
293 294 294 294 293 292 290 291 292 293 292 291 295 295 295 295 295 295 297 298 297 299 298 297 299 300 298 301 301 298 301 300 302 302 301 301 302 298 295 297 297 296 294 294 294 293 292 291 289 288 286 285 285 284
293 293 294 293 292 290 291 293 291 291 291 294 295 294 294 294 295 297 297 296 298 298 297 299 299 299 299 299 300 299 300 300 302 299 301 302 301 295 294 294 294 294 293 292 292 292 291 290 289 288 286 285 284 284
292 293 293 293 292 290 291 291 293 294 294 294 294 294 296 294 297 297 297 297 298 296 297 298 299 300 299 299 299 299 300 301 299 301 302 302 296 294 294 293 291 292 292 292 291 290 290 290 288 286 285 284 283 282
291 292 292 293 292 292 292 293 294 293 294 294 295 295 296 296 296 296 296 297 294 297 298 298 297 300 298 299 299 300 299 300 301 301 302 301 294 293 292 290 292 291 290 290 290 289 288 287 286 284 284 283 283 282
292 292 293 292 292 292 292 292 293 293 293 293 294 296 296 295 295 294 294 295 294 297 298 299 299 299 298 299 299 299 299 300 300 302 302 296 292 290 289 291 291 290 289 288 288 287 286 285 284 284 283 282 281 280
292 292 292 292 292 292 292 292 292 292 292 293 293 296 295 297 297 296 296 295 296 297 297 299 299 300 299 299 299 300 300 300 302 300 294 290 289 289 291 291 290 289 288 287 286 286 285 284 283 282 281 280 280 279
292 292 291 292 291 291 291 292 291 291 292 293 294 292 294 295 295 296 296 296 297 299 302 299 299 299 298 299 299 299 300 301 296 292 289 290 290 291 291 290 289 287 286 285 285 284 283 283 282 281 280 280 280 280
291 291 291 291 291 291 292 290 290 291 292 292 295 293 293 294 296 296 295 297 298 299 299 299 297 299 300 299 300 300 296 291 289 289 289 290 290 290 290 289 288 287 285 285 284 283 283 282 281 280 280 280 280 279
291 291 291 291 291 290 290 290 291 292 292 291 292 293 294 295 295 296 297 297 298 299 299 299 300 300 301 298 299 295 293 291 290 288 290 290 290 290 289 288 287 286 285 284 283 283 282 281 281 281 281 280 281 280
290 290 290 290 289 289 290 290 290 292 292 291 292 293 293 294 295 296 297 298 298 299 300 300 301 299 299 296 296 295 294 293 292 289 288 289 289 288 288 287 286 284 283 283 282 281 281 280 280 280 280 280 280 279
290 290 290 290 290 290 289 290 290 291 291 292 291 293 293 293 294 295 296 297 298 299 300 298 297 296 295 295 295 294 294 293 291 292 290 287 288 287 287 286 284 283 282 282 281 281 281 282 281 280 280 279 279 278
290 289 289 289 290 290 291 291 291 290 291 291 292 293 294 295 295 295 294 296 297 298 297 296 296 296 295 294 294 294 294 293 292 291 290 290 288 286 284 284 283 282 282 282 282 281 281 280 280 280 280 279 278 276
289 290 289 289 290 291 291 291 292 292 293 292 292 294 294 294 294 293 295 295 294 293 294 295 295 295 294 294 293 292 292 291 291 290 289 288 287 285 283 283 282 282 282 281 281 281 280 281 280 280 279 277 276 274
290 289 289 289 290 291 291 291 292 292 292 293 293 293 293 293 292 294 295 294 291 292 293 293 293 293 293 292 291 290 290 290 289 288 287 287 285 283 283 282 282 282 282 281 281 281 281 280 279 278 277 275 274 273
289 289 289 288 289 290 291 291 291 293 293 292 293 293 293 292 294 294 294 292 290 289 291 292 292 292 291 291 290 289 288 287 287 286 286 284 283 282 281 281 281 281 281 281 281 280 280 278 277 276 274 274 273 272
289 288 289 289 289 291 291 292 291 292 292 293 293 291 291 293 292 294 292 289 287 288 289 289 290 291 291 291 290 289 287 287 286 285 284 284 283 283 282 282 282 281 281 281 279 278 278 277 275 274 274 273 273 272
289 289 287 288 289 289 291 289 289 291 292 293 293 292 292 293 293 290 286 287 286 287 289 290 290 290 289 290 289 288 287 287 286 285 284 283 283 282 282 281 281 281 280 279 278 278 276 274 274 273 273 273 272 271
288 287 289 288 289 289 290 291 292 292 293 290 290 292 293 293 292 287 287 287 285 287 289 290 290 289 289 288 288 288 287 286 286 284 283 283 283 282 282 281 281 280 279 278 277 275 274 274 273 273 273 271 270 270
288 287 288 287 287 288 289 291 292 289 289 289 293 293 290 287 287 287 287 287 285 286 287 288 288 288 288 287 287 286 286 286 285 284 283 283 282 281 281 281 280 279 277 275 274 274 274 273 273 272 271 270 270 269
288 287 289 286 287 290 290 289 289 289 289 289 289 288 288 287 287 287 287 286 286 285 286 285 287 287 287 287 286 285 285 284 284 283 283 283 282 281 280 279 278 275 274 274 274 274 273 273 272 271 270 270 269 268
287 287 288 289 290 286 286 288 288 287 287 286 286 286 285 286 286 286 286 286 285 284 283 284 285 286 286 285 285 284 284 283 283 282 282 281 281 279 277 275 274 274 274 273 273 273 272 271 270 270 269 269 268 268
286 288 288 288 287 283 284 284 284 284 282 282 283 283 283 283 284 283 284 284 284 284 284 284 284 285 284 284 284 283 283 282 282 281 280 278 277 276 275 274 274 274 274 273 272 272 271 270 270 269 269 268 268 267
283 284 284 284 283 283 282 283 283 283 280 281 281 279 280 282 283 281 281 281 281 282 283 283 284 283 283 282 282 282 282 281 281 279 277 276 275 275 274 274 274 274 273 272 272 271 270 269 269 269 268 268 267 267